<?xml version="1.0" encoding="UTF-8" standalone="no" ?>
<gpx xmlns="http://www.topografix.com/GPX/1/1" xmlns:xsi="http://www.w3.org/2001/XMLSchema-instance" xsi:schemaLocation="http://www.topografix.com/GPX/1/1 http://www.topografix.com/GPX/1/1/gpx.xsd" version="1.1" creator="VisuGPX - https://www.visugpx.com">
  <metadata>
    <name>20260516-croisy sur andelle</name>
    <desc><![CDATA[Boucle A-R au départ de la Mairie]]></desc>
  </metadata>
  <trk>
    <name><![CDATA[SityTrail - 20260516-croisy sur andelle]]></name>
    <desc><![CDATA[Boucle A-R au départ de la Mairie]]></desc>
    <trkseg>
      <trkpt lat="49.4602" lon="1.39416">
        <ele>69</ele>
        <time>2026-05-16T11:52:22.800Z</time>
      </trkpt>
      <trkpt lat="49.4602" lon="1.39415">
        <ele>69</ele>
        <time>2026-05-16T11:59:34.800Z</time>
      </trkpt>
      <trkpt lat="49.46017" lon="1.39419">
        <ele>69</ele>
        <time>2026-05-16T11:59:39.800Z</time>
      </trkpt>
      <trkpt lat="49.46014" lon="1.39426">
        <ele>69</ele>
        <time>2026-05-16T11:59:44.800Z</time>
      </trkpt>
      <trkpt lat="49.46009" lon="1.39429">
        <ele>70</ele>
        <time>2026-05-16T11:59:49.800Z</time>
      </trkpt>
      <trkpt lat="49.46006" lon="1.39429">
        <ele>70</ele>
        <time>2026-05-16T11:59:53.800Z</time>
      </trkpt>
      <trkpt lat="49.46001" lon="1.39433">
        <ele>70</ele>
        <time>2026-05-16T11:59:58.055Z</time>
      </trkpt>
      <trkpt lat="49.45996" lon="1.3943">
        <ele>70</ele>
        <time>2026-05-16T12:00:02.222Z</time>
      </trkpt>
      <trkpt lat="49.45993" lon="1.39424">
        <ele>70</ele>
        <time>2026-05-16T12:00:06.236Z</time>
      </trkpt>
      <trkpt lat="49.45991" lon="1.3942">
        <ele>70</ele>
        <time>2026-05-16T12:00:10.257Z</time>
      </trkpt>
      <trkpt lat="49.45989" lon="1.39417">
        <ele>70</ele>
        <time>2026-05-16T12:00:18.800Z</time>
      </trkpt>
      <trkpt lat="49.45989" lon="1.39417">
        <ele>70</ele>
        <time>2026-05-16T12:00:22.800Z</time>
      </trkpt>
      <trkpt lat="49.45988" lon="1.39417">
        <ele>70</ele>
        <time>2026-05-16T12:00:28.581Z</time>
      </trkpt>
      <trkpt lat="49.45985" lon="1.39416">
        <ele>71</ele>
        <time>2026-05-16T12:00:33.137Z</time>
      </trkpt>
      <trkpt lat="49.4598" lon="1.3942">
        <ele>71</ele>
        <time>2026-05-16T12:00:37.615Z</time>
      </trkpt>
      <trkpt lat="49.45976" lon="1.39426">
        <ele>71</ele>
        <time>2026-05-16T12:00:41.618Z</time>
      </trkpt>
      <trkpt lat="49.45973" lon="1.39432">
        <ele>71</ele>
        <time>2026-05-16T12:00:45.676Z</time>
      </trkpt>
      <trkpt lat="49.4597" lon="1.39437">
        <ele>71</ele>
        <time>2026-05-16T12:00:49.800Z</time>
      </trkpt>
      <trkpt lat="49.45967" lon="1.39442">
        <ele>71</ele>
        <time>2026-05-16T12:00:54.075Z</time>
      </trkpt>
      <trkpt lat="49.45964" lon="1.39448">
        <ele>71</ele>
        <time>2026-05-16T12:00:58.176Z</time>
      </trkpt>
      <trkpt lat="49.45961" lon="1.39453">
        <ele>71</ele>
        <time>2026-05-16T12:01:02.275Z</time>
      </trkpt>
      <trkpt lat="49.45958" lon="1.39459">
        <ele>72</ele>
        <time>2026-05-16T12:01:06.341Z</time>
      </trkpt>
      <trkpt lat="49.45955" lon="1.39466">
        <ele>72</ele>
        <time>2026-05-16T12:01:10.458Z</time>
      </trkpt>
      <trkpt lat="49.45954" lon="1.39469">
        <ele>72</ele>
        <time>2026-05-16T12:01:14.513Z</time>
      </trkpt>
      <trkpt lat="49.45951" lon="1.39478">
        <ele>72</ele>
        <time>2026-05-16T12:01:18.800Z</time>
      </trkpt>
      <trkpt lat="49.45948" lon="1.39482">
        <ele>72</ele>
        <time>2026-05-16T12:01:22.800Z</time>
      </trkpt>
      <trkpt lat="49.45947" lon="1.39488">
        <ele>74</ele>
        <time>2026-05-16T12:01:26.800Z</time>
      </trkpt>
      <trkpt lat="49.4595" lon="1.39494">
        <ele>74</ele>
        <time>2026-05-16T12:01:30.896Z</time>
      </trkpt>
      <trkpt lat="49.45955" lon="1.39495">
        <ele>74</ele>
        <time>2026-05-16T12:01:34.935Z</time>
      </trkpt>
      <trkpt lat="49.4596" lon="1.39498">
        <ele>73</ele>
        <time>2026-05-16T12:01:39.359Z</time>
      </trkpt>
      <trkpt lat="49.45966" lon="1.39501">
        <ele>73</ele>
        <time>2026-05-16T12:01:43.800Z</time>
      </trkpt>
      <trkpt lat="49.45968" lon="1.39505">
        <ele>73</ele>
        <time>2026-05-16T12:01:47.954Z</time>
      </trkpt>
      <trkpt lat="49.45973" lon="1.39509">
        <ele>73</ele>
        <time>2026-05-16T12:01:52.476Z</time>
      </trkpt>
      <trkpt lat="49.45977" lon="1.39513">
        <ele>73</ele>
        <time>2026-05-16T12:01:56.497Z</time>
      </trkpt>
      <trkpt lat="49.45981" lon="1.39517">
        <ele>74</ele>
        <time>2026-05-16T12:02:00.501Z</time>
      </trkpt>
      <trkpt lat="49.45985" lon="1.39521">
        <ele>74</ele>
        <time>2026-05-16T12:02:04.557Z</time>
      </trkpt>
      <trkpt lat="49.45989" lon="1.39526">
        <ele>73</ele>
        <time>2026-05-16T12:02:09.139Z</time>
      </trkpt>
      <trkpt lat="49.45993" lon="1.3953">
        <ele>73</ele>
        <time>2026-05-16T12:02:13.178Z</time>
      </trkpt>
      <trkpt lat="49.45997" lon="1.39534">
        <ele>73</ele>
        <time>2026-05-16T12:02:17.233Z</time>
      </trkpt>
      <trkpt lat="49.46002" lon="1.39538">
        <ele>73</ele>
        <time>2026-05-16T12:02:21.255Z</time>
      </trkpt>
      <trkpt lat="49.46006" lon="1.39543">
        <ele>75</ele>
        <time>2026-05-16T12:02:25.275Z</time>
      </trkpt>
      <trkpt lat="49.46008" lon="1.39546">
        <ele>75</ele>
        <time>2026-05-16T12:02:29.779Z</time>
      </trkpt>
      <trkpt lat="49.46012" lon="1.39554">
        <ele>75</ele>
        <time>2026-05-16T12:02:33.800Z</time>
      </trkpt>
      <trkpt lat="49.46014" lon="1.39557">
        <ele>73</ele>
        <time>2026-05-16T12:02:38.076Z</time>
      </trkpt>
      <trkpt lat="49.46021" lon="1.3956">
        <ele>73</ele>
        <time>2026-05-16T12:02:42.553Z</time>
      </trkpt>
      <trkpt lat="49.46026" lon="1.39564">
        <ele>73</ele>
        <time>2026-05-16T12:02:46.995Z</time>
      </trkpt>
      <trkpt lat="49.46029" lon="1.39568">
        <ele>73</ele>
        <time>2026-05-16T12:02:51.517Z</time>
      </trkpt>
      <trkpt lat="49.46034" lon="1.39573">
        <ele>74</ele>
        <time>2026-05-16T12:02:56.022Z</time>
      </trkpt>
      <trkpt lat="49.46036" lon="1.39577">
        <ele>74</ele>
        <time>2026-05-16T12:03:00.475Z</time>
      </trkpt>
      <trkpt lat="49.46042" lon="1.39584">
        <ele>74</ele>
        <time>2026-05-16T12:03:04.514Z</time>
      </trkpt>
      <trkpt lat="49.46044" lon="1.39592">
        <ele>72</ele>
        <time>2026-05-16T12:03:09.079Z</time>
      </trkpt>
      <trkpt lat="49.46043" lon="1.39598">
        <ele>72</ele>
        <time>2026-05-16T12:03:13.654Z</time>
      </trkpt>
      <trkpt lat="49.4604" lon="1.39605">
        <ele>74</ele>
        <time>2026-05-16T12:03:17.754Z</time>
      </trkpt>
      <trkpt lat="49.46038" lon="1.39612">
        <ele>74</ele>
        <time>2026-05-16T12:03:21.800Z</time>
      </trkpt>
      <trkpt lat="49.46036" lon="1.39618">
        <ele>74</ele>
        <time>2026-05-16T12:03:26.173Z</time>
      </trkpt>
      <trkpt lat="49.46031" lon="1.39629">
        <ele>74</ele>
        <time>2026-05-16T12:03:39.800Z</time>
      </trkpt>
      <trkpt lat="49.4603" lon="1.39636">
        <ele>74</ele>
        <time>2026-05-16T12:03:44.119Z</time>
      </trkpt>
      <trkpt lat="49.46028" lon="1.39641">
        <ele>74</ele>
        <time>2026-05-16T12:03:48.158Z</time>
      </trkpt>
      <trkpt lat="49.46025" lon="1.39648">
        <ele>74</ele>
        <time>2026-05-16T12:03:52.257Z</time>
      </trkpt>
      <trkpt lat="49.46022" lon="1.39655">
        <ele>74</ele>
        <time>2026-05-16T12:03:56.357Z</time>
      </trkpt>
      <trkpt lat="49.4602" lon="1.39662">
        <ele>74</ele>
        <time>2026-05-16T12:04:00.396Z</time>
      </trkpt>
      <trkpt lat="49.46017" lon="1.39669">
        <ele>74</ele>
        <time>2026-05-16T12:04:04.635Z</time>
      </trkpt>
      <trkpt lat="49.46015" lon="1.39675">
        <ele>74</ele>
        <time>2026-05-16T12:04:08.814Z</time>
      </trkpt>
      <trkpt lat="49.46012" lon="1.39681">
        <ele>75</ele>
        <time>2026-05-16T12:04:12.943Z</time>
      </trkpt>
      <trkpt lat="49.46009" lon="1.39687">
        <ele>75</ele>
        <time>2026-05-16T12:04:17.716Z</time>
      </trkpt>
      <trkpt lat="49.46005" lon="1.39692">
        <ele>75</ele>
        <time>2026-05-16T12:04:21.800Z</time>
      </trkpt>
      <trkpt lat="49.46002" lon="1.39697">
        <ele>75</ele>
        <time>2026-05-16T12:04:25.995Z</time>
      </trkpt>
      <trkpt lat="49.45999" lon="1.39703">
        <ele>75</ele>
        <time>2026-05-16T12:04:30.077Z</time>
      </trkpt>
      <trkpt lat="49.45997" lon="1.39709">
        <ele>76</ele>
        <time>2026-05-16T12:04:34.318Z</time>
      </trkpt>
      <trkpt lat="49.45995" lon="1.39715">
        <ele>76</ele>
        <time>2026-05-16T12:04:38.355Z</time>
      </trkpt>
      <trkpt lat="49.45992" lon="1.39721">
        <ele>76</ele>
        <time>2026-05-16T12:04:42.534Z</time>
      </trkpt>
      <trkpt lat="49.45989" lon="1.39728">
        <ele>76</ele>
        <time>2026-05-16T12:04:46.800Z</time>
      </trkpt>
      <trkpt lat="49.45986" lon="1.39729">
        <ele>76</ele>
        <time>2026-05-16T12:04:50.800Z</time>
      </trkpt>
      <trkpt lat="49.45986" lon="1.39728">
        <ele>76</ele>
        <time>2026-05-16T12:04:55.800Z</time>
      </trkpt>
      <trkpt lat="49.45986" lon="1.39733">
        <ele>77</ele>
        <time>2026-05-16T12:05:00.075Z</time>
      </trkpt>
      <trkpt lat="49.45984" lon="1.39742">
        <ele>78</ele>
        <time>2026-05-16T12:05:04.175Z</time>
      </trkpt>
      <trkpt lat="49.45981" lon="1.39749">
        <ele>78</ele>
        <time>2026-05-16T12:05:08.398Z</time>
      </trkpt>
      <trkpt lat="49.45978" lon="1.39755">
        <ele>78</ele>
        <time>2026-05-16T12:05:12.718Z</time>
      </trkpt>
      <trkpt lat="49.45975" lon="1.39761">
        <ele>78</ele>
        <time>2026-05-16T12:05:16.956Z</time>
      </trkpt>
      <trkpt lat="49.45971" lon="1.39766">
        <ele>78</ele>
        <time>2026-05-16T12:05:21.012Z</time>
      </trkpt>
      <trkpt lat="49.45968" lon="1.39771">
        <ele>78</ele>
        <time>2026-05-16T12:05:25.200Z</time>
      </trkpt>
      <trkpt lat="49.45964" lon="1.39777">
        <ele>78</ele>
        <time>2026-05-16T12:05:29.800Z</time>
      </trkpt>
      <trkpt lat="49.45963" lon="1.39782">
        <ele>78</ele>
        <time>2026-05-16T12:05:33.800Z</time>
      </trkpt>
      <trkpt lat="49.45962" lon="1.39788">
        <ele>78</ele>
        <time>2026-05-16T12:05:38.456Z</time>
      </trkpt>
      <trkpt lat="49.45961" lon="1.39792">
        <ele>78</ele>
        <time>2026-05-16T12:05:42.495Z</time>
      </trkpt>
      <trkpt lat="49.45964" lon="1.39796">
        <ele>78</ele>
        <time>2026-05-16T12:05:46.576Z</time>
      </trkpt>
      <trkpt lat="49.4597" lon="1.39803">
        <ele>78</ele>
        <time>2026-05-16T12:05:50.659Z</time>
      </trkpt>
      <trkpt lat="49.45974" lon="1.39809">
        <ele>78</ele>
        <time>2026-05-16T12:05:54.714Z</time>
      </trkpt>
      <trkpt lat="49.45978" lon="1.39814">
        <ele>78</ele>
        <time>2026-05-16T12:05:58.797Z</time>
      </trkpt>
      <trkpt lat="49.45981" lon="1.3982">
        <ele>78</ele>
        <time>2026-05-16T12:06:12.396Z</time>
      </trkpt>
      <trkpt lat="49.45987" lon="1.39825">
        <ele>76</ele>
        <time>2026-05-16T12:06:16.417Z</time>
      </trkpt>
      <trkpt lat="49.45992" lon="1.39827">
        <ele>76</ele>
        <time>2026-05-16T12:06:20.472Z</time>
      </trkpt>
      <trkpt lat="49.45996" lon="1.39832">
        <ele>76</ele>
        <time>2026-05-16T12:06:24.477Z</time>
      </trkpt>
      <trkpt lat="49.45999" lon="1.3984">
        <ele>76</ele>
        <time>2026-05-16T12:06:29.077Z</time>
      </trkpt>
      <trkpt lat="49.45998" lon="1.39848">
        <ele>76</ele>
        <time>2026-05-16T12:06:33.254Z</time>
      </trkpt>
      <trkpt lat="49.45994" lon="1.39854">
        <ele>76</ele>
        <time>2026-05-16T12:06:37.539Z</time>
      </trkpt>
      <trkpt lat="49.45992" lon="1.39863">
        <ele>76</ele>
        <time>2026-05-16T12:06:41.735Z</time>
      </trkpt>
      <trkpt lat="49.4599" lon="1.3987">
        <ele>76</ele>
        <time>2026-05-16T12:06:46.020Z</time>
      </trkpt>
      <trkpt lat="49.45988" lon="1.39877">
        <ele>76</ele>
        <time>2026-05-16T12:06:50.259Z</time>
      </trkpt>
      <trkpt lat="49.45986" lon="1.39883">
        <ele>79</ele>
        <time>2026-05-16T12:06:54.456Z</time>
      </trkpt>
      <trkpt lat="49.45983" lon="1.39891">
        <ele>79</ele>
        <time>2026-05-16T12:06:58.634Z</time>
      </trkpt>
      <trkpt lat="49.45981" lon="1.39896">
        <ele>79</ele>
        <time>2026-05-16T12:07:02.800Z</time>
      </trkpt>
      <trkpt lat="49.45979" lon="1.39903">
        <ele>79</ele>
        <time>2026-05-16T12:07:07.054Z</time>
      </trkpt>
      <trkpt lat="49.45976" lon="1.3991">
        <ele>79</ele>
        <time>2026-05-16T12:07:11.179Z</time>
      </trkpt>
      <trkpt lat="49.45974" lon="1.39916">
        <ele>79</ele>
        <time>2026-05-16T12:07:15.235Z</time>
      </trkpt>
      <trkpt lat="49.45972" lon="1.39923">
        <ele>79</ele>
        <time>2026-05-16T12:07:19.353Z</time>
      </trkpt>
      <trkpt lat="49.4597" lon="1.39931">
        <ele>79</ele>
        <time>2026-05-16T12:07:23.401Z</time>
      </trkpt>
      <trkpt lat="49.45967" lon="1.39938">
        <ele>79</ele>
        <time>2026-05-16T12:07:27.500Z</time>
      </trkpt>
      <trkpt lat="49.45965" lon="1.39945">
        <ele>79</ele>
        <time>2026-05-16T12:07:31.599Z</time>
      </trkpt>
      <trkpt lat="49.45962" lon="1.39951">
        <ele>79</ele>
        <time>2026-05-16T12:07:35.699Z</time>
      </trkpt>
      <trkpt lat="49.4596" lon="1.39958">
        <ele>79</ele>
        <time>2026-05-16T12:07:39.800Z</time>
      </trkpt>
      <trkpt lat="49.45958" lon="1.39966">
        <ele>81</ele>
        <time>2026-05-16T12:07:44.539Z</time>
      </trkpt>
      <trkpt lat="49.45956" lon="1.39973">
        <ele>81</ele>
        <time>2026-05-16T12:07:48.613Z</time>
      </trkpt>
      <trkpt lat="49.45953" lon="1.39979">
        <ele>81</ele>
        <time>2026-05-16T12:07:52.660Z</time>
      </trkpt>
      <trkpt lat="49.45952" lon="1.39985">
        <ele>81</ele>
        <time>2026-05-16T12:07:56.698Z</time>
      </trkpt>
      <trkpt lat="49.45949" lon="1.39992">
        <ele>80</ele>
        <time>2026-05-16T12:08:00.798Z</time>
      </trkpt>
      <trkpt lat="49.45947" lon="1.39998">
        <ele>80</ele>
        <time>2026-05-16T12:08:04.934Z</time>
      </trkpt>
      <trkpt lat="49.45944" lon="1.40004">
        <ele>80</ele>
        <time>2026-05-16T12:08:09.059Z</time>
      </trkpt>
      <trkpt lat="49.45942" lon="1.40011">
        <ele>80</ele>
        <time>2026-05-16T12:08:13.193Z</time>
      </trkpt>
      <trkpt lat="49.4594" lon="1.40017">
        <ele>79</ele>
        <time>2026-05-16T12:08:17.242Z</time>
      </trkpt>
      <trkpt lat="49.45939" lon="1.40023">
        <ele>79</ele>
        <time>2026-05-16T12:08:21.357Z</time>
      </trkpt>
      <trkpt lat="49.45936" lon="1.4003">
        <ele>79</ele>
        <time>2026-05-16T12:08:25.457Z</time>
      </trkpt>
      <trkpt lat="49.45934" lon="1.40036">
        <ele>79</ele>
        <time>2026-05-16T12:08:29.618Z</time>
      </trkpt>
      <trkpt lat="49.45932" lon="1.40042">
        <ele>77</ele>
        <time>2026-05-16T12:08:33.718Z</time>
      </trkpt>
      <trkpt lat="49.45931" lon="1.4005">
        <ele>80</ele>
        <time>2026-05-16T12:08:37.774Z</time>
      </trkpt>
      <trkpt lat="49.45929" lon="1.40056">
        <ele>80</ele>
        <time>2026-05-16T12:08:41.812Z</time>
      </trkpt>
      <trkpt lat="49.45926" lon="1.40063">
        <ele>80</ele>
        <time>2026-05-16T12:08:46.438Z</time>
      </trkpt>
      <trkpt lat="49.45923" lon="1.4007">
        <ele>80</ele>
        <time>2026-05-16T12:08:50.933Z</time>
      </trkpt>
      <trkpt lat="49.4592" lon="1.40077">
        <ele>80</ele>
        <time>2026-05-16T12:08:55.419Z</time>
      </trkpt>
      <trkpt lat="49.45917" lon="1.40084">
        <ele>80</ele>
        <time>2026-05-16T12:08:59.942Z</time>
      </trkpt>
      <trkpt lat="49.45915" lon="1.40089">
        <ele>80</ele>
        <time>2026-05-16T12:09:04.455Z</time>
      </trkpt>
      <trkpt lat="49.45913" lon="1.40097">
        <ele>79</ele>
        <time>2026-05-16T12:09:08.800Z</time>
      </trkpt>
      <trkpt lat="49.45909" lon="1.40104">
        <ele>79</ele>
        <time>2026-05-16T12:09:13.354Z</time>
      </trkpt>
      <trkpt lat="49.45906" lon="1.40111">
        <ele>79</ele>
        <time>2026-05-16T12:09:17.920Z</time>
      </trkpt>
      <trkpt lat="49.45904" lon="1.40119">
        <ele>79</ele>
        <time>2026-05-16T12:09:22.478Z</time>
      </trkpt>
      <trkpt lat="49.45902" lon="1.40127">
        <ele>78</ele>
        <time>2026-05-16T12:09:27.014Z</time>
      </trkpt>
      <trkpt lat="49.45901" lon="1.40132">
        <ele>78</ele>
        <time>2026-05-16T12:09:31.053Z</time>
      </trkpt>
      <trkpt lat="49.45899" lon="1.40141">
        <ele>78</ele>
        <time>2026-05-16T12:09:35.601Z</time>
      </trkpt>
      <trkpt lat="49.45896" lon="1.40149">
        <ele>78</ele>
        <time>2026-05-16T12:09:40.201Z</time>
      </trkpt>
      <trkpt lat="49.45893" lon="1.40157">
        <ele>77</ele>
        <time>2026-05-16T12:09:44.800Z</time>
      </trkpt>
      <trkpt lat="49.45891" lon="1.40164">
        <ele>77</ele>
        <time>2026-05-16T12:09:49.313Z</time>
      </trkpt>
      <trkpt lat="49.45889" lon="1.40171">
        <ele>77</ele>
        <time>2026-05-16T12:09:53.800Z</time>
      </trkpt>
      <trkpt lat="49.45886" lon="1.40178">
        <ele>77</ele>
        <time>2026-05-16T12:09:57.800Z</time>
      </trkpt>
      <trkpt lat="49.45884" lon="1.40186">
        <ele>75</ele>
        <time>2026-05-16T12:10:02.315Z</time>
      </trkpt>
      <trkpt lat="49.45882" lon="1.40193">
        <ele>75</ele>
        <time>2026-05-16T12:10:06.800Z</time>
      </trkpt>
      <trkpt lat="49.45879" lon="1.40201">
        <ele>75</ele>
        <time>2026-05-16T12:10:11.479Z</time>
      </trkpt>
      <trkpt lat="49.45877" lon="1.40209">
        <ele>73</ele>
        <time>2026-05-16T12:10:16.035Z</time>
      </trkpt>
      <trkpt lat="49.45875" lon="1.40216">
        <ele>74</ele>
        <time>2026-05-16T12:10:20.074Z</time>
      </trkpt>
      <trkpt lat="49.45872" lon="1.40223">
        <ele>74</ele>
        <time>2026-05-16T12:10:24.674Z</time>
      </trkpt>
      <trkpt lat="49.4587" lon="1.40231">
        <ele>74</ele>
        <time>2026-05-16T12:10:29.238Z</time>
      </trkpt>
      <trkpt lat="49.45868" lon="1.40238">
        <ele>73</ele>
        <time>2026-05-16T12:10:33.277Z</time>
      </trkpt>
      <trkpt lat="49.45866" lon="1.40245">
        <ele>73</ele>
        <time>2026-05-16T12:10:37.359Z</time>
      </trkpt>
      <trkpt lat="49.45864" lon="1.40251">
        <ele>73</ele>
        <time>2026-05-16T12:10:41.397Z</time>
      </trkpt>
      <trkpt lat="49.45862" lon="1.40258">
        <ele>73</ele>
        <time>2026-05-16T12:10:45.436Z</time>
      </trkpt>
      <trkpt lat="49.4586" lon="1.40266">
        <ele>71</ele>
        <time>2026-05-16T12:10:50.036Z</time>
      </trkpt>
      <trkpt lat="49.45857" lon="1.40272">
        <ele>71</ele>
        <time>2026-05-16T12:10:54.135Z</time>
      </trkpt>
      <trkpt lat="49.45855" lon="1.40279">
        <ele>71</ele>
        <time>2026-05-16T12:10:58.674Z</time>
      </trkpt>
      <trkpt lat="49.45853" lon="1.40285">
        <ele>71</ele>
        <time>2026-05-16T12:11:02.755Z</time>
      </trkpt>
      <trkpt lat="49.45851" lon="1.40292">
        <ele>71</ele>
        <time>2026-05-16T12:11:07.800Z</time>
      </trkpt>
      <trkpt lat="49.45849" lon="1.40299">
        <ele>71</ele>
        <time>2026-05-16T12:11:12.412Z</time>
      </trkpt>
      <trkpt lat="49.45847" lon="1.40306">
        <ele>71</ele>
        <time>2026-05-16T12:11:16.800Z</time>
      </trkpt>
      <trkpt lat="49.45844" lon="1.40313">
        <ele>71</ele>
        <time>2026-05-16T12:11:20.800Z</time>
      </trkpt>
      <trkpt lat="49.45841" lon="1.40319">
        <ele>71</ele>
        <time>2026-05-16T12:11:25.335Z</time>
      </trkpt>
      <trkpt lat="49.45839" lon="1.40325">
        <ele>71</ele>
        <time>2026-05-16T12:11:29.417Z</time>
      </trkpt>
      <trkpt lat="49.45836" lon="1.40332">
        <ele>71</ele>
        <time>2026-05-16T12:11:33.800Z</time>
      </trkpt>
      <trkpt lat="49.45834" lon="1.40337">
        <ele>71</ele>
        <time>2026-05-16T12:11:37.800Z</time>
      </trkpt>
      <trkpt lat="49.45831" lon="1.40342">
        <ele>71</ele>
        <time>2026-05-16T12:11:42.235Z</time>
      </trkpt>
      <trkpt lat="49.4583" lon="1.40349">
        <ele>70</ele>
        <time>2026-05-16T12:11:46.693Z</time>
      </trkpt>
      <trkpt lat="49.45826" lon="1.40357">
        <ele>70</ele>
        <time>2026-05-16T12:11:51.232Z</time>
      </trkpt>
      <trkpt lat="49.45823" lon="1.40363">
        <ele>70</ele>
        <time>2026-05-16T12:11:55.254Z</time>
      </trkpt>
      <trkpt lat="49.45819" lon="1.40368">
        <ele>71</ele>
        <time>2026-05-16T12:11:59.275Z</time>
      </trkpt>
      <trkpt lat="49.45816" lon="1.40373">
        <ele>71</ele>
        <time>2026-05-16T12:12:03.374Z</time>
      </trkpt>
      <trkpt lat="49.45813" lon="1.40378">
        <ele>71</ele>
        <time>2026-05-16T12:12:07.439Z</time>
      </trkpt>
      <trkpt lat="49.45809" lon="1.40382">
        <ele>71</ele>
        <time>2026-05-16T12:12:11.574Z</time>
      </trkpt>
      <trkpt lat="49.45807" lon="1.40386">
        <ele>71</ele>
        <time>2026-05-16T12:12:15.657Z</time>
      </trkpt>
      <trkpt lat="49.45803" lon="1.40391">
        <ele>71</ele>
        <time>2026-05-16T12:12:19.800Z</time>
      </trkpt>
      <trkpt lat="49.45797" lon="1.40397">
        <ele>71</ele>
        <time>2026-05-16T12:12:24.355Z</time>
      </trkpt>
      <trkpt lat="49.45793" lon="1.40402">
        <ele>71</ele>
        <time>2026-05-16T12:12:28.939Z</time>
      </trkpt>
      <trkpt lat="49.45788" lon="1.40406">
        <ele>71</ele>
        <time>2026-05-16T12:12:32.995Z</time>
      </trkpt>
      <trkpt lat="49.45784" lon="1.40411">
        <ele>71</ele>
        <time>2026-05-16T12:12:37.077Z</time>
      </trkpt>
      <trkpt lat="49.4578" lon="1.40414">
        <ele>71</ele>
        <time>2026-05-16T12:12:41.115Z</time>
      </trkpt>
      <trkpt lat="49.45776" lon="1.40418">
        <ele>71</ele>
        <time>2026-05-16T12:12:45.197Z</time>
      </trkpt>
      <trkpt lat="49.45771" lon="1.40422">
        <ele>71</ele>
        <time>2026-05-16T12:12:49.235Z</time>
      </trkpt>
      <trkpt lat="49.45767" lon="1.40426">
        <ele>71</ele>
        <time>2026-05-16T12:12:53.336Z</time>
      </trkpt>
      <trkpt lat="49.45763" lon="1.4043">
        <ele>71</ele>
        <time>2026-05-16T12:12:57.435Z</time>
      </trkpt>
      <trkpt lat="49.4576" lon="1.40434">
        <ele>71</ele>
        <time>2026-05-16T12:13:01.473Z</time>
      </trkpt>
      <trkpt lat="49.45754" lon="1.40438">
        <ele>71</ele>
        <time>2026-05-16T12:13:05.495Z</time>
      </trkpt>
      <trkpt lat="49.45752" lon="1.40441">
        <ele>71</ele>
        <time>2026-05-16T12:13:09.533Z</time>
      </trkpt>
      <trkpt lat="49.45747" lon="1.40447">
        <ele>71</ele>
        <time>2026-05-16T12:13:13.579Z</time>
      </trkpt>
      <trkpt lat="49.45742" lon="1.4045">
        <ele>71</ele>
        <time>2026-05-16T12:13:17.635Z</time>
      </trkpt>
      <trkpt lat="49.45738" lon="1.40453">
        <ele>71</ele>
        <time>2026-05-16T12:13:21.752Z</time>
      </trkpt>
      <trkpt lat="49.45733" lon="1.40453">
        <ele>72</ele>
        <time>2026-05-16T12:13:25.800Z</time>
      </trkpt>
      <trkpt lat="49.45729" lon="1.40448">
        <ele>72</ele>
        <time>2026-05-16T12:13:30.233Z</time>
      </trkpt>
      <trkpt lat="49.45726" lon="1.40444">
        <ele>72</ele>
        <time>2026-05-16T12:13:34.800Z</time>
      </trkpt>
      <trkpt lat="49.45727" lon="1.40436">
        <ele>72</ele>
        <time>2026-05-16T12:15:56.800Z</time>
      </trkpt>
      <trkpt lat="49.45727" lon="1.40436">
        <ele>72</ele>
        <time>2026-05-16T12:16:01.800Z</time>
      </trkpt>
      <trkpt lat="49.45727" lon="1.40435">
        <ele>72</ele>
        <time>2026-05-16T12:16:06.800Z</time>
      </trkpt>
      <trkpt lat="49.45728" lon="1.40428">
        <ele>73</ele>
        <time>2026-05-16T12:16:11.800Z</time>
      </trkpt>
      <trkpt lat="49.45727" lon="1.40422">
        <ele>73</ele>
        <time>2026-05-16T12:16:15.800Z</time>
      </trkpt>
      <trkpt lat="49.45728" lon="1.40415">
        <ele>73</ele>
        <time>2026-05-16T12:16:20.318Z</time>
      </trkpt>
      <trkpt lat="49.45726" lon="1.40408">
        <ele>73</ele>
        <time>2026-05-16T12:16:24.497Z</time>
      </trkpt>
      <trkpt lat="49.45726" lon="1.40401">
        <ele>74</ele>
        <time>2026-05-16T12:16:28.800Z</time>
      </trkpt>
      <trkpt lat="49.45726" lon="1.40393">
        <ele>74</ele>
        <time>2026-05-16T12:16:33.135Z</time>
      </trkpt>
      <trkpt lat="49.45727" lon="1.40386">
        <ele>74</ele>
        <time>2026-05-16T12:16:37.296Z</time>
      </trkpt>
      <trkpt lat="49.45727" lon="1.40378">
        <ele>74</ele>
        <time>2026-05-16T12:16:41.580Z</time>
      </trkpt>
      <trkpt lat="49.45727" lon="1.40371">
        <ele>76</ele>
        <time>2026-05-16T12:16:45.793Z</time>
      </trkpt>
      <trkpt lat="49.45727" lon="1.40363">
        <ele>76</ele>
        <time>2026-05-16T12:16:50.036Z</time>
      </trkpt>
      <trkpt lat="49.45727" lon="1.40356">
        <ele>76</ele>
        <time>2026-05-16T12:16:54.273Z</time>
      </trkpt>
      <trkpt lat="49.45727" lon="1.40349">
        <ele>76</ele>
        <time>2026-05-16T12:16:58.514Z</time>
      </trkpt>
      <trkpt lat="49.45727" lon="1.40343">
        <ele>78</ele>
        <time>2026-05-16T12:17:02.800Z</time>
      </trkpt>
      <trkpt lat="49.45727" lon="1.40335">
        <ele>78</ele>
        <time>2026-05-16T12:17:07.275Z</time>
      </trkpt>
      <trkpt lat="49.45727" lon="1.40328">
        <ele>78</ele>
        <time>2026-05-16T12:17:11.655Z</time>
      </trkpt>
      <trkpt lat="49.45728" lon="1.40321">
        <ele>78</ele>
        <time>2026-05-16T12:17:16.079Z</time>
      </trkpt>
      <trkpt lat="49.45728" lon="1.40313">
        <ele>79</ele>
        <time>2026-05-16T12:17:20.557Z</time>
      </trkpt>
      <trkpt lat="49.45728" lon="1.40306">
        <ele>79</ele>
        <time>2026-05-16T12:17:25.016Z</time>
      </trkpt>
      <trkpt lat="49.45728" lon="1.40299">
        <ele>79</ele>
        <time>2026-05-16T12:17:29.540Z</time>
      </trkpt>
      <trkpt lat="49.45727" lon="1.40292">
        <ele>81</ele>
        <time>2026-05-16T12:17:34.154Z</time>
      </trkpt>
      <trkpt lat="49.45728" lon="1.40284">
        <ele>81</ele>
        <time>2026-05-16T12:17:38.692Z</time>
      </trkpt>
      <trkpt lat="49.4573" lon="1.4028">
        <ele>81</ele>
        <time>2026-05-16T12:17:42.800Z</time>
      </trkpt>
      <trkpt lat="49.45731" lon="1.40271">
        <ele>81</ele>
        <time>2026-05-16T12:17:56.196Z</time>
      </trkpt>
      <trkpt lat="49.4573" lon="1.40263">
        <ele>83</ele>
        <time>2026-05-16T12:18:00.656Z</time>
      </trkpt>
      <trkpt lat="49.45726" lon="1.40256">
        <ele>83</ele>
        <time>2026-05-16T12:18:05.135Z</time>
      </trkpt>
      <trkpt lat="49.45724" lon="1.40249">
        <ele>83</ele>
        <time>2026-05-16T12:18:09.636Z</time>
      </trkpt>
      <trkpt lat="49.45721" lon="1.40243">
        <ele>83</ele>
        <time>2026-05-16T12:18:14.218Z</time>
      </trkpt>
      <trkpt lat="49.4572" lon="1.40237">
        <ele>83</ele>
        <time>2026-05-16T12:18:18.221Z</time>
      </trkpt>
      <trkpt lat="49.45718" lon="1.40231">
        <ele>84</ele>
        <time>2026-05-16T12:18:22.795Z</time>
      </trkpt>
      <trkpt lat="49.45717" lon="1.40224">
        <ele>84</ele>
        <time>2026-05-16T12:18:27.378Z</time>
      </trkpt>
      <trkpt lat="49.45716" lon="1.40217">
        <ele>84</ele>
        <time>2026-05-16T12:18:31.800Z</time>
      </trkpt>
      <trkpt lat="49.45715" lon="1.40211">
        <ele>84</ele>
        <time>2026-05-16T12:18:36.016Z</time>
      </trkpt>
      <trkpt lat="49.45714" lon="1.40205">
        <ele>85</ele>
        <time>2026-05-16T12:18:40.658Z</time>
      </trkpt>
      <trkpt lat="49.45713" lon="1.40197">
        <ele>85</ele>
        <time>2026-05-16T12:18:45.118Z</time>
      </trkpt>
      <trkpt lat="49.45713" lon="1.40191">
        <ele>85</ele>
        <time>2026-05-16T12:18:49.800Z</time>
      </trkpt>
      <trkpt lat="49.45712" lon="1.40186">
        <ele>85</ele>
        <time>2026-05-16T12:18:54.414Z</time>
      </trkpt>
      <trkpt lat="49.45711" lon="1.40181">
        <ele>85</ele>
        <time>2026-05-16T12:18:58.496Z</time>
      </trkpt>
      <trkpt lat="49.4571" lon="1.40175">
        <ele>87</ele>
        <time>2026-05-16T12:19:02.800Z</time>
      </trkpt>
      <trkpt lat="49.45709" lon="1.40168">
        <ele>87</ele>
        <time>2026-05-16T12:19:07.459Z</time>
      </trkpt>
      <trkpt lat="49.45709" lon="1.40161">
        <ele>87</ele>
        <time>2026-05-16T12:19:11.593Z</time>
      </trkpt>
      <trkpt lat="49.45707" lon="1.40154">
        <ele>90</ele>
        <time>2026-05-16T12:19:15.800Z</time>
      </trkpt>
      <trkpt lat="49.45707" lon="1.40147">
        <ele>92</ele>
        <time>2026-05-16T12:19:20.319Z</time>
      </trkpt>
      <trkpt lat="49.45706" lon="1.4014">
        <ele>92</ele>
        <time>2026-05-16T12:19:24.800Z</time>
      </trkpt>
      <trkpt lat="49.45705" lon="1.40133">
        <ele>92</ele>
        <time>2026-05-16T12:19:29.193Z</time>
      </trkpt>
      <trkpt lat="49.45704" lon="1.40126">
        <ele>92</ele>
        <time>2026-05-16T12:19:33.495Z</time>
      </trkpt>
      <trkpt lat="49.45704" lon="1.40119">
        <ele>94</ele>
        <time>2026-05-16T12:19:37.735Z</time>
      </trkpt>
      <trkpt lat="49.45703" lon="1.40112">
        <ele>94</ele>
        <time>2026-05-16T12:19:41.800Z</time>
      </trkpt>
      <trkpt lat="49.45696" lon="1.40104">
        <ele>94</ele>
        <time>2026-05-16T12:20:08.800Z</time>
      </trkpt>
      <trkpt lat="49.45698" lon="1.40099">
        <ele>94</ele>
        <time>2026-05-16T12:20:13.120Z</time>
      </trkpt>
      <trkpt lat="49.45697" lon="1.40089">
        <ele>96</ele>
        <time>2026-05-16T12:20:17.360Z</time>
      </trkpt>
      <trkpt lat="49.45696" lon="1.40081">
        <ele>96</ele>
        <time>2026-05-16T12:20:21.600Z</time>
      </trkpt>
      <trkpt lat="49.45694" lon="1.40074">
        <ele>96</ele>
        <time>2026-05-16T12:20:25.778Z</time>
      </trkpt>
      <trkpt lat="49.45691" lon="1.40074">
        <ele>96</ele>
        <time>2026-05-16T12:20:54.273Z</time>
      </trkpt>
      <trkpt lat="49.45688" lon="1.4007">
        <ele>96</ele>
        <time>2026-05-16T12:20:58.556Z</time>
      </trkpt>
      <trkpt lat="49.45684" lon="1.40065">
        <ele>97</ele>
        <time>2026-05-16T12:21:02.700Z</time>
      </trkpt>
      <trkpt lat="49.45682" lon="1.40061">
        <ele>97</ele>
        <time>2026-05-16T12:21:06.800Z</time>
      </trkpt>
      <trkpt lat="49.45677" lon="1.40056">
        <ele>105</ele>
        <time>2026-05-16T12:21:11.715Z</time>
      </trkpt>
      <trkpt lat="49.45674" lon="1.40057">
        <ele>105</ele>
        <time>2026-05-16T12:21:15.800Z</time>
      </trkpt>
      <trkpt lat="49.45671" lon="1.40059">
        <ele>105</ele>
        <time>2026-05-16T12:21:20.082Z</time>
      </trkpt>
      <trkpt lat="49.45669" lon="1.40063">
        <ele>105</ele>
        <time>2026-05-16T12:21:24.093Z</time>
      </trkpt>
      <trkpt lat="49.45665" lon="1.40066">
        <ele>105</ele>
        <time>2026-05-16T12:21:28.235Z</time>
      </trkpt>
      <trkpt lat="49.45662" lon="1.40068">
        <ele>105</ele>
        <time>2026-05-16T12:21:32.442Z</time>
      </trkpt>
      <trkpt lat="49.45659" lon="1.40068">
        <ele>105</ele>
        <time>2026-05-16T12:21:36.478Z</time>
      </trkpt>
      <trkpt lat="49.45656" lon="1.40067">
        <ele>105</ele>
        <time>2026-05-16T12:21:40.674Z</time>
      </trkpt>
      <trkpt lat="49.45653" lon="1.40065">
        <ele>105</ele>
        <time>2026-05-16T12:21:45.178Z</time>
      </trkpt>
      <trkpt lat="49.45651" lon="1.40062">
        <ele>113</ele>
        <time>2026-05-16T12:21:49.400Z</time>
      </trkpt>
      <trkpt lat="49.45647" lon="1.40058">
        <ele>113</ele>
        <time>2026-05-16T12:21:53.517Z</time>
      </trkpt>
      <trkpt lat="49.45644" lon="1.40054">
        <ele>113</ele>
        <time>2026-05-16T12:21:57.713Z</time>
      </trkpt>
      <trkpt lat="49.45642" lon="1.40051">
        <ele>113</ele>
        <time>2026-05-16T12:22:01.800Z</time>
      </trkpt>
      <trkpt lat="49.4564" lon="1.40047">
        <ele>113</ele>
        <time>2026-05-16T12:22:05.800Z</time>
      </trkpt>
      <trkpt lat="49.45638" lon="1.40043">
        <ele>113</ele>
        <time>2026-05-16T12:22:10.198Z</time>
      </trkpt>
      <trkpt lat="49.45635" lon="1.40045">
        <ele>113</ele>
        <time>2026-05-16T12:22:14.514Z</time>
      </trkpt>
      <trkpt lat="49.45633" lon="1.40049">
        <ele>113</ele>
        <time>2026-05-16T12:22:18.800Z</time>
      </trkpt>
      <trkpt lat="49.4563" lon="1.40053">
        <ele>113</ele>
        <time>2026-05-16T12:22:23.196Z</time>
      </trkpt>
      <trkpt lat="49.45628" lon="1.40058">
        <ele>113</ele>
        <time>2026-05-16T12:22:32.738Z</time>
      </trkpt>
      <trkpt lat="49.45627" lon="1.40062">
        <ele>113</ele>
        <time>2026-05-16T12:22:36.800Z</time>
      </trkpt>
      <trkpt lat="49.45626" lon="1.40064">
        <ele>113</ele>
        <time>2026-05-16T12:22:41.800Z</time>
      </trkpt>
      <trkpt lat="49.45625" lon="1.40067">
        <ele>113</ele>
        <time>2026-05-16T12:22:46.583Z</time>
      </trkpt>
      <trkpt lat="49.45622" lon="1.40073">
        <ele>118</ele>
        <time>2026-05-16T12:22:51.216Z</time>
      </trkpt>
      <trkpt lat="49.45615" lon="1.40078">
        <ele>118</ele>
        <time>2026-05-16T12:24:04.558Z</time>
      </trkpt>
      <trkpt lat="49.45613" lon="1.40079">
        <ele>118</ele>
        <time>2026-05-16T12:24:08.800Z</time>
      </trkpt>
      <trkpt lat="49.4561" lon="1.40082">
        <ele>118</ele>
        <time>2026-05-16T12:24:13.800Z</time>
      </trkpt>
      <trkpt lat="49.45605" lon="1.40087">
        <ele>118</ele>
        <time>2026-05-16T12:24:18.718Z</time>
      </trkpt>
      <trkpt lat="49.45602" lon="1.40092">
        <ele>118</ele>
        <time>2026-05-16T12:24:22.757Z</time>
      </trkpt>
      <trkpt lat="49.45598" lon="1.40091">
        <ele>118</ele>
        <time>2026-05-16T12:24:26.800Z</time>
      </trkpt>
      <trkpt lat="49.45595" lon="1.40091">
        <ele>121</ele>
        <time>2026-05-16T12:24:30.800Z</time>
      </trkpt>
      <trkpt lat="49.45592" lon="1.40091">
        <ele>121</ele>
        <time>2026-05-16T12:24:35.099Z</time>
      </trkpt>
      <trkpt lat="49.45589" lon="1.40095">
        <ele>121</ele>
        <time>2026-05-16T12:24:39.435Z</time>
      </trkpt>
      <trkpt lat="49.45585" lon="1.40097">
        <ele>119</ele>
        <time>2026-05-16T12:24:43.800Z</time>
      </trkpt>
      <trkpt lat="49.4558" lon="1.40101">
        <ele>119</ele>
        <time>2026-05-16T12:24:48.383Z</time>
      </trkpt>
      <trkpt lat="49.45575" lon="1.40103">
        <ele>119</ele>
        <time>2026-05-16T12:24:52.655Z</time>
      </trkpt>
      <trkpt lat="49.45572" lon="1.40105">
        <ele>119</ele>
        <time>2026-05-16T12:24:56.800Z</time>
      </trkpt>
      <trkpt lat="49.45569" lon="1.40104">
        <ele>122</ele>
        <time>2026-05-16T12:25:01.197Z</time>
      </trkpt>
      <trkpt lat="49.45565" lon="1.40102">
        <ele>122</ele>
        <time>2026-05-16T12:25:05.297Z</time>
      </trkpt>
      <trkpt lat="49.45562" lon="1.40102">
        <ele>122</ele>
        <time>2026-05-16T12:25:09.520Z</time>
      </trkpt>
      <trkpt lat="49.45559" lon="1.40103">
        <ele>122</ele>
        <time>2026-05-16T12:25:13.575Z</time>
      </trkpt>
      <trkpt lat="49.45556" lon="1.40106">
        <ele>122</ele>
        <time>2026-05-16T12:25:17.800Z</time>
      </trkpt>
      <trkpt lat="49.45553" lon="1.4011">
        <ele>122</ele>
        <time>2026-05-16T12:25:21.800Z</time>
      </trkpt>
      <trkpt lat="49.45549" lon="1.40114">
        <ele>122</ele>
        <time>2026-05-16T12:25:26.399Z</time>
      </trkpt>
      <trkpt lat="49.45546" lon="1.40116">
        <ele>122</ele>
        <time>2026-05-16T12:25:30.420Z</time>
      </trkpt>
      <trkpt lat="49.45545" lon="1.40118">
        <ele>122</ele>
        <time>2026-05-16T12:25:34.554Z</time>
      </trkpt>
      <trkpt lat="49.45542" lon="1.40119">
        <ele>125</ele>
        <time>2026-05-16T12:25:38.715Z</time>
      </trkpt>
      <trkpt lat="49.45536" lon="1.40121">
        <ele>125</ele>
        <time>2026-05-16T12:25:43.315Z</time>
      </trkpt>
      <trkpt lat="49.45531" lon="1.40121">
        <ele>125</ele>
        <time>2026-05-16T12:25:47.573Z</time>
      </trkpt>
      <trkpt lat="49.45527" lon="1.40122">
        <ele>125</ele>
        <time>2026-05-16T12:25:52.119Z</time>
      </trkpt>
      <trkpt lat="49.45525" lon="1.40126">
        <ele>124</ele>
        <time>2026-05-16T12:25:56.675Z</time>
      </trkpt>
      <trkpt lat="49.45522" lon="1.4013">
        <ele>124</ele>
        <time>2026-05-16T12:26:01.100Z</time>
      </trkpt>
      <trkpt lat="49.45521" lon="1.40133">
        <ele>124</ele>
        <time>2026-05-16T12:26:05.367Z</time>
      </trkpt>
      <trkpt lat="49.45521" lon="1.40138">
        <ele>124</ele>
        <time>2026-05-16T12:26:09.800Z</time>
      </trkpt>
      <trkpt lat="49.45518" lon="1.40141">
        <ele>124</ele>
        <time>2026-05-16T12:26:14.373Z</time>
      </trkpt>
      <trkpt lat="49.45514" lon="1.40146">
        <ele>124</ele>
        <time>2026-05-16T12:26:18.800Z</time>
      </trkpt>
      <trkpt lat="49.45512" lon="1.40152">
        <ele>125</ele>
        <time>2026-05-16T12:26:23.194Z</time>
      </trkpt>
      <trkpt lat="49.45507" lon="1.40155">
        <ele>125</ele>
        <time>2026-05-16T12:26:27.619Z</time>
      </trkpt>
      <trkpt lat="49.45503" lon="1.40159">
        <ele>125</ele>
        <time>2026-05-16T12:26:32.062Z</time>
      </trkpt>
      <trkpt lat="49.45498" lon="1.40162">
        <ele>125</ele>
        <time>2026-05-16T12:26:36.634Z</time>
      </trkpt>
      <trkpt lat="49.45495" lon="1.40166">
        <ele>125</ele>
        <time>2026-05-16T12:26:40.813Z</time>
      </trkpt>
      <trkpt lat="49.4549" lon="1.40171">
        <ele>125</ele>
        <time>2026-05-16T12:26:45.500Z</time>
      </trkpt>
      <trkpt lat="49.45487" lon="1.40175">
        <ele>125</ele>
        <time>2026-05-16T12:26:49.662Z</time>
      </trkpt>
      <trkpt lat="49.45484" lon="1.4018">
        <ele>124</ele>
        <time>2026-05-16T12:26:53.734Z</time>
      </trkpt>
      <trkpt lat="49.4548" lon="1.40184">
        <ele>124</ele>
        <time>2026-05-16T12:26:58.395Z</time>
      </trkpt>
      <trkpt lat="49.45477" lon="1.40188">
        <ele>124</ele>
        <time>2026-05-16T12:27:02.617Z</time>
      </trkpt>
      <trkpt lat="49.4547" lon="1.40193">
        <ele>124</ele>
        <time>2026-05-16T12:27:11.176Z</time>
      </trkpt>
      <trkpt lat="49.45468" lon="1.40196">
        <ele>124</ele>
        <time>2026-05-16T12:27:15.258Z</time>
      </trkpt>
      <trkpt lat="49.45467" lon="1.40196">
        <ele>124</ele>
        <time>2026-05-16T12:27:19.800Z</time>
      </trkpt>
      <trkpt lat="49.45466" lon="1.40198">
        <ele>124</ele>
        <time>2026-05-16T12:27:23.800Z</time>
      </trkpt>
      <trkpt lat="49.45464" lon="1.40204">
        <ele>124</ele>
        <time>2026-05-16T12:27:28.517Z</time>
      </trkpt>
      <trkpt lat="49.45462" lon="1.40211">
        <ele>122</ele>
        <time>2026-05-16T12:27:33.055Z</time>
      </trkpt>
      <trkpt lat="49.4546" lon="1.40217">
        <ele>122</ele>
        <time>2026-05-16T12:27:37.479Z</time>
      </trkpt>
      <trkpt lat="49.4546" lon="1.40223">
        <ele>122</ele>
        <time>2026-05-16T12:27:41.798Z</time>
      </trkpt>
      <trkpt lat="49.45461" lon="1.40227">
        <ele>122</ele>
        <time>2026-05-16T12:27:46.319Z</time>
      </trkpt>
      <trkpt lat="49.4546" lon="1.40233">
        <ele>122</ele>
        <time>2026-05-16T12:27:50.716Z</time>
      </trkpt>
      <trkpt lat="49.45461" lon="1.40239">
        <ele>121</ele>
        <time>2026-05-16T12:27:54.800Z</time>
      </trkpt>
      <trkpt lat="49.45463" lon="1.40245">
        <ele>121</ele>
        <time>2026-05-16T12:27:59.099Z</time>
      </trkpt>
      <trkpt lat="49.45465" lon="1.40252">
        <ele>121</ele>
        <time>2026-05-16T12:28:03.623Z</time>
      </trkpt>
      <trkpt lat="49.45461" lon="1.40257">
        <ele>121</ele>
        <time>2026-05-16T12:30:47.800Z</time>
      </trkpt>
      <trkpt lat="49.45461" lon="1.40258">
        <ele>121</ele>
        <time>2026-05-16T12:30:52.800Z</time>
      </trkpt>
      <trkpt lat="49.45461" lon="1.40265">
        <ele>120</ele>
        <time>2026-05-16T12:30:56.800Z</time>
      </trkpt>
      <trkpt lat="49.45459" lon="1.40273">
        <ele>120</ele>
        <time>2026-05-16T12:31:01.800Z</time>
      </trkpt>
      <trkpt lat="49.45456" lon="1.40279">
        <ele>121</ele>
        <time>2026-05-16T12:31:06.414Z</time>
      </trkpt>
      <trkpt lat="49.45454" lon="1.40286">
        <ele>121</ele>
        <time>2026-05-16T12:31:10.800Z</time>
      </trkpt>
      <trkpt lat="49.45451" lon="1.40292">
        <ele>122</ele>
        <time>2026-05-16T12:31:15.156Z</time>
      </trkpt>
      <trkpt lat="49.45449" lon="1.40294">
        <ele>122</ele>
        <time>2026-05-16T12:31:19.616Z</time>
      </trkpt>
      <trkpt lat="49.45444" lon="1.403">
        <ele>122</ele>
        <time>2026-05-16T12:31:24.260Z</time>
      </trkpt>
      <trkpt lat="49.45439" lon="1.40304">
        <ele>122</ele>
        <time>2026-05-16T12:31:28.674Z</time>
      </trkpt>
      <trkpt lat="49.45436" lon="1.40308">
        <ele>122</ele>
        <time>2026-05-16T12:31:33.555Z</time>
      </trkpt>
      <trkpt lat="49.45434" lon="1.40312">
        <ele>122</ele>
        <time>2026-05-16T12:31:37.800Z</time>
      </trkpt>
      <trkpt lat="49.45431" lon="1.40317">
        <ele>122</ele>
        <time>2026-05-16T12:31:42.456Z</time>
      </trkpt>
      <trkpt lat="49.45432" lon="1.40323">
        <ele>124</ele>
        <time>2026-05-16T12:31:46.800Z</time>
      </trkpt>
      <trkpt lat="49.45435" lon="1.4033">
        <ele>124</ele>
        <time>2026-05-16T12:31:51.198Z</time>
      </trkpt>
      <trkpt lat="49.45437" lon="1.40337">
        <ele>124</ele>
        <time>2026-05-16T12:31:55.298Z</time>
      </trkpt>
      <trkpt lat="49.45439" lon="1.40345">
        <ele>124</ele>
        <time>2026-05-16T12:31:59.713Z</time>
      </trkpt>
      <trkpt lat="49.4544" lon="1.40351">
        <ele>127</ele>
        <time>2026-05-16T12:32:03.996Z</time>
      </trkpt>
      <trkpt lat="49.45441" lon="1.40357">
        <ele>127</ele>
        <time>2026-05-16T12:32:08.297Z</time>
      </trkpt>
      <trkpt lat="49.45442" lon="1.40361">
        <ele>127</ele>
        <time>2026-05-16T12:32:12.415Z</time>
      </trkpt>
      <trkpt lat="49.45443" lon="1.40369">
        <ele>127</ele>
        <time>2026-05-16T12:32:16.800Z</time>
      </trkpt>
      <trkpt lat="49.45445" lon="1.40376">
        <ele>127</ele>
        <time>2026-05-16T12:32:20.974Z</time>
      </trkpt>
      <trkpt lat="49.45447" lon="1.40383">
        <ele>127</ele>
        <time>2026-05-16T12:32:25.099Z</time>
      </trkpt>
      <trkpt lat="49.45449" lon="1.4039">
        <ele>127</ele>
        <time>2026-05-16T12:32:29.217Z</time>
      </trkpt>
      <trkpt lat="49.45449" lon="1.40395">
        <ele>127</ele>
        <time>2026-05-16T12:32:33.800Z</time>
      </trkpt>
      <trkpt lat="49.45449" lon="1.40401">
        <ele>127</ele>
        <time>2026-05-16T12:32:38.163Z</time>
      </trkpt>
      <trkpt lat="49.45452" lon="1.40407">
        <ele>126</ele>
        <time>2026-05-16T12:32:42.202Z</time>
      </trkpt>
      <trkpt lat="49.45455" lon="1.40412">
        <ele>126</ele>
        <time>2026-05-16T12:32:46.380Z</time>
      </trkpt>
      <trkpt lat="49.45457" lon="1.40417">
        <ele>126</ele>
        <time>2026-05-16T12:32:50.800Z</time>
      </trkpt>
      <trkpt lat="49.4546" lon="1.40422">
        <ele>124</ele>
        <time>2026-05-16T12:32:54.979Z</time>
      </trkpt>
      <trkpt lat="49.45462" lon="1.40428">
        <ele>124</ele>
        <time>2026-05-16T12:32:59.223Z</time>
      </trkpt>
      <trkpt lat="49.45465" lon="1.40433">
        <ele>123</ele>
        <time>2026-05-16T12:33:03.300Z</time>
      </trkpt>
      <trkpt lat="49.45467" lon="1.40439">
        <ele>123</ele>
        <time>2026-05-16T12:33:07.478Z</time>
      </trkpt>
      <trkpt lat="49.45469" lon="1.40445">
        <ele>123</ele>
        <time>2026-05-16T12:33:11.800Z</time>
      </trkpt>
      <trkpt lat="49.4547" lon="1.40451">
        <ele>123</ele>
        <time>2026-05-16T12:33:16.414Z</time>
      </trkpt>
      <trkpt lat="49.45472" lon="1.40458">
        <ele>123</ele>
        <time>2026-05-16T12:33:20.800Z</time>
      </trkpt>
      <trkpt lat="49.45474" lon="1.40464">
        <ele>120</ele>
        <time>2026-05-16T12:33:25.096Z</time>
      </trkpt>
      <trkpt lat="49.45476" lon="1.4047">
        <ele>120</ele>
        <time>2026-05-16T12:33:29.256Z</time>
      </trkpt>
      <trkpt lat="49.45477" lon="1.40478">
        <ele>120</ele>
        <time>2026-05-16T12:33:33.733Z</time>
      </trkpt>
      <trkpt lat="49.45477" lon="1.40484">
        <ele>120</ele>
        <time>2026-05-16T12:33:37.796Z</time>
      </trkpt>
      <trkpt lat="49.45479" lon="1.4049">
        <ele>120</ele>
        <time>2026-05-16T12:33:41.800Z</time>
      </trkpt>
      <trkpt lat="49.45476" lon="1.40496">
        <ele>120</ele>
        <time>2026-05-16T12:33:49.800Z</time>
      </trkpt>
      <trkpt lat="49.45476" lon="1.40497">
        <ele>120</ele>
        <time>2026-05-16T12:33:54.195Z</time>
      </trkpt>
      <trkpt lat="49.45473" lon="1.40498">
        <ele>120</ele>
        <time>2026-05-16T12:33:58.800Z</time>
      </trkpt>
      <trkpt lat="49.4547" lon="1.405">
        <ele>120</ele>
        <time>2026-05-16T12:34:03.376Z</time>
      </trkpt>
      <trkpt lat="49.45466" lon="1.40501">
        <ele>120</ele>
        <time>2026-05-16T12:34:07.755Z</time>
      </trkpt>
      <trkpt lat="49.4546" lon="1.40503">
        <ele>120</ele>
        <time>2026-05-16T12:34:48.800Z</time>
      </trkpt>
      <trkpt lat="49.4546" lon="1.40503">
        <ele>120</ele>
        <time>2026-05-16T12:34:53.800Z</time>
      </trkpt>
      <trkpt lat="49.4546" lon="1.40503">
        <ele>120</ele>
        <time>2026-05-16T12:34:58.359Z</time>
      </trkpt>
      <trkpt lat="49.45459" lon="1.40502">
        <ele>120</ele>
        <time>2026-05-16T12:35:02.793Z</time>
      </trkpt>
      <trkpt lat="49.45454" lon="1.40505">
        <ele>118</ele>
        <time>2026-05-16T12:35:07.734Z</time>
      </trkpt>
      <trkpt lat="49.45451" lon="1.40508">
        <ele>118</ele>
        <time>2026-05-16T12:35:11.755Z</time>
      </trkpt>
      <trkpt lat="49.45448" lon="1.40509">
        <ele>118</ele>
        <time>2026-05-16T12:35:16.635Z</time>
      </trkpt>
      <trkpt lat="49.45445" lon="1.4051">
        <ele>118</ele>
        <time>2026-05-16T12:35:21.173Z</time>
      </trkpt>
      <trkpt lat="49.45442" lon="1.40512">
        <ele>118</ele>
        <time>2026-05-16T12:35:25.614Z</time>
      </trkpt>
      <trkpt lat="49.4544" lon="1.40514">
        <ele>118</ele>
        <time>2026-05-16T12:35:30.495Z</time>
      </trkpt>
      <trkpt lat="49.45438" lon="1.40515">
        <ele>118</ele>
        <time>2026-05-16T12:35:34.800Z</time>
      </trkpt>
      <trkpt lat="49.45436" lon="1.40517">
        <ele>118</ele>
        <time>2026-05-16T12:35:39.615Z</time>
      </trkpt>
      <trkpt lat="49.45432" lon="1.40518">
        <ele>118</ele>
        <time>2026-05-16T12:35:43.635Z</time>
      </trkpt>
      <trkpt lat="49.45428" lon="1.40519">
        <ele>122</ele>
        <time>2026-05-16T12:35:48.220Z</time>
      </trkpt>
      <trkpt lat="49.45425" lon="1.40521">
        <ele>122</ele>
        <time>2026-05-16T12:35:52.413Z</time>
      </trkpt>
      <trkpt lat="49.45422" lon="1.40522">
        <ele>122</ele>
        <time>2026-05-16T12:35:56.800Z</time>
      </trkpt>
      <trkpt lat="49.45419" lon="1.40523">
        <ele>122</ele>
        <time>2026-05-16T12:36:01.076Z</time>
      </trkpt>
      <trkpt lat="49.45415" lon="1.40524">
        <ele>122</ele>
        <time>2026-05-16T12:36:05.800Z</time>
      </trkpt>
      <trkpt lat="49.45413" lon="1.40525">
        <ele>122</ele>
        <time>2026-05-16T12:36:09.800Z</time>
      </trkpt>
      <trkpt lat="49.45409" lon="1.40526">
        <ele>122</ele>
        <time>2026-05-16T12:36:14.454Z</time>
      </trkpt>
      <trkpt lat="49.45406" lon="1.40528">
        <ele>122</ele>
        <time>2026-05-16T12:36:18.800Z</time>
      </trkpt>
      <trkpt lat="49.45402" lon="1.40528">
        <ele>128</ele>
        <time>2026-05-16T12:36:23.496Z</time>
      </trkpt>
      <trkpt lat="49.45399" lon="1.4053">
        <ele>128</ele>
        <time>2026-05-16T12:36:28.211Z</time>
      </trkpt>
      <trkpt lat="49.45396" lon="1.40532">
        <ele>128</ele>
        <time>2026-05-16T12:36:32.362Z</time>
      </trkpt>
      <trkpt lat="49.45393" lon="1.40534">
        <ele>128</ele>
        <time>2026-05-16T12:36:36.800Z</time>
      </trkpt>
      <trkpt lat="49.45389" lon="1.40536">
        <ele>128</ele>
        <time>2026-05-16T12:36:41.455Z</time>
      </trkpt>
      <trkpt lat="49.45386" lon="1.40539">
        <ele>128</ele>
        <time>2026-05-16T12:36:45.800Z</time>
      </trkpt>
      <trkpt lat="49.45382" lon="1.4054">
        <ele>128</ele>
        <time>2026-05-16T12:36:50.337Z</time>
      </trkpt>
      <trkpt lat="49.45379" lon="1.40542">
        <ele>129</ele>
        <time>2026-05-16T12:36:54.533Z</time>
      </trkpt>
      <trkpt lat="49.45375" lon="1.40544">
        <ele>129</ele>
        <time>2026-05-16T12:36:58.800Z</time>
      </trkpt>
      <trkpt lat="49.45372" lon="1.40546">
        <ele>131</ele>
        <time>2026-05-16T12:37:03.275Z</time>
      </trkpt>
      <trkpt lat="49.45369" lon="1.40549">
        <ele>131</ele>
        <time>2026-05-16T12:37:07.800Z</time>
      </trkpt>
      <trkpt lat="49.45365" lon="1.40551">
        <ele>131</ele>
        <time>2026-05-16T12:37:12.176Z</time>
      </trkpt>
      <trkpt lat="49.45362" lon="1.40553">
        <ele>131</ele>
        <time>2026-05-16T12:37:16.574Z</time>
      </trkpt>
      <trkpt lat="49.45359" lon="1.40555">
        <ele>131</ele>
        <time>2026-05-16T12:37:20.800Z</time>
      </trkpt>
      <trkpt lat="49.45356" lon="1.40557">
        <ele>131</ele>
        <time>2026-05-16T12:37:25.273Z</time>
      </trkpt>
      <trkpt lat="49.45352" lon="1.40558">
        <ele>131</ele>
        <time>2026-05-16T12:37:29.800Z</time>
      </trkpt>
      <trkpt lat="49.45349" lon="1.4056">
        <ele>131</ele>
        <time>2026-05-16T12:37:33.800Z</time>
      </trkpt>
      <trkpt lat="49.45345" lon="1.40561">
        <ele>140</ele>
        <time>2026-05-16T12:37:38.114Z</time>
      </trkpt>
      <trkpt lat="49.45342" lon="1.40564">
        <ele>140</ele>
        <time>2026-05-16T12:37:42.800Z</time>
      </trkpt>
      <trkpt lat="49.45339" lon="1.40566">
        <ele>140</ele>
        <time>2026-05-16T12:37:47.418Z</time>
      </trkpt>
      <trkpt lat="49.45335" lon="1.40567">
        <ele>140</ele>
        <time>2026-05-16T12:37:51.800Z</time>
      </trkpt>
      <trkpt lat="49.45333" lon="1.40569">
        <ele>140</ele>
        <time>2026-05-16T12:37:56.275Z</time>
      </trkpt>
      <trkpt lat="49.4533" lon="1.40572">
        <ele>143</ele>
        <time>2026-05-16T12:38:00.800Z</time>
      </trkpt>
      <trkpt lat="49.45328" lon="1.40575">
        <ele>143</ele>
        <time>2026-05-16T12:38:05.747Z</time>
      </trkpt>
      <trkpt lat="49.45325" lon="1.40578">
        <ele>143</ele>
        <time>2026-05-16T12:38:09.800Z</time>
      </trkpt>
      <trkpt lat="49.45322" lon="1.4058">
        <ele>143</ele>
        <time>2026-05-16T12:38:14.436Z</time>
      </trkpt>
      <trkpt lat="49.45319" lon="1.40581">
        <ele>155</ele>
        <time>2026-05-16T12:38:18.800Z</time>
      </trkpt>
      <trkpt lat="49.45315" lon="1.40583">
        <ele>155</ele>
        <time>2026-05-16T12:38:23.776Z</time>
      </trkpt>
      <trkpt lat="49.45312" lon="1.40585">
        <ele>155</ele>
        <time>2026-05-16T12:38:28.262Z</time>
      </trkpt>
      <trkpt lat="49.45309" lon="1.40587">
        <ele>155</ele>
        <time>2026-05-16T12:38:32.553Z</time>
      </trkpt>
      <trkpt lat="49.45305" lon="1.40588">
        <ele>155</ele>
        <time>2026-05-16T12:38:36.800Z</time>
      </trkpt>
      <trkpt lat="49.45302" lon="1.4059">
        <ele>155</ele>
        <time>2026-05-16T12:38:41.454Z</time>
      </trkpt>
      <trkpt lat="49.45299" lon="1.4059">
        <ele>155</ele>
        <time>2026-05-16T12:38:45.800Z</time>
      </trkpt>
      <trkpt lat="49.45294" lon="1.4059">
        <ele>155</ele>
        <time>2026-05-16T12:38:50.495Z</time>
      </trkpt>
      <trkpt lat="49.45291" lon="1.40592">
        <ele>162</ele>
        <time>2026-05-16T12:38:54.800Z</time>
      </trkpt>
      <trkpt lat="49.45287" lon="1.40595">
        <ele>162</ele>
        <time>2026-05-16T12:38:59.114Z</time>
      </trkpt>
      <trkpt lat="49.45282" lon="1.40598">
        <ele>163</ele>
        <time>2026-05-16T12:39:03.617Z</time>
      </trkpt>
      <trkpt lat="49.45279" lon="1.40599">
        <ele>163</ele>
        <time>2026-05-16T12:39:07.655Z</time>
      </trkpt>
      <trkpt lat="49.45275" lon="1.40601">
        <ele>163</ele>
        <time>2026-05-16T12:39:11.800Z</time>
      </trkpt>
      <trkpt lat="49.45271" lon="1.40604">
        <ele>163</ele>
        <time>2026-05-16T12:39:16.713Z</time>
      </trkpt>
      <trkpt lat="49.45267" lon="1.40607">
        <ele>163</ele>
        <time>2026-05-16T12:39:21.217Z</time>
      </trkpt>
      <trkpt lat="49.45263" lon="1.4061">
        <ele>166</ele>
        <time>2026-05-16T12:39:25.800Z</time>
      </trkpt>
      <trkpt lat="49.45259" lon="1.40611">
        <ele>166</ele>
        <time>2026-05-16T12:39:29.993Z</time>
      </trkpt>
      <trkpt lat="49.45255" lon="1.40612">
        <ele>166</ele>
        <time>2026-05-16T12:39:34.216Z</time>
      </trkpt>
      <trkpt lat="49.45252" lon="1.40612">
        <ele>166</ele>
        <time>2026-05-16T12:39:38.298Z</time>
      </trkpt>
      <trkpt lat="49.45242" lon="1.40617">
        <ele>166</ele>
        <time>2026-05-16T12:46:03.800Z</time>
      </trkpt>
      <trkpt lat="49.45242" lon="1.40617">
        <ele>166</ele>
        <time>2026-05-16T12:46:12.800Z</time>
      </trkpt>
      <trkpt lat="49.45238" lon="1.40618">
        <ele>166</ele>
        <time>2026-05-16T12:46:16.800Z</time>
      </trkpt>
      <trkpt lat="49.45236" lon="1.4062">
        <ele>169</ele>
        <time>2026-05-16T12:46:21.800Z</time>
      </trkpt>
      <trkpt lat="49.45232" lon="1.40621">
        <ele>169</ele>
        <time>2026-05-16T12:46:26.800Z</time>
      </trkpt>
      <trkpt lat="49.45229" lon="1.40621">
        <ele>169</ele>
        <time>2026-05-16T12:46:30.800Z</time>
      </trkpt>
      <trkpt lat="49.45227" lon="1.40623">
        <ele>169</ele>
        <time>2026-05-16T12:46:35.254Z</time>
      </trkpt>
      <trkpt lat="49.45223" lon="1.40626">
        <ele>170</ele>
        <time>2026-05-16T12:46:39.616Z</time>
      </trkpt>
      <trkpt lat="49.45218" lon="1.40628">
        <ele>170</ele>
        <time>2026-05-16T12:46:44.154Z</time>
      </trkpt>
      <trkpt lat="49.45214" lon="1.4063">
        <ele>170</ele>
        <time>2026-05-16T12:46:48.534Z</time>
      </trkpt>
      <trkpt lat="49.45209" lon="1.40632">
        <ele>170</ele>
        <time>2026-05-16T12:46:53.081Z</time>
      </trkpt>
      <trkpt lat="49.45206" lon="1.40635">
        <ele>170</ele>
        <time>2026-05-16T12:46:57.575Z</time>
      </trkpt>
      <trkpt lat="49.45202" lon="1.40637">
        <ele>170</ele>
        <time>2026-05-16T12:47:01.800Z</time>
      </trkpt>
      <trkpt lat="49.45198" lon="1.40639">
        <ele>170</ele>
        <time>2026-05-16T12:47:06.194Z</time>
      </trkpt>
      <trkpt lat="49.45194" lon="1.40641">
        <ele>170</ele>
        <time>2026-05-16T12:47:10.495Z</time>
      </trkpt>
      <trkpt lat="49.45189" lon="1.40642">
        <ele>170</ele>
        <time>2026-05-16T12:47:14.800Z</time>
      </trkpt>
      <trkpt lat="49.45186" lon="1.40643">
        <ele>170</ele>
        <time>2026-05-16T12:47:19.115Z</time>
      </trkpt>
      <trkpt lat="49.45182" lon="1.40643">
        <ele>170</ele>
        <time>2026-05-16T12:47:23.398Z</time>
      </trkpt>
      <trkpt lat="49.45179" lon="1.40644">
        <ele>170</ele>
        <time>2026-05-16T12:47:27.735Z</time>
      </trkpt>
      <trkpt lat="49.45174" lon="1.40648">
        <ele>170</ele>
        <time>2026-05-16T12:47:32.018Z</time>
      </trkpt>
      <trkpt lat="49.4517" lon="1.40651">
        <ele>170</ele>
        <time>2026-05-16T12:47:36.459Z</time>
      </trkpt>
      <trkpt lat="49.45166" lon="1.40652">
        <ele>170</ele>
        <time>2026-05-16T12:47:40.762Z</time>
      </trkpt>
      <trkpt lat="49.45164" lon="1.40653">
        <ele>170</ele>
        <time>2026-05-16T12:47:44.800Z</time>
      </trkpt>
      <trkpt lat="49.45162" lon="1.40652">
        <ele>170</ele>
        <time>2026-05-16T12:47:49.516Z</time>
      </trkpt>
      <trkpt lat="49.45159" lon="1.40655">
        <ele>170</ele>
        <time>2026-05-16T12:47:53.800Z</time>
      </trkpt>
      <trkpt lat="49.4516" lon="1.40663">
        <ele>170</ele>
        <time>2026-05-16T12:47:57.961Z</time>
      </trkpt>
      <trkpt lat="49.45161" lon="1.40672">
        <ele>170</ele>
        <time>2026-05-16T12:48:02.436Z</time>
      </trkpt>
      <trkpt lat="49.45162" lon="1.40681">
        <ele>171</ele>
        <time>2026-05-16T12:48:06.676Z</time>
      </trkpt>
      <trkpt lat="49.45164" lon="1.40689">
        <ele>171</ele>
        <time>2026-05-16T12:48:10.960Z</time>
      </trkpt>
      <trkpt lat="49.45165" lon="1.40696">
        <ele>171</ele>
        <time>2026-05-16T12:48:15.157Z</time>
      </trkpt>
      <trkpt lat="49.45164" lon="1.40704">
        <ele>171</ele>
        <time>2026-05-16T12:48:19.378Z</time>
      </trkpt>
      <trkpt lat="49.45165" lon="1.4071">
        <ele>172</ele>
        <time>2026-05-16T12:48:23.635Z</time>
      </trkpt>
      <trkpt lat="49.45165" lon="1.40717">
        <ele>172</ele>
        <time>2026-05-16T12:48:27.800Z</time>
      </trkpt>
      <trkpt lat="49.45166" lon="1.40724">
        <ele>172</ele>
        <time>2026-05-16T12:48:32.553Z</time>
      </trkpt>
      <trkpt lat="49.45166" lon="1.40731">
        <ele>172</ele>
        <time>2026-05-16T12:48:36.793Z</time>
      </trkpt>
      <trkpt lat="49.45166" lon="1.40739">
        <ele>173</ele>
        <time>2026-05-16T12:48:40.800Z</time>
      </trkpt>
      <trkpt lat="49.45165" lon="1.40746">
        <ele>173</ele>
        <time>2026-05-16T12:48:45Z</time>
      </trkpt>
      <trkpt lat="49.45165" lon="1.40755">
        <ele>173</ele>
        <time>2026-05-16T12:48:49.573Z</time>
      </trkpt>
      <trkpt lat="49.45165" lon="1.40762">
        <ele>173</ele>
        <time>2026-05-16T12:48:53.733Z</time>
      </trkpt>
      <trkpt lat="49.45165" lon="1.40769">
        <ele>174</ele>
        <time>2026-05-16T12:48:57.800Z</time>
      </trkpt>
      <trkpt lat="49.45164" lon="1.40778">
        <ele>174</ele>
        <time>2026-05-16T12:49:02.556Z</time>
      </trkpt>
      <trkpt lat="49.45163" lon="1.40785">
        <ele>174</ele>
        <time>2026-05-16T12:49:06.795Z</time>
      </trkpt>
      <trkpt lat="49.45163" lon="1.40792">
        <ele>175</ele>
        <time>2026-05-16T12:49:10.999Z</time>
      </trkpt>
      <trkpt lat="49.45163" lon="1.40799">
        <ele>175</ele>
        <time>2026-05-16T12:49:15.082Z</time>
      </trkpt>
      <trkpt lat="49.45164" lon="1.40806">
        <ele>175</ele>
        <time>2026-05-16T12:49:19.232Z</time>
      </trkpt>
      <trkpt lat="49.45164" lon="1.40813">
        <ele>175</ele>
        <time>2026-05-16T12:49:23.419Z</time>
      </trkpt>
      <trkpt lat="49.45163" lon="1.4082">
        <ele>175</ele>
        <time>2026-05-16T12:49:27.475Z</time>
      </trkpt>
      <trkpt lat="49.45163" lon="1.40827">
        <ele>175</ele>
        <time>2026-05-16T12:49:31.618Z</time>
      </trkpt>
      <trkpt lat="49.45162" lon="1.40835">
        <ele>175</ele>
        <time>2026-05-16T12:49:35.814Z</time>
      </trkpt>
      <trkpt lat="49.45163" lon="1.40841">
        <ele>175</ele>
        <time>2026-05-16T12:49:39.974Z</time>
      </trkpt>
      <trkpt lat="49.45163" lon="1.40849">
        <ele>175</ele>
        <time>2026-05-16T12:49:44.495Z</time>
      </trkpt>
      <trkpt lat="49.45163" lon="1.40855">
        <ele>175</ele>
        <time>2026-05-16T12:49:48.717Z</time>
      </trkpt>
      <trkpt lat="49.45162" lon="1.40862">
        <ele>175</ele>
        <time>2026-05-16T12:49:52.957Z</time>
      </trkpt>
      <trkpt lat="49.45162" lon="1.40869">
        <ele>175</ele>
        <time>2026-05-16T12:49:57.196Z</time>
      </trkpt>
      <trkpt lat="49.45162" lon="1.40876">
        <ele>175</ele>
        <time>2026-05-16T12:50:01.295Z</time>
      </trkpt>
      <trkpt lat="49.45162" lon="1.40883">
        <ele>175</ele>
        <time>2026-05-16T12:50:05.315Z</time>
      </trkpt>
      <trkpt lat="49.45161" lon="1.4089">
        <ele>175</ele>
        <time>2026-05-16T12:50:09.520Z</time>
      </trkpt>
      <trkpt lat="49.4516" lon="1.40898">
        <ele>175</ele>
        <time>2026-05-16T12:50:14.094Z</time>
      </trkpt>
      <trkpt lat="49.45161" lon="1.40905">
        <ele>175</ele>
        <time>2026-05-16T12:50:18.639Z</time>
      </trkpt>
      <trkpt lat="49.45161" lon="1.40912">
        <ele>175</ele>
        <time>2026-05-16T12:50:22.659Z</time>
      </trkpt>
      <trkpt lat="49.45162" lon="1.40918">
        <ele>175</ele>
        <time>2026-05-16T12:50:26.733Z</time>
      </trkpt>
      <trkpt lat="49.45163" lon="1.40925">
        <ele>175</ele>
        <time>2026-05-16T12:50:30.800Z</time>
      </trkpt>
      <trkpt lat="49.45162" lon="1.40932">
        <ele>175</ele>
        <time>2026-05-16T12:50:34.913Z</time>
      </trkpt>
      <trkpt lat="49.45162" lon="1.4094">
        <ele>175</ele>
        <time>2026-05-16T12:50:39.012Z</time>
      </trkpt>
      <trkpt lat="49.45162" lon="1.40947">
        <ele>175</ele>
        <time>2026-05-16T12:50:43.173Z</time>
      </trkpt>
      <trkpt lat="49.45161" lon="1.40954">
        <ele>175</ele>
        <time>2026-05-16T12:50:47.298Z</time>
      </trkpt>
      <trkpt lat="49.45161" lon="1.40962">
        <ele>175</ele>
        <time>2026-05-16T12:50:51.460Z</time>
      </trkpt>
      <trkpt lat="49.45161" lon="1.40969">
        <ele>175</ele>
        <time>2026-05-16T12:50:55.594Z</time>
      </trkpt>
      <trkpt lat="49.45161" lon="1.40977">
        <ele>175</ele>
        <time>2026-05-16T12:50:59.719Z</time>
      </trkpt>
      <trkpt lat="49.4516" lon="1.40986">
        <ele>175</ele>
        <time>2026-05-16T12:51:04.273Z</time>
      </trkpt>
      <trkpt lat="49.4516" lon="1.40992">
        <ele>175</ele>
        <time>2026-05-16T12:51:08.434Z</time>
      </trkpt>
      <trkpt lat="49.4516" lon="1.40999">
        <ele>175</ele>
        <time>2026-05-16T12:51:12.534Z</time>
      </trkpt>
      <trkpt lat="49.45159" lon="1.41006">
        <ele>175</ele>
        <time>2026-05-16T12:51:16.695Z</time>
      </trkpt>
      <trkpt lat="49.4516" lon="1.41012">
        <ele>175</ele>
        <time>2026-05-16T12:51:20.777Z</time>
      </trkpt>
      <trkpt lat="49.4516" lon="1.41018">
        <ele>175</ele>
        <time>2026-05-16T12:51:24.800Z</time>
      </trkpt>
      <trkpt lat="49.4516" lon="1.41026">
        <ele>175</ele>
        <time>2026-05-16T12:51:29.054Z</time>
      </trkpt>
      <trkpt lat="49.45161" lon="1.41031">
        <ele>175</ele>
        <time>2026-05-16T12:51:33.048Z</time>
      </trkpt>
      <trkpt lat="49.45162" lon="1.41038">
        <ele>175</ele>
        <time>2026-05-16T12:51:37.340Z</time>
      </trkpt>
      <trkpt lat="49.45162" lon="1.41044">
        <ele>175</ele>
        <time>2026-05-16T12:51:41.378Z</time>
      </trkpt>
      <trkpt lat="49.45162" lon="1.41051">
        <ele>175</ele>
        <time>2026-05-16T12:51:45.476Z</time>
      </trkpt>
      <trkpt lat="49.45161" lon="1.41057">
        <ele>175</ele>
        <time>2026-05-16T12:51:49.558Z</time>
      </trkpt>
      <trkpt lat="49.45161" lon="1.41064">
        <ele>175</ele>
        <time>2026-05-16T12:51:53.692Z</time>
      </trkpt>
      <trkpt lat="49.45161" lon="1.41071">
        <ele>175</ele>
        <time>2026-05-16T12:51:57.800Z</time>
      </trkpt>
      <trkpt lat="49.45161" lon="1.4108">
        <ele>175</ele>
        <time>2026-05-16T12:52:02.434Z</time>
      </trkpt>
      <trkpt lat="49.45161" lon="1.41087">
        <ele>175</ele>
        <time>2026-05-16T12:52:06.499Z</time>
      </trkpt>
      <trkpt lat="49.4516" lon="1.41094">
        <ele>175</ele>
        <time>2026-05-16T12:52:10.616Z</time>
      </trkpt>
      <trkpt lat="49.45161" lon="1.41101">
        <ele>175</ele>
        <time>2026-05-16T12:52:14.715Z</time>
      </trkpt>
      <trkpt lat="49.45161" lon="1.41109">
        <ele>175</ele>
        <time>2026-05-16T12:52:18.800Z</time>
      </trkpt>
      <trkpt lat="49.4516" lon="1.41117">
        <ele>175</ele>
        <time>2026-05-16T12:52:23.413Z</time>
      </trkpt>
      <trkpt lat="49.4516" lon="1.41124">
        <ele>175</ele>
        <time>2026-05-16T12:52:27.495Z</time>
      </trkpt>
      <trkpt lat="49.45159" lon="1.41131">
        <ele>175</ele>
        <time>2026-05-16T12:52:31.516Z</time>
      </trkpt>
      <trkpt lat="49.45159" lon="1.41138">
        <ele>175</ele>
        <time>2026-05-16T12:52:35.536Z</time>
      </trkpt>
      <trkpt lat="49.4516" lon="1.41145">
        <ele>175</ele>
        <time>2026-05-16T12:52:39.556Z</time>
      </trkpt>
      <trkpt lat="49.4516" lon="1.41153">
        <ele>175</ele>
        <time>2026-05-16T12:52:43.698Z</time>
      </trkpt>
      <trkpt lat="49.45159" lon="1.4116">
        <ele>176</ele>
        <time>2026-05-16T12:52:47.780Z</time>
      </trkpt>
      <trkpt lat="49.4516" lon="1.41167">
        <ele>176</ele>
        <time>2026-05-16T12:52:51.800Z</time>
      </trkpt>
      <trkpt lat="49.45161" lon="1.41175">
        <ele>176</ele>
        <time>2026-05-16T12:52:56.435Z</time>
      </trkpt>
      <trkpt lat="49.4516" lon="1.41183">
        <ele>177</ele>
        <time>2026-05-16T12:53:00.454Z</time>
      </trkpt>
      <trkpt lat="49.4516" lon="1.4119">
        <ele>177</ele>
        <time>2026-05-16T12:53:04.537Z</time>
      </trkpt>
      <trkpt lat="49.45159" lon="1.41198">
        <ele>177</ele>
        <time>2026-05-16T12:53:08.653Z</time>
      </trkpt>
      <trkpt lat="49.45159" lon="1.41205">
        <ele>177</ele>
        <time>2026-05-16T12:53:12.779Z</time>
      </trkpt>
      <trkpt lat="49.4516" lon="1.41212">
        <ele>177</ele>
        <time>2026-05-16T12:53:16.800Z</time>
      </trkpt>
      <trkpt lat="49.45161" lon="1.41219">
        <ele>177</ele>
        <time>2026-05-16T12:53:20.977Z</time>
      </trkpt>
      <trkpt lat="49.4516" lon="1.41226">
        <ele>177</ele>
        <time>2026-05-16T12:53:25.043Z</time>
      </trkpt>
      <trkpt lat="49.4516" lon="1.41235">
        <ele>177</ele>
        <time>2026-05-16T12:53:29.614Z</time>
      </trkpt>
      <trkpt lat="49.45159" lon="1.41242">
        <ele>178</ele>
        <time>2026-05-16T12:53:33.634Z</time>
      </trkpt>
      <trkpt lat="49.45159" lon="1.41249">
        <ele>178</ele>
        <time>2026-05-16T12:53:37.777Z</time>
      </trkpt>
      <trkpt lat="49.45159" lon="1.41257">
        <ele>178</ele>
        <time>2026-05-16T12:53:41.800Z</time>
      </trkpt>
      <trkpt lat="49.45159" lon="1.41265">
        <ele>178</ele>
        <time>2026-05-16T12:53:46.475Z</time>
      </trkpt>
      <trkpt lat="49.45159" lon="1.41273">
        <ele>178</ele>
        <time>2026-05-16T12:53:50.574Z</time>
      </trkpt>
      <trkpt lat="49.45158" lon="1.4128">
        <ele>178</ele>
        <time>2026-05-16T12:53:54.700Z</time>
      </trkpt>
      <trkpt lat="49.45159" lon="1.41288">
        <ele>178</ele>
        <time>2026-05-16T12:53:59.256Z</time>
      </trkpt>
      <trkpt lat="49.45161" lon="1.41294">
        <ele>177</ele>
        <time>2026-05-16T12:54:03.319Z</time>
      </trkpt>
      <trkpt lat="49.45162" lon="1.41301">
        <ele>177</ele>
        <time>2026-05-16T12:54:07.375Z</time>
      </trkpt>
      <trkpt lat="49.45162" lon="1.41307">
        <ele>177</ele>
        <time>2026-05-16T12:54:11.553Z</time>
      </trkpt>
      <trkpt lat="49.45162" lon="1.41314">
        <ele>177</ele>
        <time>2026-05-16T12:54:15.678Z</time>
      </trkpt>
      <trkpt lat="49.45161" lon="1.41322">
        <ele>176</ele>
        <time>2026-05-16T12:54:19.733Z</time>
      </trkpt>
      <trkpt lat="49.45161" lon="1.41329">
        <ele>176</ele>
        <time>2026-05-16T12:54:24.298Z</time>
      </trkpt>
      <trkpt lat="49.4516" lon="1.41337">
        <ele>176</ele>
        <time>2026-05-16T12:54:28.800Z</time>
      </trkpt>
      <trkpt lat="49.4516" lon="1.41346">
        <ele>176</ele>
        <time>2026-05-16T12:54:33.453Z</time>
      </trkpt>
      <trkpt lat="49.4516" lon="1.41354">
        <ele>174</ele>
        <time>2026-05-16T12:54:37.499Z</time>
      </trkpt>
      <trkpt lat="49.4516" lon="1.41362">
        <ele>174</ele>
        <time>2026-05-16T12:54:41.800Z</time>
      </trkpt>
      <trkpt lat="49.4516" lon="1.41367">
        <ele>174</ele>
        <time>2026-05-16T12:54:45.996Z</time>
      </trkpt>
      <trkpt lat="49.4516" lon="1.41369">
        <ele>174</ele>
        <time>2026-05-16T12:54:50.077Z</time>
      </trkpt>
      <trkpt lat="49.4516" lon="1.41377">
        <ele>171</ele>
        <time>2026-05-16T12:54:54.319Z</time>
      </trkpt>
      <trkpt lat="49.45167" lon="1.4138">
        <ele>171</ele>
        <time>2026-05-16T12:54:58.434Z</time>
      </trkpt>
      <trkpt lat="49.45171" lon="1.4138">
        <ele>171</ele>
        <time>2026-05-16T12:55:02.533Z</time>
      </trkpt>
      <trkpt lat="49.45174" lon="1.41381">
        <ele>171</ele>
        <time>2026-05-16T12:55:06.693Z</time>
      </trkpt>
      <trkpt lat="49.45176" lon="1.4138">
        <ele>171</ele>
        <time>2026-05-16T12:55:10.800Z</time>
      </trkpt>
      <trkpt lat="49.45179" lon="1.41378">
        <ele>171</ele>
        <time>2026-05-16T12:55:15.015Z</time>
      </trkpt>
      <trkpt lat="49.45183" lon="1.41378">
        <ele>171</ele>
        <time>2026-05-16T12:55:19.064Z</time>
      </trkpt>
      <trkpt lat="49.45186" lon="1.41379">
        <ele>171</ele>
        <time>2026-05-16T12:55:23.775Z</time>
      </trkpt>
      <trkpt lat="49.45189" lon="1.41385">
        <ele>171</ele>
        <time>2026-05-16T12:55:28.014Z</time>
      </trkpt>
      <trkpt lat="49.4519" lon="1.41394">
        <ele>171</ele>
        <time>2026-05-16T12:55:32.113Z</time>
      </trkpt>
      <trkpt lat="49.45193" lon="1.41401">
        <ele>171</ele>
        <time>2026-05-16T12:55:36.317Z</time>
      </trkpt>
      <trkpt lat="49.45197" lon="1.41409">
        <ele>170</ele>
        <time>2026-05-16T12:55:40.400Z</time>
      </trkpt>
      <trkpt lat="49.45199" lon="1.41417">
        <ele>170</ele>
        <time>2026-05-16T12:55:44.955Z</time>
      </trkpt>
      <trkpt lat="49.45201" lon="1.41422">
        <ele>170</ele>
        <time>2026-05-16T12:55:49.177Z</time>
      </trkpt>
      <trkpt lat="49.45204" lon="1.41428">
        <ele>170</ele>
        <time>2026-05-16T12:55:53.714Z</time>
      </trkpt>
      <trkpt lat="49.4521" lon="1.41432">
        <ele>169</ele>
        <time>2026-05-16T12:55:57.800Z</time>
      </trkpt>
      <trkpt lat="49.45214" lon="1.41438">
        <ele>169</ele>
        <time>2026-05-16T12:56:02.097Z</time>
      </trkpt>
      <trkpt lat="49.45217" lon="1.41443">
        <ele>169</ele>
        <time>2026-05-16T12:56:06.153Z</time>
      </trkpt>
      <trkpt lat="49.45221" lon="1.41449">
        <ele>169</ele>
        <time>2026-05-16T12:56:10.278Z</time>
      </trkpt>
      <trkpt lat="49.45224" lon="1.41454">
        <ele>169</ele>
        <time>2026-05-16T12:56:14.438Z</time>
      </trkpt>
      <trkpt lat="49.45227" lon="1.41459">
        <ele>170</ele>
        <time>2026-05-16T12:56:18.995Z</time>
      </trkpt>
      <trkpt lat="49.45226" lon="1.41466">
        <ele>170</ele>
        <time>2026-05-16T12:56:23.418Z</time>
      </trkpt>
      <trkpt lat="49.45227" lon="1.41474">
        <ele>170</ele>
        <time>2026-05-16T12:56:27.956Z</time>
      </trkpt>
      <trkpt lat="49.45227" lon="1.41481">
        <ele>170</ele>
        <time>2026-05-16T12:56:32.083Z</time>
      </trkpt>
      <trkpt lat="49.45228" lon="1.41489">
        <ele>170</ele>
        <time>2026-05-16T12:56:36.233Z</time>
      </trkpt>
      <trkpt lat="49.45228" lon="1.41496">
        <ele>170</ele>
        <time>2026-05-16T12:56:40.314Z</time>
      </trkpt>
      <trkpt lat="49.45228" lon="1.41504">
        <ele>170</ele>
        <time>2026-05-16T12:56:44.362Z</time>
      </trkpt>
      <trkpt lat="49.45229" lon="1.41511">
        <ele>170</ele>
        <time>2026-05-16T12:56:48.433Z</time>
      </trkpt>
      <trkpt lat="49.45229" lon="1.41518">
        <ele>169</ele>
        <time>2026-05-16T12:56:52.497Z</time>
      </trkpt>
      <trkpt lat="49.4523" lon="1.41525">
        <ele>169</ele>
        <time>2026-05-16T12:56:56.693Z</time>
      </trkpt>
      <trkpt lat="49.45233" lon="1.41532">
        <ele>169</ele>
        <time>2026-05-16T12:57:01.213Z</time>
      </trkpt>
      <trkpt lat="49.45234" lon="1.41539">
        <ele>169</ele>
        <time>2026-05-16T12:57:05.356Z</time>
      </trkpt>
      <trkpt lat="49.45236" lon="1.41546">
        <ele>167</ele>
        <time>2026-05-16T12:57:09.474Z</time>
      </trkpt>
      <trkpt lat="49.45237" lon="1.41553">
        <ele>165</ele>
        <time>2026-05-16T12:57:13.659Z</time>
      </trkpt>
      <trkpt lat="49.45238" lon="1.41558">
        <ele>165</ele>
        <time>2026-05-16T12:57:17.759Z</time>
      </trkpt>
      <trkpt lat="49.4524" lon="1.41565">
        <ele>165</ele>
        <time>2026-05-16T12:57:21.800Z</time>
      </trkpt>
      <trkpt lat="49.45242" lon="1.41572">
        <ele>164</ele>
        <time>2026-05-16T12:57:25.977Z</time>
      </trkpt>
      <trkpt lat="49.45244" lon="1.41579">
        <ele>164</ele>
        <time>2026-05-16T12:57:30.056Z</time>
      </trkpt>
      <trkpt lat="49.45245" lon="1.41585">
        <ele>164</ele>
        <time>2026-05-16T12:57:34.095Z</time>
      </trkpt>
      <trkpt lat="49.45245" lon="1.41596">
        <ele>164</ele>
        <time>2026-05-16T12:57:46.900Z</time>
      </trkpt>
      <trkpt lat="49.45244" lon="1.41599">
        <ele>163</ele>
        <time>2026-05-16T12:57:51.213Z</time>
      </trkpt>
      <trkpt lat="49.45244" lon="1.41609">
        <ele>163</ele>
        <time>2026-05-16T12:57:55.413Z</time>
      </trkpt>
      <trkpt lat="49.45246" lon="1.41616">
        <ele>163</ele>
        <time>2026-05-16T12:57:59.716Z</time>
      </trkpt>
      <trkpt lat="49.45249" lon="1.41623">
        <ele>163</ele>
        <time>2026-05-16T12:58:03.800Z</time>
      </trkpt>
      <trkpt lat="49.4525" lon="1.4163">
        <ele>163</ele>
        <time>2026-05-16T12:58:08.237Z</time>
      </trkpt>
      <trkpt lat="49.45251" lon="1.41637">
        <ele>163</ele>
        <time>2026-05-16T12:58:12.477Z</time>
      </trkpt>
      <trkpt lat="49.45251" lon="1.41642">
        <ele>163</ele>
        <time>2026-05-16T12:58:16.800Z</time>
      </trkpt>
      <trkpt lat="49.45252" lon="1.4165">
        <ele>163</ele>
        <time>2026-05-16T12:58:21.097Z</time>
      </trkpt>
      <trkpt lat="49.45252" lon="1.41657">
        <ele>163</ele>
        <time>2026-05-16T12:58:25.336Z</time>
      </trkpt>
      <trkpt lat="49.45253" lon="1.41664">
        <ele>163</ele>
        <time>2026-05-16T12:58:29.716Z</time>
      </trkpt>
      <trkpt lat="49.45254" lon="1.41671">
        <ele>163</ele>
        <time>2026-05-16T12:58:33.999Z</time>
      </trkpt>
      <trkpt lat="49.45255" lon="1.41679">
        <ele>163</ele>
        <time>2026-05-16T12:58:38.225Z</time>
      </trkpt>
      <trkpt lat="49.45255" lon="1.41686">
        <ele>163</ele>
        <time>2026-05-16T12:58:42.495Z</time>
      </trkpt>
      <trkpt lat="49.45256" lon="1.41693">
        <ele>163</ele>
        <time>2026-05-16T12:58:46.674Z</time>
      </trkpt>
      <trkpt lat="49.45258" lon="1.41699">
        <ele>163</ele>
        <time>2026-05-16T12:58:50.800Z</time>
      </trkpt>
      <trkpt lat="49.4526" lon="1.41706">
        <ele>163</ele>
        <time>2026-05-16T12:58:55.074Z</time>
      </trkpt>
      <trkpt lat="49.45261" lon="1.41712">
        <ele>163</ele>
        <time>2026-05-16T12:58:59.656Z</time>
      </trkpt>
      <trkpt lat="49.45263" lon="1.41716">
        <ele>163</ele>
        <time>2026-05-16T12:59:03.800Z</time>
      </trkpt>
      <trkpt lat="49.45268" lon="1.41722">
        <ele>159</ele>
        <time>2026-05-16T12:59:08.293Z</time>
      </trkpt>
      <trkpt lat="49.45272" lon="1.41726">
        <ele>159</ele>
        <time>2026-05-16T12:59:12.800Z</time>
      </trkpt>
      <trkpt lat="49.45275" lon="1.41734">
        <ele>159</ele>
        <time>2026-05-16T12:59:17.456Z</time>
      </trkpt>
      <trkpt lat="49.45274" lon="1.41741">
        <ele>157</ele>
        <time>2026-05-16T12:59:21.458Z</time>
      </trkpt>
      <trkpt lat="49.45274" lon="1.41747">
        <ele>157</ele>
        <time>2026-05-16T12:59:25.497Z</time>
      </trkpt>
      <trkpt lat="49.45275" lon="1.41754">
        <ele>157</ele>
        <time>2026-05-16T12:59:29.779Z</time>
      </trkpt>
      <trkpt lat="49.45277" lon="1.41761">
        <ele>157</ele>
        <time>2026-05-16T12:59:34.379Z</time>
      </trkpt>
      <trkpt lat="49.45278" lon="1.41768">
        <ele>155</ele>
        <time>2026-05-16T12:59:38.963Z</time>
      </trkpt>
      <trkpt lat="49.45279" lon="1.41774">
        <ele>155</ele>
        <time>2026-05-16T12:59:43.016Z</time>
      </trkpt>
      <trkpt lat="49.45279" lon="1.41781">
        <ele>155</ele>
        <time>2026-05-16T12:59:47.680Z</time>
      </trkpt>
      <trkpt lat="49.45278" lon="1.41787">
        <ele>155</ele>
        <time>2026-05-16T12:59:51.800Z</time>
      </trkpt>
      <trkpt lat="49.45277" lon="1.41794">
        <ele>150</ele>
        <time>2026-05-16T12:59:56.033Z</time>
      </trkpt>
      <trkpt lat="49.45275" lon="1.41799">
        <ele>150</ele>
        <time>2026-05-16T13:00:00.157Z</time>
      </trkpt>
      <trkpt lat="49.45273" lon="1.41805">
        <ele>150</ele>
        <time>2026-05-16T13:00:04.740Z</time>
      </trkpt>
      <trkpt lat="49.4527" lon="1.41809">
        <ele>150</ele>
        <time>2026-05-16T13:00:08.800Z</time>
      </trkpt>
      <trkpt lat="49.45267" lon="1.41814">
        <ele>150</ele>
        <time>2026-05-16T13:00:13.694Z</time>
      </trkpt>
      <trkpt lat="49.45263" lon="1.41817">
        <ele>157</ele>
        <time>2026-05-16T13:00:18.477Z</time>
      </trkpt>
      <trkpt lat="49.45261" lon="1.41818">
        <ele>157</ele>
        <time>2026-05-16T13:00:22.576Z</time>
      </trkpt>
      <trkpt lat="49.45257" lon="1.41821">
        <ele>150</ele>
        <time>2026-05-16T13:00:27.017Z</time>
      </trkpt>
      <trkpt lat="49.45253" lon="1.41824">
        <ele>150</ele>
        <time>2026-05-16T13:00:31.037Z</time>
      </trkpt>
      <trkpt lat="49.45249" lon="1.41828">
        <ele>150</ele>
        <time>2026-05-16T13:00:35.233Z</time>
      </trkpt>
      <trkpt lat="49.45246" lon="1.41832">
        <ele>150</ele>
        <time>2026-05-16T13:00:39.253Z</time>
      </trkpt>
      <trkpt lat="49.45243" lon="1.41835">
        <ele>150</ele>
        <time>2026-05-16T13:00:43.632Z</time>
      </trkpt>
      <trkpt lat="49.4524" lon="1.41837">
        <ele>150</ele>
        <time>2026-05-16T13:00:47.800Z</time>
      </trkpt>
      <trkpt lat="49.45238" lon="1.4184">
        <ele>150</ele>
        <time>2026-05-16T13:00:52.199Z</time>
      </trkpt>
      <trkpt lat="49.45235" lon="1.41845">
        <ele>155</ele>
        <time>2026-05-16T13:00:56.535Z</time>
      </trkpt>
      <trkpt lat="49.45232" lon="1.4185">
        <ele>146</ele>
        <time>2026-05-16T13:01:00.793Z</time>
      </trkpt>
      <trkpt lat="49.45228" lon="1.41852">
        <ele>146</ele>
        <time>2026-05-16T13:01:04.800Z</time>
      </trkpt>
      <trkpt lat="49.45225" lon="1.41853">
        <ele>146</ele>
        <time>2026-05-16T13:01:08.800Z</time>
      </trkpt>
      <trkpt lat="49.45222" lon="1.41855">
        <ele>146</ele>
        <time>2026-05-16T13:01:13.177Z</time>
      </trkpt>
      <trkpt lat="49.45218" lon="1.41857">
        <ele>146</ele>
        <time>2026-05-16T13:01:17.260Z</time>
      </trkpt>
      <trkpt lat="49.45214" lon="1.41861">
        <ele>146</ele>
        <time>2026-05-16T13:01:21.560Z</time>
      </trkpt>
      <trkpt lat="49.45211" lon="1.41863">
        <ele>146</ele>
        <time>2026-05-16T13:01:25.800Z</time>
      </trkpt>
      <trkpt lat="49.45208" lon="1.41865">
        <ele>152</ele>
        <time>2026-05-16T13:01:30.355Z</time>
      </trkpt>
      <trkpt lat="49.45205" lon="1.41868">
        <ele>152</ele>
        <time>2026-05-16T13:01:34.533Z</time>
      </trkpt>
      <trkpt lat="49.45202" lon="1.41871">
        <ele>152</ele>
        <time>2026-05-16T13:01:38.800Z</time>
      </trkpt>
      <trkpt lat="49.452" lon="1.41876">
        <ele>145</ele>
        <time>2026-05-16T13:01:43.057Z</time>
      </trkpt>
      <trkpt lat="49.45198" lon="1.41881">
        <ele>145</ele>
        <time>2026-05-16T13:01:47.218Z</time>
      </trkpt>
      <trkpt lat="49.45195" lon="1.41885">
        <ele>145</ele>
        <time>2026-05-16T13:01:51.499Z</time>
      </trkpt>
      <trkpt lat="49.45191" lon="1.41888">
        <ele>145</ele>
        <time>2026-05-16T13:01:55.800Z</time>
      </trkpt>
      <trkpt lat="49.45188" lon="1.41892">
        <ele>145</ele>
        <time>2026-05-16T13:02:00.093Z</time>
      </trkpt>
      <trkpt lat="49.45185" lon="1.41897">
        <ele>145</ele>
        <time>2026-05-16T13:02:04.279Z</time>
      </trkpt>
      <trkpt lat="49.45184" lon="1.41904">
        <ele>137</ele>
        <time>2026-05-16T13:02:08.536Z</time>
      </trkpt>
      <trkpt lat="49.45183" lon="1.41909">
        <ele>137</ele>
        <time>2026-05-16T13:02:12.758Z</time>
      </trkpt>
      <trkpt lat="49.45182" lon="1.41915">
        <ele>137</ele>
        <time>2026-05-16T13:02:16.800Z</time>
      </trkpt>
      <trkpt lat="49.45181" lon="1.4192">
        <ele>137</ele>
        <time>2026-05-16T13:02:20.913Z</time>
      </trkpt>
      <trkpt lat="49.45182" lon="1.41925">
        <ele>137</ele>
        <time>2026-05-16T13:02:25.117Z</time>
      </trkpt>
      <trkpt lat="49.45183" lon="1.41932">
        <ele>132</ele>
        <time>2026-05-16T13:02:29.620Z</time>
      </trkpt>
      <trkpt lat="49.45183" lon="1.41939">
        <ele>132</ele>
        <time>2026-05-16T13:02:33.938Z</time>
      </trkpt>
      <trkpt lat="49.45182" lon="1.41947">
        <ele>132</ele>
        <time>2026-05-16T13:02:38.555Z</time>
      </trkpt>
      <trkpt lat="49.45182" lon="1.41952">
        <ele>132</ele>
        <time>2026-05-16T13:02:42.800Z</time>
      </trkpt>
      <trkpt lat="49.45181" lon="1.41958">
        <ele>132</ele>
        <time>2026-05-16T13:02:47.456Z</time>
      </trkpt>
      <trkpt lat="49.4518" lon="1.41964">
        <ele>136</ele>
        <time>2026-05-16T13:02:51.756Z</time>
      </trkpt>
      <trkpt lat="49.4518" lon="1.4197">
        <ele>136</ele>
        <time>2026-05-16T13:02:56.776Z</time>
      </trkpt>
      <trkpt lat="49.4518" lon="1.41976">
        <ele>136</ele>
        <time>2026-05-16T13:03:00.800Z</time>
      </trkpt>
      <trkpt lat="49.4518" lon="1.41981">
        <ele>136</ele>
        <time>2026-05-16T13:03:05.116Z</time>
      </trkpt>
      <trkpt lat="49.4518" lon="1.41987">
        <ele>131</ele>
        <time>2026-05-16T13:03:09.385Z</time>
      </trkpt>
      <trkpt lat="49.4518" lon="1.41993">
        <ele>131</ele>
        <time>2026-05-16T13:03:13.558Z</time>
      </trkpt>
      <trkpt lat="49.45179" lon="1.41999">
        <ele>131</ele>
        <time>2026-05-16T13:03:17.598Z</time>
      </trkpt>
      <trkpt lat="49.45176" lon="1.42004">
        <ele>131</ele>
        <time>2026-05-16T13:03:21.802Z</time>
      </trkpt>
      <trkpt lat="49.45175" lon="1.4201">
        <ele>131</ele>
        <time>2026-05-16T13:03:26.014Z</time>
      </trkpt>
      <trkpt lat="49.45174" lon="1.42014">
        <ele>126</ele>
        <time>2026-05-16T13:03:30.034Z</time>
      </trkpt>
      <trkpt lat="49.45173" lon="1.42022">
        <ele>126</ele>
        <time>2026-05-16T13:03:34.801Z</time>
      </trkpt>
      <trkpt lat="49.45172" lon="1.42029">
        <ele>126</ele>
        <time>2026-05-16T13:03:38.996Z</time>
      </trkpt>
      <trkpt lat="49.45172" lon="1.42035">
        <ele>126</ele>
        <time>2026-05-16T13:03:43.279Z</time>
      </trkpt>
      <trkpt lat="49.45175" lon="1.42042">
        <ele>124</ele>
        <time>2026-05-16T13:03:47.633Z</time>
      </trkpt>
      <trkpt lat="49.45181" lon="1.42052">
        <ele>124</ele>
        <time>2026-05-16T13:08:40.800Z</time>
      </trkpt>
      <trkpt lat="49.45181" lon="1.42051">
        <ele>119</ele>
        <time>2026-05-16T13:08:45.800Z</time>
      </trkpt>
      <trkpt lat="49.45182" lon="1.42051">
        <ele>119</ele>
        <time>2026-05-16T13:08:50.179Z</time>
      </trkpt>
      <trkpt lat="49.45185" lon="1.42049">
        <ele>119</ele>
        <time>2026-05-16T13:08:54.593Z</time>
      </trkpt>
      <trkpt lat="49.4519" lon="1.42046">
        <ele>119</ele>
        <time>2026-05-16T13:08:58.755Z</time>
      </trkpt>
      <trkpt lat="49.45194" lon="1.42045">
        <ele>119</ele>
        <time>2026-05-16T13:09:02.800Z</time>
      </trkpt>
      <trkpt lat="49.45198" lon="1.42042">
        <ele>119</ele>
        <time>2026-05-16T13:09:07.136Z</time>
      </trkpt>
      <trkpt lat="49.45201" lon="1.42039">
        <ele>121</ele>
        <time>2026-05-16T13:09:11.253Z</time>
      </trkpt>
      <trkpt lat="49.45206" lon="1.42036">
        <ele>121</ele>
        <time>2026-05-16T13:09:15.395Z</time>
      </trkpt>
      <trkpt lat="49.4521" lon="1.42034">
        <ele>117</ele>
        <time>2026-05-16T13:09:19.556Z</time>
      </trkpt>
      <trkpt lat="49.45214" lon="1.42032">
        <ele>117</ele>
        <time>2026-05-16T13:09:23.576Z</time>
      </trkpt>
      <trkpt lat="49.45216" lon="1.42032">
        <ele>117</ele>
        <time>2026-05-16T13:09:27.718Z</time>
      </trkpt>
      <trkpt lat="49.45221" lon="1.4203">
        <ele>117</ele>
        <time>2026-05-16T13:09:32.379Z</time>
      </trkpt>
      <trkpt lat="49.45225" lon="1.42028">
        <ele>117</ele>
        <time>2026-05-16T13:09:36.463Z</time>
      </trkpt>
      <trkpt lat="49.45229" lon="1.42026">
        <ele>117</ele>
        <time>2026-05-16T13:09:40.515Z</time>
      </trkpt>
      <trkpt lat="49.45233" lon="1.42023">
        <ele>117</ele>
        <time>2026-05-16T13:09:44.800Z</time>
      </trkpt>
      <trkpt lat="49.45237" lon="1.4202">
        <ele>116</ele>
        <time>2026-05-16T13:09:49.275Z</time>
      </trkpt>
      <trkpt lat="49.45241" lon="1.42019">
        <ele>116</ele>
        <time>2026-05-16T13:09:53.295Z</time>
      </trkpt>
      <trkpt lat="49.45246" lon="1.42016">
        <ele>116</ele>
        <time>2026-05-16T13:09:57.297Z</time>
      </trkpt>
      <trkpt lat="49.45251" lon="1.42014">
        <ele>115</ele>
        <time>2026-05-16T13:10:01.800Z</time>
      </trkpt>
      <trkpt lat="49.45255" lon="1.42011">
        <ele>115</ele>
        <time>2026-05-16T13:10:05.934Z</time>
      </trkpt>
      <trkpt lat="49.4526" lon="1.42009">
        <ele>115</ele>
        <time>2026-05-16T13:10:10.059Z</time>
      </trkpt>
      <trkpt lat="49.45264" lon="1.42007">
        <ele>112</ele>
        <time>2026-05-16T13:10:14.273Z</time>
      </trkpt>
      <trkpt lat="49.45269" lon="1.42005">
        <ele>112</ele>
        <time>2026-05-16T13:10:18.416Z</time>
      </trkpt>
      <trkpt lat="49.45273" lon="1.42002">
        <ele>112</ele>
        <time>2026-05-16T13:10:22.514Z</time>
      </trkpt>
      <trkpt lat="49.45278" lon="1.42002">
        <ele>112</ele>
        <time>2026-05-16T13:10:26.595Z</time>
      </trkpt>
      <trkpt lat="49.45282" lon="1.42">
        <ele>112</ele>
        <time>2026-05-16T13:10:30.695Z</time>
      </trkpt>
      <trkpt lat="49.45285" lon="1.42">
        <ele>112</ele>
        <time>2026-05-16T13:10:34.800Z</time>
      </trkpt>
      <trkpt lat="49.4529" lon="1.41999">
        <ele>112</ele>
        <time>2026-05-16T13:10:39.015Z</time>
      </trkpt>
      <trkpt lat="49.45295" lon="1.41998">
        <ele>109</ele>
        <time>2026-05-16T13:10:43.272Z</time>
      </trkpt>
      <trkpt lat="49.453" lon="1.41997">
        <ele>109</ele>
        <time>2026-05-16T13:10:47.521Z</time>
      </trkpt>
      <trkpt lat="49.45305" lon="1.41998">
        <ele>109</ele>
        <time>2026-05-16T13:10:51.655Z</time>
      </trkpt>
      <trkpt lat="49.45309" lon="1.41999">
        <ele>109</ele>
        <time>2026-05-16T13:10:55.800Z</time>
      </trkpt>
      <trkpt lat="49.45314" lon="1.42">
        <ele>109</ele>
        <time>2026-05-16T13:11:00.115Z</time>
      </trkpt>
      <trkpt lat="49.45318" lon="1.42002">
        <ele>109</ele>
        <time>2026-05-16T13:11:04.320Z</time>
      </trkpt>
      <trkpt lat="49.45322" lon="1.42007">
        <ele>107</ele>
        <time>2026-05-16T13:11:08.376Z</time>
      </trkpt>
      <trkpt lat="49.45327" lon="1.4201">
        <ele>107</ele>
        <time>2026-05-16T13:11:12.474Z</time>
      </trkpt>
      <trkpt lat="49.45332" lon="1.42013">
        <ele>107</ele>
        <time>2026-05-16T13:11:16.598Z</time>
      </trkpt>
      <trkpt lat="49.45336" lon="1.42017">
        <ele>108</ele>
        <time>2026-05-16T13:11:20.699Z</time>
      </trkpt>
      <trkpt lat="49.45341" lon="1.4202">
        <ele>108</ele>
        <time>2026-05-16T13:11:24.800Z</time>
      </trkpt>
      <trkpt lat="49.45344" lon="1.42024">
        <ele>108</ele>
        <time>2026-05-16T13:11:29.222Z</time>
      </trkpt>
      <trkpt lat="49.45349" lon="1.42029">
        <ele>106</ele>
        <time>2026-05-16T13:11:33.636Z</time>
      </trkpt>
      <trkpt lat="49.45352" lon="1.42033">
        <ele>106</ele>
        <time>2026-05-16T13:11:37.800Z</time>
      </trkpt>
      <trkpt lat="49.45355" lon="1.42036">
        <ele>106</ele>
        <time>2026-05-16T13:11:41.974Z</time>
      </trkpt>
      <trkpt lat="49.45359" lon="1.4204">
        <ele>106</ele>
        <time>2026-05-16T13:11:46.178Z</time>
      </trkpt>
      <trkpt lat="49.45363" lon="1.42044">
        <ele>106</ele>
        <time>2026-05-16T13:11:50.233Z</time>
      </trkpt>
      <trkpt lat="49.45367" lon="1.42049">
        <ele>106</ele>
        <time>2026-05-16T13:11:54.516Z</time>
      </trkpt>
      <trkpt lat="49.45369" lon="1.42055">
        <ele>106</ele>
        <time>2026-05-16T13:11:58.800Z</time>
      </trkpt>
      <trkpt lat="49.45372" lon="1.4206">
        <ele>106</ele>
        <time>2026-05-16T13:12:03.153Z</time>
      </trkpt>
      <trkpt lat="49.45374" lon="1.42065">
        <ele>106</ele>
        <time>2026-05-16T13:12:07.393Z</time>
      </trkpt>
      <trkpt lat="49.45376" lon="1.42069">
        <ele>104</ele>
        <time>2026-05-16T13:12:11.536Z</time>
      </trkpt>
      <trkpt lat="49.45379" lon="1.42074">
        <ele>105</ele>
        <time>2026-05-16T13:12:15.696Z</time>
      </trkpt>
      <trkpt lat="49.4538" lon="1.42079">
        <ele>105</ele>
        <time>2026-05-16T13:12:19.795Z</time>
      </trkpt>
      <trkpt lat="49.45379" lon="1.42083">
        <ele>105</ele>
        <time>2026-05-16T13:12:24.437Z</time>
      </trkpt>
      <trkpt lat="49.45382" lon="1.42086">
        <ele>105</ele>
        <time>2026-05-16T13:12:28.800Z</time>
      </trkpt>
      <trkpt lat="49.45386" lon="1.42091">
        <ele>105</ele>
        <time>2026-05-16T13:12:32.800Z</time>
      </trkpt>
      <trkpt lat="49.45389" lon="1.42095">
        <ele>105</ele>
        <time>2026-05-16T13:12:37.454Z</time>
      </trkpt>
      <trkpt lat="49.45394" lon="1.421">
        <ele>106</ele>
        <time>2026-05-16T13:12:41.475Z</time>
      </trkpt>
      <trkpt lat="49.45396" lon="1.42107">
        <ele>106</ele>
        <time>2026-05-16T13:12:45.573Z</time>
      </trkpt>
      <trkpt lat="49.45398" lon="1.42115">
        <ele>106</ele>
        <time>2026-05-16T13:12:50.174Z</time>
      </trkpt>
      <trkpt lat="49.454" lon="1.42122">
        <ele>106</ele>
        <time>2026-05-16T13:12:54.282Z</time>
      </trkpt>
      <trkpt lat="49.45402" lon="1.42129">
        <ele>108</ele>
        <time>2026-05-16T13:12:58.319Z</time>
      </trkpt>
      <trkpt lat="49.45404" lon="1.42135">
        <ele>106</ele>
        <time>2026-05-16T13:13:02.376Z</time>
      </trkpt>
      <trkpt lat="49.45405" lon="1.42143">
        <ele>106</ele>
        <time>2026-05-16T13:13:06.534Z</time>
      </trkpt>
      <trkpt lat="49.45407" lon="1.42149">
        <ele>106</ele>
        <time>2026-05-16T13:13:11.054Z</time>
      </trkpt>
      <trkpt lat="49.45409" lon="1.42156">
        <ele>106</ele>
        <time>2026-05-16T13:13:15.557Z</time>
      </trkpt>
      <trkpt lat="49.45411" lon="1.42163">
        <ele>106</ele>
        <time>2026-05-16T13:13:19.623Z</time>
      </trkpt>
      <trkpt lat="49.45413" lon="1.42169">
        <ele>106</ele>
        <time>2026-05-16T13:13:23.693Z</time>
      </trkpt>
      <trkpt lat="49.45415" lon="1.42177">
        <ele>106</ele>
        <time>2026-05-16T13:13:28.274Z</time>
      </trkpt>
      <trkpt lat="49.45417" lon="1.42182">
        <ele>104</ele>
        <time>2026-05-16T13:13:32.313Z</time>
      </trkpt>
      <trkpt lat="49.45419" lon="1.42189">
        <ele>104</ele>
        <time>2026-05-16T13:13:36.377Z</time>
      </trkpt>
      <trkpt lat="49.4542" lon="1.42195">
        <ele>104</ele>
        <time>2026-05-16T13:13:40.441Z</time>
      </trkpt>
      <trkpt lat="49.45422" lon="1.42202">
        <ele>104</ele>
        <time>2026-05-16T13:13:44.557Z</time>
      </trkpt>
      <trkpt lat="49.45423" lon="1.42208">
        <ele>104</ele>
        <time>2026-05-16T13:13:48.720Z</time>
      </trkpt>
      <trkpt lat="49.45424" lon="1.42215">
        <ele>104</ele>
        <time>2026-05-16T13:13:52.755Z</time>
      </trkpt>
      <trkpt lat="49.45426" lon="1.42221">
        <ele>104</ele>
        <time>2026-05-16T13:13:56.800Z</time>
      </trkpt>
      <trkpt lat="49.45427" lon="1.42229">
        <ele>104</ele>
        <time>2026-05-16T13:14:01.478Z</time>
      </trkpt>
      <trkpt lat="49.45427" lon="1.42237">
        <ele>103</ele>
        <time>2026-05-16T13:14:05.753Z</time>
      </trkpt>
      <trkpt lat="49.45429" lon="1.42243">
        <ele>103</ele>
        <time>2026-05-16T13:14:09.800Z</time>
      </trkpt>
      <trkpt lat="49.45431" lon="1.4225">
        <ele>100</ele>
        <time>2026-05-16T13:14:14.013Z</time>
      </trkpt>
      <trkpt lat="49.45433" lon="1.42256">
        <ele>100</ele>
        <time>2026-05-16T13:14:18.156Z</time>
      </trkpt>
      <trkpt lat="49.45435" lon="1.42261">
        <ele>100</ele>
        <time>2026-05-16T13:14:22.176Z</time>
      </trkpt>
      <trkpt lat="49.45435" lon="1.42263">
        <ele>100</ele>
        <time>2026-05-16T13:14:26.800Z</time>
      </trkpt>
      <trkpt lat="49.45435" lon="1.42267">
        <ele>97</ele>
        <time>2026-05-16T13:14:31.659Z</time>
      </trkpt>
      <trkpt lat="49.45437" lon="1.42273">
        <ele>97</ele>
        <time>2026-05-16T13:14:35.800Z</time>
      </trkpt>
      <trkpt lat="49.45437" lon="1.42278">
        <ele>97</ele>
        <time>2026-05-16T13:14:40.033Z</time>
      </trkpt>
      <trkpt lat="49.4544" lon="1.42284">
        <ele>97</ele>
        <time>2026-05-16T13:14:44.176Z</time>
      </trkpt>
      <trkpt lat="49.45443" lon="1.42291">
        <ele>97</ele>
        <time>2026-05-16T13:14:48.538Z</time>
      </trkpt>
      <trkpt lat="49.45446" lon="1.42296">
        <ele>96</ele>
        <time>2026-05-16T13:14:52.619Z</time>
      </trkpt>
      <trkpt lat="49.45448" lon="1.42303">
        <ele>96</ele>
        <time>2026-05-16T13:14:56.800Z</time>
      </trkpt>
      <trkpt lat="49.45449" lon="1.4231">
        <ele>96</ele>
        <time>2026-05-16T13:15:01.115Z</time>
      </trkpt>
      <trkpt lat="49.45451" lon="1.42316">
        <ele>96</ele>
        <time>2026-05-16T13:15:05.135Z</time>
      </trkpt>
      <trkpt lat="49.45453" lon="1.42323">
        <ele>95</ele>
        <time>2026-05-16T13:15:09.453Z</time>
      </trkpt>
      <trkpt lat="49.45454" lon="1.42328">
        <ele>95</ele>
        <time>2026-05-16T13:15:13.754Z</time>
      </trkpt>
      <trkpt lat="49.45456" lon="1.42334">
        <ele>95</ele>
        <time>2026-05-16T13:15:18.117Z</time>
      </trkpt>
      <trkpt lat="49.45457" lon="1.42339">
        <ele>95</ele>
        <time>2026-05-16T13:15:22.716Z</time>
      </trkpt>
      <trkpt lat="49.45459" lon="1.42345">
        <ele>96</ele>
        <time>2026-05-16T13:15:27.096Z</time>
      </trkpt>
      <trkpt lat="49.45461" lon="1.42351">
        <ele>94</ele>
        <time>2026-05-16T13:15:31.273Z</time>
      </trkpt>
      <trkpt lat="49.45463" lon="1.42356">
        <ele>94</ele>
        <time>2026-05-16T13:15:35.800Z</time>
      </trkpt>
      <trkpt lat="49.45464" lon="1.42362">
        <ele>94</ele>
        <time>2026-05-16T13:15:40.113Z</time>
      </trkpt>
      <trkpt lat="49.45467" lon="1.42367">
        <ele>94</ele>
        <time>2026-05-16T13:15:44.475Z</time>
      </trkpt>
      <trkpt lat="49.45469" lon="1.42372">
        <ele>94</ele>
        <time>2026-05-16T13:15:48.800Z</time>
      </trkpt>
      <trkpt lat="49.45471" lon="1.42378">
        <ele>93</ele>
        <time>2026-05-16T13:15:53.199Z</time>
      </trkpt>
      <trkpt lat="49.45473" lon="1.42383">
        <ele>93</ele>
        <time>2026-05-16T13:15:57.580Z</time>
      </trkpt>
      <trkpt lat="49.45475" lon="1.42389">
        <ele>93</ele>
        <time>2026-05-16T13:16:01.800Z</time>
      </trkpt>
      <trkpt lat="49.45478" lon="1.42395">
        <ele>93</ele>
        <time>2026-05-16T13:16:06.119Z</time>
      </trkpt>
      <trkpt lat="49.4548" lon="1.42401">
        <ele>93</ele>
        <time>2026-05-16T13:16:10.343Z</time>
      </trkpt>
      <trkpt lat="49.45482" lon="1.42407">
        <ele>93</ele>
        <time>2026-05-16T13:16:14.388Z</time>
      </trkpt>
      <trkpt lat="49.45485" lon="1.42413">
        <ele>93</ele>
        <time>2026-05-16T13:16:18.715Z</time>
      </trkpt>
      <trkpt lat="49.45487" lon="1.42419">
        <ele>91</ele>
        <time>2026-05-16T13:16:22.953Z</time>
      </trkpt>
      <trkpt lat="49.45492" lon="1.42432">
        <ele>91</ele>
        <time>2026-05-16T13:16:45.800Z</time>
      </trkpt>
      <trkpt lat="49.45494" lon="1.42433">
        <ele>91</ele>
        <time>2026-05-16T13:16:50.479Z</time>
      </trkpt>
      <trkpt lat="49.455" lon="1.4244">
        <ele>91</ele>
        <time>2026-05-16T13:16:54.613Z</time>
      </trkpt>
      <trkpt lat="49.45504" lon="1.42445">
        <ele>91</ele>
        <time>2026-05-16T13:16:59.134Z</time>
      </trkpt>
      <trkpt lat="49.45508" lon="1.42453">
        <ele>91</ele>
        <time>2026-05-16T13:17:03.217Z</time>
      </trkpt>
      <trkpt lat="49.45512" lon="1.42459">
        <ele>92</ele>
        <time>2026-05-16T13:17:07.358Z</time>
      </trkpt>
      <trkpt lat="49.45514" lon="1.42466">
        <ele>90</ele>
        <time>2026-05-16T13:17:11.596Z</time>
      </trkpt>
      <trkpt lat="49.45516" lon="1.42468">
        <ele>90</ele>
        <time>2026-05-16T13:17:15.802Z</time>
      </trkpt>
      <trkpt lat="49.4552" lon="1.42476">
        <ele>90</ele>
        <time>2026-05-16T13:17:19.901Z</time>
      </trkpt>
      <trkpt lat="49.45523" lon="1.42484">
        <ele>90</ele>
        <time>2026-05-16T13:17:33.800Z</time>
      </trkpt>
      <trkpt lat="49.45525" lon="1.42487">
        <ele>92</ele>
        <time>2026-05-16T13:17:38.556Z</time>
      </trkpt>
      <trkpt lat="49.45528" lon="1.42492">
        <ele>92</ele>
        <time>2026-05-16T13:17:42.940Z</time>
      </trkpt>
      <trkpt lat="49.45532" lon="1.42498">
        <ele>92</ele>
        <time>2026-05-16T13:17:47.073Z</time>
      </trkpt>
      <trkpt lat="49.45533" lon="1.42499">
        <ele>92</ele>
        <time>2026-05-16T13:17:52.800Z</time>
      </trkpt>
      <trkpt lat="49.45531" lon="1.42502">
        <ele>92</ele>
        <time>2026-05-16T13:18:12.556Z</time>
      </trkpt>
      <trkpt lat="49.45535" lon="1.42508">
        <ele>92</ele>
        <time>2026-05-16T13:18:16.800Z</time>
      </trkpt>
      <trkpt lat="49.45537" lon="1.4251">
        <ele>92</ele>
        <time>2026-05-16T13:18:21.422Z</time>
      </trkpt>
      <trkpt lat="49.45539" lon="1.42515">
        <ele>95</ele>
        <time>2026-05-16T13:18:25.634Z</time>
      </trkpt>
      <trkpt lat="49.45543" lon="1.4252">
        <ele>93</ele>
        <time>2026-05-16T13:18:30.215Z</time>
      </trkpt>
      <trkpt lat="49.45546" lon="1.42523">
        <ele>93</ele>
        <time>2026-05-16T13:18:34.315Z</time>
      </trkpt>
      <trkpt lat="49.4555" lon="1.42526">
        <ele>93</ele>
        <time>2026-05-16T13:18:38.475Z</time>
      </trkpt>
      <trkpt lat="49.45553" lon="1.42532">
        <ele>93</ele>
        <time>2026-05-16T13:18:42.602Z</time>
      </trkpt>
      <trkpt lat="49.45556" lon="1.42536">
        <ele>93</ele>
        <time>2026-05-16T13:18:46.673Z</time>
      </trkpt>
      <trkpt lat="49.45561" lon="1.4254">
        <ele>93</ele>
        <time>2026-05-16T13:18:51.053Z</time>
      </trkpt>
      <trkpt lat="49.45565" lon="1.42543">
        <ele>97</ele>
        <time>2026-05-16T13:18:55.635Z</time>
      </trkpt>
      <trkpt lat="49.45567" lon="1.42549">
        <ele>97</ele>
        <time>2026-05-16T13:18:59.778Z</time>
      </trkpt>
      <trkpt lat="49.45571" lon="1.42554">
        <ele>93</ele>
        <time>2026-05-16T13:19:04.193Z</time>
      </trkpt>
      <trkpt lat="49.45575" lon="1.42556">
        <ele>93</ele>
        <time>2026-05-16T13:19:08.415Z</time>
      </trkpt>
      <trkpt lat="49.45579" lon="1.42561">
        <ele>93</ele>
        <time>2026-05-16T13:19:12.540Z</time>
      </trkpt>
      <trkpt lat="49.45582" lon="1.42567">
        <ele>93</ele>
        <time>2026-05-16T13:19:17.096Z</time>
      </trkpt>
      <trkpt lat="49.45584" lon="1.42573">
        <ele>95</ele>
        <time>2026-05-16T13:19:21.177Z</time>
      </trkpt>
      <trkpt lat="49.45587" lon="1.42579">
        <ele>95</ele>
        <time>2026-05-16T13:19:25.477Z</time>
      </trkpt>
      <trkpt lat="49.4559" lon="1.42585">
        <ele>95</ele>
        <time>2026-05-16T13:19:29.577Z</time>
      </trkpt>
      <trkpt lat="49.45593" lon="1.4259">
        <ele>95</ele>
        <time>2026-05-16T13:19:33.800Z</time>
      </trkpt>
      <trkpt lat="49.45593" lon="1.4259">
        <ele>95</ele>
        <time>2026-05-16T13:19:38.758Z</time>
      </trkpt>
      <trkpt lat="49.45594" lon="1.42592">
        <ele>95</ele>
        <time>2026-05-16T13:21:44.800Z</time>
      </trkpt>
      <trkpt lat="49.45595" lon="1.42591">
        <ele>95</ele>
        <time>2026-05-16T13:21:49.800Z</time>
      </trkpt>
      <trkpt lat="49.45595" lon="1.42592">
        <ele>95</ele>
        <time>2026-05-16T13:21:54.418Z</time>
      </trkpt>
      <trkpt lat="49.45597" lon="1.42595">
        <ele>95</ele>
        <time>2026-05-16T13:21:58.800Z</time>
      </trkpt>
      <trkpt lat="49.456" lon="1.42603">
        <ele>91</ele>
        <time>2026-05-16T13:22:03.240Z</time>
      </trkpt>
      <trkpt lat="49.456" lon="1.42609">
        <ele>91</ele>
        <time>2026-05-16T13:22:07.454Z</time>
      </trkpt>
      <trkpt lat="49.45601" lon="1.42614">
        <ele>91</ele>
        <time>2026-05-16T13:22:11.457Z</time>
      </trkpt>
      <trkpt lat="49.45599" lon="1.42622">
        <ele>91</ele>
        <time>2026-05-16T13:22:15.574Z</time>
      </trkpt>
      <trkpt lat="49.456" lon="1.4263">
        <ele>92</ele>
        <time>2026-05-16T13:22:19.800Z</time>
      </trkpt>
      <trkpt lat="49.456" lon="1.42634">
        <ele>92</ele>
        <time>2026-05-16T13:22:23.800Z</time>
      </trkpt>
      <trkpt lat="49.456" lon="1.42639">
        <ele>92</ele>
        <time>2026-05-16T13:22:28.461Z</time>
      </trkpt>
      <trkpt lat="49.45602" lon="1.4265">
        <ele>92</ele>
        <time>2026-05-16T13:22:32.973Z</time>
      </trkpt>
      <trkpt lat="49.45604" lon="1.42659">
        <ele>91</ele>
        <time>2026-05-16T13:22:37.493Z</time>
      </trkpt>
      <trkpt lat="49.45604" lon="1.42668">
        <ele>91</ele>
        <time>2026-05-16T13:22:41.997Z</time>
      </trkpt>
      <trkpt lat="49.45603" lon="1.42678">
        <ele>91</ele>
        <time>2026-05-16T13:22:46.394Z</time>
      </trkpt>
      <trkpt lat="49.45603" lon="1.42686">
        <ele>90</ele>
        <time>2026-05-16T13:22:50.776Z</time>
      </trkpt>
      <trkpt lat="49.45603" lon="1.42695">
        <ele>90</ele>
        <time>2026-05-16T13:22:55.234Z</time>
      </trkpt>
      <trkpt lat="49.45601" lon="1.42704">
        <ele>90</ele>
        <time>2026-05-16T13:22:59.693Z</time>
      </trkpt>
      <trkpt lat="49.456" lon="1.42713">
        <ele>89</ele>
        <time>2026-05-16T13:23:04.136Z</time>
      </trkpt>
      <trkpt lat="49.45598" lon="1.4272">
        <ele>89</ele>
        <time>2026-05-16T13:23:08.674Z</time>
      </trkpt>
      <trkpt lat="49.45597" lon="1.42728">
        <ele>96</ele>
        <time>2026-05-16T13:23:13.178Z</time>
      </trkpt>
      <trkpt lat="49.45596" lon="1.42737">
        <ele>94</ele>
        <time>2026-05-16T13:23:17.715Z</time>
      </trkpt>
      <trkpt lat="49.45595" lon="1.42744">
        <ele>94</ele>
        <time>2026-05-16T13:23:22.219Z</time>
      </trkpt>
      <trkpt lat="49.45594" lon="1.42752">
        <ele>94</ele>
        <time>2026-05-16T13:23:26.775Z</time>
      </trkpt>
      <trkpt lat="49.45592" lon="1.4276">
        <ele>94</ele>
        <time>2026-05-16T13:23:31.234Z</time>
      </trkpt>
      <trkpt lat="49.45591" lon="1.42768">
        <ele>92</ele>
        <time>2026-05-16T13:23:35.720Z</time>
      </trkpt>
      <trkpt lat="49.45589" lon="1.42775">
        <ele>92</ele>
        <time>2026-05-16T13:23:40.275Z</time>
      </trkpt>
      <trkpt lat="49.45587" lon="1.42782">
        <ele>92</ele>
        <time>2026-05-16T13:23:44.314Z</time>
      </trkpt>
      <trkpt lat="49.45586" lon="1.4279">
        <ele>92</ele>
        <time>2026-05-16T13:23:48.361Z</time>
      </trkpt>
      <trkpt lat="49.45585" lon="1.42796">
        <ele>90</ele>
        <time>2026-05-16T13:23:52.381Z</time>
      </trkpt>
      <trkpt lat="49.45583" lon="1.42804">
        <ele>90</ele>
        <time>2026-05-16T13:23:56.919Z</time>
      </trkpt>
      <trkpt lat="49.45582" lon="1.42811">
        <ele>90</ele>
        <time>2026-05-16T13:24:01.334Z</time>
      </trkpt>
      <trkpt lat="49.45581" lon="1.42818">
        <ele>90</ele>
        <time>2026-05-16T13:24:05.381Z</time>
      </trkpt>
      <trkpt lat="49.45579" lon="1.42826">
        <ele>89</ele>
        <time>2026-05-16T13:24:09.937Z</time>
      </trkpt>
      <trkpt lat="49.45578" lon="1.42834">
        <ele>89</ele>
        <time>2026-05-16T13:24:14.475Z</time>
      </trkpt>
      <trkpt lat="49.45576" lon="1.42842">
        <ele>89</ele>
        <time>2026-05-16T13:24:19.013Z</time>
      </trkpt>
      <trkpt lat="49.45573" lon="1.42842">
        <ele>89</ele>
        <time>2026-05-16T13:24:23.800Z</time>
      </trkpt>
      <trkpt lat="49.45572" lon="1.42848">
        <ele>87</ele>
        <time>2026-05-16T13:24:28.379Z</time>
      </trkpt>
      <trkpt lat="49.45571" lon="1.42855">
        <ele>87</ele>
        <time>2026-05-16T13:24:32.733Z</time>
      </trkpt>
      <trkpt lat="49.45572" lon="1.42861">
        <ele>87</ele>
        <time>2026-05-16T13:24:37.192Z</time>
      </trkpt>
      <trkpt lat="49.45572" lon="1.42867">
        <ele>87</ele>
        <time>2026-05-16T13:24:41.275Z</time>
      </trkpt>
      <trkpt lat="49.4557" lon="1.42874">
        <ele>87</ele>
        <time>2026-05-16T13:24:45.312Z</time>
      </trkpt>
      <trkpt lat="49.45569" lon="1.42882">
        <ele>93</ele>
        <time>2026-05-16T13:24:49.394Z</time>
      </trkpt>
      <trkpt lat="49.45569" lon="1.42889">
        <ele>93</ele>
        <time>2026-05-16T13:24:53.555Z</time>
      </trkpt>
      <trkpt lat="49.45568" lon="1.42896">
        <ele>93</ele>
        <time>2026-05-16T13:24:57.637Z</time>
      </trkpt>
      <trkpt lat="49.45569" lon="1.42903">
        <ele>94</ele>
        <time>2026-05-16T13:25:01.800Z</time>
      </trkpt>
      <trkpt lat="49.45568" lon="1.4291">
        <ele>94</ele>
        <time>2026-05-16T13:25:06.256Z</time>
      </trkpt>
      <trkpt lat="49.4557" lon="1.42916">
        <ele>88</ele>
        <time>2026-05-16T13:25:10.276Z</time>
      </trkpt>
      <trkpt lat="49.45571" lon="1.42925">
        <ele>88</ele>
        <time>2026-05-16T13:25:14.534Z</time>
      </trkpt>
      <trkpt lat="49.45572" lon="1.42933">
        <ele>89</ele>
        <time>2026-05-16T13:25:18.695Z</time>
      </trkpt>
      <trkpt lat="49.45571" lon="1.42939">
        <ele>89</ele>
        <time>2026-05-16T13:25:22.800Z</time>
      </trkpt>
      <trkpt lat="49.45573" lon="1.42947">
        <ele>89</ele>
        <time>2026-05-16T13:25:26.956Z</time>
      </trkpt>
      <trkpt lat="49.45574" lon="1.42955">
        <ele>89</ele>
        <time>2026-05-16T13:25:30.976Z</time>
      </trkpt>
      <trkpt lat="49.45576" lon="1.42962">
        <ele>92</ele>
        <time>2026-05-16T13:25:35.014Z</time>
      </trkpt>
      <trkpt lat="49.45578" lon="1.42969">
        <ele>92</ele>
        <time>2026-05-16T13:25:39.061Z</time>
      </trkpt>
      <trkpt lat="49.45579" lon="1.42977">
        <ele>92</ele>
        <time>2026-05-16T13:25:43.101Z</time>
      </trkpt>
      <trkpt lat="49.45581" lon="1.42984">
        <ele>92</ele>
        <time>2026-05-16T13:25:47.198Z</time>
      </trkpt>
      <trkpt lat="49.45582" lon="1.42992">
        <ele>95</ele>
        <time>2026-05-16T13:25:51.315Z</time>
      </trkpt>
      <trkpt lat="49.45583" lon="1.42999">
        <ele>95</ele>
        <time>2026-05-16T13:25:55.380Z</time>
      </trkpt>
      <trkpt lat="49.45584" lon="1.43006">
        <ele>95</ele>
        <time>2026-05-16T13:25:59.497Z</time>
      </trkpt>
      <trkpt lat="49.45585" lon="1.43014">
        <ele>95</ele>
        <time>2026-05-16T13:26:03.562Z</time>
      </trkpt>
      <trkpt lat="49.45586" lon="1.43021">
        <ele>96</ele>
        <time>2026-05-16T13:26:07.617Z</time>
      </trkpt>
      <trkpt lat="49.45588" lon="1.43028">
        <ele>96</ele>
        <time>2026-05-16T13:26:11.681Z</time>
      </trkpt>
      <trkpt lat="49.45589" lon="1.43035">
        <ele>96</ele>
        <time>2026-05-16T13:26:15.973Z</time>
      </trkpt>
      <trkpt lat="49.4559" lon="1.43036">
        <ele>96</ele>
        <time>2026-05-16T13:26:21.800Z</time>
      </trkpt>
      <trkpt lat="49.4559" lon="1.43036">
        <ele>96</ele>
        <time>2026-05-16T13:26:26.800Z</time>
      </trkpt>
      <trkpt lat="49.4559" lon="1.43043">
        <ele>97</ele>
        <time>2026-05-16T13:26:31.215Z</time>
      </trkpt>
      <trkpt lat="49.4559" lon="1.43052">
        <ele>97</ele>
        <time>2026-05-16T13:26:35.355Z</time>
      </trkpt>
      <trkpt lat="49.45591" lon="1.4306">
        <ele>97</ele>
        <time>2026-05-16T13:26:39.420Z</time>
      </trkpt>
      <trkpt lat="49.45592" lon="1.43067">
        <ele>97</ele>
        <time>2026-05-16T13:26:43.537Z</time>
      </trkpt>
      <trkpt lat="49.45593" lon="1.43075">
        <ele>97</ele>
        <time>2026-05-16T13:26:48.014Z</time>
      </trkpt>
      <trkpt lat="49.45594" lon="1.4308">
        <ele>97</ele>
        <time>2026-05-16T13:26:52.157Z</time>
      </trkpt>
      <trkpt lat="49.45596" lon="1.43081">
        <ele>97</ele>
        <time>2026-05-16T13:26:57.800Z</time>
      </trkpt>
      <trkpt lat="49.45596" lon="1.43081">
        <ele>97</ele>
        <time>2026-05-16T13:27:02.800Z</time>
      </trkpt>
      <trkpt lat="49.45596" lon="1.43082">
        <ele>97</ele>
        <time>2026-05-16T13:27:07.194Z</time>
      </trkpt>
      <trkpt lat="49.45596" lon="1.43088">
        <ele>97</ele>
        <time>2026-05-16T13:27:11.777Z</time>
      </trkpt>
      <trkpt lat="49.45597" lon="1.43097">
        <ele>92</ele>
        <time>2026-05-16T13:27:15.800Z</time>
      </trkpt>
      <trkpt lat="49.45598" lon="1.43106">
        <ele>92</ele>
        <time>2026-05-16T13:27:20.441Z</time>
      </trkpt>
      <trkpt lat="49.45599" lon="1.43113">
        <ele>92</ele>
        <time>2026-05-16T13:27:24.478Z</time>
      </trkpt>
      <trkpt lat="49.456" lon="1.43117">
        <ele>92</ele>
        <time>2026-05-16T13:27:28.595Z</time>
      </trkpt>
      <trkpt lat="49.45603" lon="1.43123">
        <ele>92</ele>
        <time>2026-05-16T13:27:33.195Z</time>
      </trkpt>
      <trkpt lat="49.45607" lon="1.43126">
        <ele>91</ele>
        <time>2026-05-16T13:27:37.576Z</time>
      </trkpt>
      <trkpt lat="49.45608" lon="1.43132">
        <ele>91</ele>
        <time>2026-05-16T13:27:41.800Z</time>
      </trkpt>
      <trkpt lat="49.45607" lon="1.43132">
        <ele>91</ele>
        <time>2026-05-16T13:27:46.134Z</time>
      </trkpt>
      <trkpt lat="49.45606" lon="1.43134">
        <ele>91</ele>
        <time>2026-05-16T13:27:50.340Z</time>
      </trkpt>
      <trkpt lat="49.45607" lon="1.43142">
        <ele>91</ele>
        <time>2026-05-16T13:27:54.800Z</time>
      </trkpt>
      <trkpt lat="49.45608" lon="1.43146">
        <ele>91</ele>
        <time>2026-05-16T13:28:11.178Z</time>
      </trkpt>
      <trkpt lat="49.45608" lon="1.43154">
        <ele>92</ele>
        <time>2026-05-16T13:28:15.479Z</time>
      </trkpt>
      <trkpt lat="49.45608" lon="1.43164">
        <ele>92</ele>
        <time>2026-05-16T13:28:19.800Z</time>
      </trkpt>
      <trkpt lat="49.45608" lon="1.43171">
        <ele>92</ele>
        <time>2026-05-16T13:28:24.057Z</time>
      </trkpt>
      <trkpt lat="49.45607" lon="1.43179">
        <ele>92</ele>
        <time>2026-05-16T13:28:28.497Z</time>
      </trkpt>
      <trkpt lat="49.45609" lon="1.43181">
        <ele>93</ele>
        <time>2026-05-16T13:29:01.800Z</time>
      </trkpt>
      <trkpt lat="49.45607" lon="1.43186">
        <ele>93</ele>
        <time>2026-05-16T13:29:06.210Z</time>
      </trkpt>
      <trkpt lat="49.45607" lon="1.43195">
        <ele>93</ele>
        <time>2026-05-16T13:29:10.694Z</time>
      </trkpt>
      <trkpt lat="49.4561" lon="1.43203">
        <ele>93</ele>
        <time>2026-05-16T13:29:15.152Z</time>
      </trkpt>
      <trkpt lat="49.45612" lon="1.43211">
        <ele>94</ele>
        <time>2026-05-16T13:29:19.501Z</time>
      </trkpt>
      <trkpt lat="49.45614" lon="1.43217">
        <ele>94</ele>
        <time>2026-05-16T13:29:23.800Z</time>
      </trkpt>
      <trkpt lat="49.45614" lon="1.43226">
        <ele>94</ele>
        <time>2026-05-16T13:29:28.338Z</time>
      </trkpt>
      <trkpt lat="49.45614" lon="1.43232">
        <ele>94</ele>
        <time>2026-05-16T13:29:32.560Z</time>
      </trkpt>
      <trkpt lat="49.45615" lon="1.43242">
        <ele>93</ele>
        <time>2026-05-16T13:29:37.054Z</time>
      </trkpt>
      <trkpt lat="49.45615" lon="1.4325">
        <ele>93</ele>
        <time>2026-05-16T13:29:41.453Z</time>
      </trkpt>
      <trkpt lat="49.45614" lon="1.43259">
        <ele>93</ele>
        <time>2026-05-16T13:29:45.800Z</time>
      </trkpt>
      <trkpt lat="49.45613" lon="1.43268">
        <ele>93</ele>
        <time>2026-05-16T13:29:50.337Z</time>
      </trkpt>
      <trkpt lat="49.45612" lon="1.43277">
        <ele>93</ele>
        <time>2026-05-16T13:29:54.778Z</time>
      </trkpt>
      <trkpt lat="49.45612" lon="1.43286">
        <ele>93</ele>
        <time>2026-05-16T13:29:59.223Z</time>
      </trkpt>
      <trkpt lat="49.4561" lon="1.43291">
        <ele>93</ele>
        <time>2026-05-16T13:30:03.800Z</time>
      </trkpt>
      <trkpt lat="49.45608" lon="1.43295">
        <ele>93</ele>
        <time>2026-05-16T13:30:08.095Z</time>
      </trkpt>
      <trkpt lat="49.45609" lon="1.43299">
        <ele>93</ele>
        <time>2026-05-16T13:30:12.800Z</time>
      </trkpt>
      <trkpt lat="49.45609" lon="1.43298">
        <ele>93</ele>
        <time>2026-05-16T13:30:17.322Z</time>
      </trkpt>
      <trkpt lat="49.45608" lon="1.43298">
        <ele>93</ele>
        <time>2026-05-16T13:30:25.494Z</time>
      </trkpt>
      <trkpt lat="49.45608" lon="1.43299">
        <ele>93</ele>
        <time>2026-05-16T13:30:29.800Z</time>
      </trkpt>
      <trkpt lat="49.45608" lon="1.43305">
        <ele>93</ele>
        <time>2026-05-16T13:30:34.074Z</time>
      </trkpt>
      <trkpt lat="49.45608" lon="1.43315">
        <ele>93</ele>
        <time>2026-05-16T13:30:38.499Z</time>
      </trkpt>
      <trkpt lat="49.45608" lon="1.43319">
        <ele>93</ele>
        <time>2026-05-16T13:30:42.556Z</time>
      </trkpt>
      <trkpt lat="49.45607" lon="1.43329">
        <ele>94</ele>
        <time>2026-05-16T13:30:47.093Z</time>
      </trkpt>
      <trkpt lat="49.45607" lon="1.43336">
        <ele>94</ele>
        <time>2026-05-16T13:30:51.158Z</time>
      </trkpt>
      <trkpt lat="49.45607" lon="1.43344">
        <ele>94</ele>
        <time>2026-05-16T13:30:55.293Z</time>
      </trkpt>
      <trkpt lat="49.45607" lon="1.43352">
        <ele>94</ele>
        <time>2026-05-16T13:30:59.735Z</time>
      </trkpt>
      <trkpt lat="49.45608" lon="1.4336">
        <ele>94</ele>
        <time>2026-05-16T13:31:04.275Z</time>
      </trkpt>
      <trkpt lat="49.45608" lon="1.43369">
        <ele>94</ele>
        <time>2026-05-16T13:31:08.795Z</time>
      </trkpt>
      <trkpt lat="49.45609" lon="1.43378">
        <ele>94</ele>
        <time>2026-05-16T13:31:13.377Z</time>
      </trkpt>
      <trkpt lat="49.45608" lon="1.43386">
        <ele>94</ele>
        <time>2026-05-16T13:31:17.800Z</time>
      </trkpt>
      <trkpt lat="49.45609" lon="1.43393">
        <ele>94</ele>
        <time>2026-05-16T13:31:21.800Z</time>
      </trkpt>
      <trkpt lat="49.45609" lon="1.43401">
        <ele>94</ele>
        <time>2026-05-16T13:31:26.317Z</time>
      </trkpt>
      <trkpt lat="49.45609" lon="1.43409">
        <ele>94</ele>
        <time>2026-05-16T13:31:30.800Z</time>
      </trkpt>
      <trkpt lat="49.45609" lon="1.43418">
        <ele>94</ele>
        <time>2026-05-16T13:31:35.333Z</time>
      </trkpt>
      <trkpt lat="49.45609" lon="1.43426">
        <ele>94</ele>
        <time>2026-05-16T13:31:39.354Z</time>
      </trkpt>
      <trkpt lat="49.45608" lon="1.43434">
        <ele>94</ele>
        <time>2026-05-16T13:31:43.800Z</time>
      </trkpt>
      <trkpt lat="49.45607" lon="1.43443">
        <ele>94</ele>
        <time>2026-05-16T13:31:48.439Z</time>
      </trkpt>
      <trkpt lat="49.45607" lon="1.43451">
        <ele>94</ele>
        <time>2026-05-16T13:31:52.978Z</time>
      </trkpt>
      <trkpt lat="49.45606" lon="1.4346">
        <ele>94</ele>
        <time>2026-05-16T13:31:57.499Z</time>
      </trkpt>
      <trkpt lat="49.45605" lon="1.43468">
        <ele>94</ele>
        <time>2026-05-16T13:32:02.055Z</time>
      </trkpt>
      <trkpt lat="49.45604" lon="1.43476">
        <ele>94</ele>
        <time>2026-05-16T13:32:06.533Z</time>
      </trkpt>
      <trkpt lat="49.45603" lon="1.43483">
        <ele>94</ele>
        <time>2026-05-16T13:32:10.553Z</time>
      </trkpt>
      <trkpt lat="49.45602" lon="1.4349">
        <ele>95</ele>
        <time>2026-05-16T13:32:14.556Z</time>
      </trkpt>
      <trkpt lat="49.456" lon="1.43498">
        <ele>95</ele>
        <time>2026-05-16T13:32:19.033Z</time>
      </trkpt>
      <trkpt lat="49.456" lon="1.43507">
        <ele>95</ele>
        <time>2026-05-16T13:32:23.598Z</time>
      </trkpt>
      <trkpt lat="49.45599" lon="1.43516">
        <ele>95</ele>
        <time>2026-05-16T13:32:28.075Z</time>
      </trkpt>
      <trkpt lat="49.45598" lon="1.43524">
        <ele>95</ele>
        <time>2026-05-16T13:32:32.614Z</time>
      </trkpt>
      <trkpt lat="49.45597" lon="1.43532">
        <ele>94</ele>
        <time>2026-05-16T13:32:37.152Z</time>
      </trkpt>
      <trkpt lat="49.45597" lon="1.43541">
        <ele>94</ele>
        <time>2026-05-16T13:32:41.656Z</time>
      </trkpt>
      <trkpt lat="49.45597" lon="1.43549">
        <ele>94</ele>
        <time>2026-05-16T13:32:46.177Z</time>
      </trkpt>
      <trkpt lat="49.45597" lon="1.43559">
        <ele>94</ele>
        <time>2026-05-16T13:32:50.654Z</time>
      </trkpt>
      <trkpt lat="49.45597" lon="1.43568">
        <ele>94</ele>
        <time>2026-05-16T13:32:55.254Z</time>
      </trkpt>
      <trkpt lat="49.45597" lon="1.43576">
        <ele>96</ele>
        <time>2026-05-16T13:32:59.757Z</time>
      </trkpt>
      <trkpt lat="49.45598" lon="1.43585">
        <ele>96</ele>
        <time>2026-05-16T13:33:04.233Z</time>
      </trkpt>
      <trkpt lat="49.45599" lon="1.43594">
        <ele>96</ele>
        <time>2026-05-16T13:33:08.755Z</time>
      </trkpt>
      <trkpt lat="49.45599" lon="1.43602">
        <ele>97</ele>
        <time>2026-05-16T13:33:12.800Z</time>
      </trkpt>
      <trkpt lat="49.45599" lon="1.4361">
        <ele>97</ele>
        <time>2026-05-16T13:33:17.483Z</time>
      </trkpt>
      <trkpt lat="49.45599" lon="1.43618">
        <ele>97</ele>
        <time>2026-05-16T13:33:21.520Z</time>
      </trkpt>
      <trkpt lat="49.45599" lon="1.43626">
        <ele>97</ele>
        <time>2026-05-16T13:33:25.540Z</time>
      </trkpt>
      <trkpt lat="49.45599" lon="1.43634">
        <ele>97</ele>
        <time>2026-05-16T13:33:30.078Z</time>
      </trkpt>
      <trkpt lat="49.45599" lon="1.43643">
        <ele>97</ele>
        <time>2026-05-16T13:33:34.538Z</time>
      </trkpt>
      <trkpt lat="49.456" lon="1.43651">
        <ele>97</ele>
        <time>2026-05-16T13:33:39.032Z</time>
      </trkpt>
      <trkpt lat="49.45599" lon="1.4366">
        <ele>96</ele>
        <time>2026-05-16T13:33:43.518Z</time>
      </trkpt>
      <trkpt lat="49.45599" lon="1.43669">
        <ele>96</ele>
        <time>2026-05-16T13:33:48.039Z</time>
      </trkpt>
      <trkpt lat="49.45598" lon="1.43678">
        <ele>96</ele>
        <time>2026-05-16T13:33:52.499Z</time>
      </trkpt>
      <trkpt lat="49.45598" lon="1.43687">
        <ele>95</ele>
        <time>2026-05-16T13:33:56.993Z</time>
      </trkpt>
      <trkpt lat="49.45597" lon="1.43695">
        <ele>95</ele>
        <time>2026-05-16T13:34:01.479Z</time>
      </trkpt>
      <trkpt lat="49.45597" lon="1.43703">
        <ele>95</ele>
        <time>2026-05-16T13:34:05.939Z</time>
      </trkpt>
      <trkpt lat="49.45597" lon="1.43712">
        <ele>94</ele>
        <time>2026-05-16T13:34:10.433Z</time>
      </trkpt>
      <trkpt lat="49.45596" lon="1.4372">
        <ele>94</ele>
        <time>2026-05-16T13:34:14.454Z</time>
      </trkpt>
      <trkpt lat="49.45595" lon="1.43728">
        <ele>94</ele>
        <time>2026-05-16T13:34:18.941Z</time>
      </trkpt>
      <trkpt lat="49.45594" lon="1.43737">
        <ele>94</ele>
        <time>2026-05-16T13:34:23.461Z</time>
      </trkpt>
      <trkpt lat="49.45593" lon="1.43746">
        <ele>94</ele>
        <time>2026-05-16T13:34:27.920Z</time>
      </trkpt>
      <trkpt lat="49.45593" lon="1.43755">
        <ele>94</ele>
        <time>2026-05-16T13:34:32.415Z</time>
      </trkpt>
      <trkpt lat="49.45592" lon="1.43764">
        <ele>94</ele>
        <time>2026-05-16T13:34:36.936Z</time>
      </trkpt>
      <trkpt lat="49.45592" lon="1.43772">
        <ele>94</ele>
        <time>2026-05-16T13:34:41.413Z</time>
      </trkpt>
      <trkpt lat="49.45591" lon="1.43781">
        <ele>94</ele>
        <time>2026-05-16T13:34:45.800Z</time>
      </trkpt>
      <trkpt lat="49.4559" lon="1.43788">
        <ele>94</ele>
        <time>2026-05-16T13:34:49.800Z</time>
      </trkpt>
      <trkpt lat="49.4559" lon="1.43797">
        <ele>95</ele>
        <time>2026-05-16T13:34:54.301Z</time>
      </trkpt>
      <trkpt lat="49.45588" lon="1.43806">
        <ele>95</ele>
        <time>2026-05-16T13:34:58.800Z</time>
      </trkpt>
      <trkpt lat="49.45587" lon="1.43814">
        <ele>95</ele>
        <time>2026-05-16T13:35:03.315Z</time>
      </trkpt>
      <trkpt lat="49.45586" lon="1.43823">
        <ele>96</ele>
        <time>2026-05-16T13:35:07.800Z</time>
      </trkpt>
      <trkpt lat="49.45585" lon="1.43831">
        <ele>96</ele>
        <time>2026-05-16T13:35:12.577Z</time>
      </trkpt>
      <trkpt lat="49.45588" lon="1.43832">
        <ele>96</ele>
        <time>2026-05-16T13:35:17.800Z</time>
      </trkpt>
      <trkpt lat="49.45587" lon="1.43836">
        <ele>96</ele>
        <time>2026-05-16T13:35:22.339Z</time>
      </trkpt>
      <trkpt lat="49.45585" lon="1.43845">
        <ele>96</ele>
        <time>2026-05-16T13:35:26.800Z</time>
      </trkpt>
      <trkpt lat="49.45583" lon="1.43852">
        <ele>97</ele>
        <time>2026-05-16T13:35:30.800Z</time>
      </trkpt>
      <trkpt lat="49.45578" lon="1.43857">
        <ele>97</ele>
        <time>2026-05-16T13:35:35.015Z</time>
      </trkpt>
      <trkpt lat="49.45577" lon="1.43866">
        <ele>97</ele>
        <time>2026-05-16T13:35:39.457Z</time>
      </trkpt>
      <trkpt lat="49.45576" lon="1.43875">
        <ele>97</ele>
        <time>2026-05-16T13:35:43.995Z</time>
      </trkpt>
      <trkpt lat="49.45575" lon="1.43882">
        <ele>99</ele>
        <time>2026-05-16T13:35:48.420Z</time>
      </trkpt>
      <trkpt lat="49.45575" lon="1.43889">
        <ele>99</ele>
        <time>2026-05-16T13:35:52.957Z</time>
      </trkpt>
      <trkpt lat="49.45574" lon="1.43894">
        <ele>99</ele>
        <time>2026-05-16T13:35:57.374Z</time>
      </trkpt>
      <trkpt lat="49.45572" lon="1.43905">
        <ele>100</ele>
        <time>2026-05-16T13:36:01.916Z</time>
      </trkpt>
      <trkpt lat="49.45571" lon="1.43913">
        <ele>100</ele>
        <time>2026-05-16T13:36:06.394Z</time>
      </trkpt>
      <trkpt lat="49.45569" lon="1.43922">
        <ele>98</ele>
        <time>2026-05-16T13:36:10.915Z</time>
      </trkpt>
      <trkpt lat="49.45568" lon="1.43931">
        <ele>98</ele>
        <time>2026-05-16T13:36:15.454Z</time>
      </trkpt>
      <trkpt lat="49.45567" lon="1.43939">
        <ele>98</ele>
        <time>2026-05-16T13:36:19.940Z</time>
      </trkpt>
      <trkpt lat="49.45566" lon="1.43948">
        <ele>98</ele>
        <time>2026-05-16T13:36:24.513Z</time>
      </trkpt>
      <trkpt lat="49.45564" lon="1.43956">
        <ele>98</ele>
        <time>2026-05-16T13:36:29.079Z</time>
      </trkpt>
      <trkpt lat="49.45562" lon="1.43964">
        <ele>98</ele>
        <time>2026-05-16T13:36:33.538Z</time>
      </trkpt>
      <trkpt lat="49.4556" lon="1.43972">
        <ele>98</ele>
        <time>2026-05-16T13:36:38.076Z</time>
      </trkpt>
      <trkpt lat="49.45559" lon="1.43978">
        <ele>98</ele>
        <time>2026-05-16T13:36:42.694Z</time>
      </trkpt>
      <trkpt lat="49.45557" lon="1.43988">
        <ele>98</ele>
        <time>2026-05-16T13:36:47.180Z</time>
      </trkpt>
      <trkpt lat="49.45555" lon="1.43997">
        <ele>98</ele>
        <time>2026-05-16T13:36:51.753Z</time>
      </trkpt>
      <trkpt lat="49.45553" lon="1.44004">
        <ele>98</ele>
        <time>2026-05-16T13:36:55.774Z</time>
      </trkpt>
      <trkpt lat="49.45551" lon="1.44013">
        <ele>98</ele>
        <time>2026-05-16T13:37:00.260Z</time>
      </trkpt>
      <trkpt lat="49.45549" lon="1.44022">
        <ele>99</ele>
        <time>2026-05-16T13:37:04.755Z</time>
      </trkpt>
      <trkpt lat="49.45545" lon="1.44029">
        <ele>99</ele>
        <time>2026-05-16T13:37:09.320Z</time>
      </trkpt>
      <trkpt lat="49.45542" lon="1.44037">
        <ele>99</ele>
        <time>2026-05-16T13:37:13.780Z</time>
      </trkpt>
      <trkpt lat="49.45538" lon="1.44044">
        <ele>98</ele>
        <time>2026-05-16T13:37:18.336Z</time>
      </trkpt>
      <trkpt lat="49.45535" lon="1.44053">
        <ele>98</ele>
        <time>2026-05-16T13:37:22.800Z</time>
      </trkpt>
      <trkpt lat="49.45532" lon="1.44058">
        <ele>98</ele>
        <time>2026-05-16T13:37:26.800Z</time>
      </trkpt>
      <trkpt lat="49.45528" lon="1.44065">
        <ele>98</ele>
        <time>2026-05-16T13:37:31.399Z</time>
      </trkpt>
      <trkpt lat="49.45524" lon="1.44072">
        <ele>99</ele>
        <time>2026-05-16T13:37:35.800Z</time>
      </trkpt>
      <trkpt lat="49.4552" lon="1.44078">
        <ele>99</ele>
        <time>2026-05-16T13:37:40.441Z</time>
      </trkpt>
      <trkpt lat="49.45516" lon="1.44085">
        <ele>99</ele>
        <time>2026-05-16T13:37:44.979Z</time>
      </trkpt>
      <trkpt lat="49.45512" lon="1.44091">
        <ele>98</ele>
        <time>2026-05-16T13:37:49.474Z</time>
      </trkpt>
      <trkpt lat="49.45508" lon="1.44096">
        <ele>98</ele>
        <time>2026-05-16T13:37:53.855Z</time>
      </trkpt>
      <trkpt lat="49.45503" lon="1.44099">
        <ele>100</ele>
        <time>2026-05-16T13:37:57.875Z</time>
      </trkpt>
      <trkpt lat="49.45501" lon="1.44105">
        <ele>100</ele>
        <time>2026-05-16T13:38:02.272Z</time>
      </trkpt>
      <trkpt lat="49.45498" lon="1.44108">
        <ele>100</ele>
        <time>2026-05-16T13:38:06.800Z</time>
      </trkpt>
      <trkpt lat="49.45494" lon="1.44109">
        <ele>100</ele>
        <time>2026-05-16T13:39:37.800Z</time>
      </trkpt>
      <trkpt lat="49.45494" lon="1.44109">
        <ele>100</ele>
        <time>2026-05-16T13:40:00.800Z</time>
      </trkpt>
      <trkpt lat="49.45494" lon="1.4411">
        <ele>100</ele>
        <time>2026-05-16T13:40:08.800Z</time>
      </trkpt>
      <trkpt lat="49.45493" lon="1.44112">
        <ele>100</ele>
        <time>2026-05-16T13:40:13.800Z</time>
      </trkpt>
      <trkpt lat="49.45489" lon="1.44118">
        <ele>100</ele>
        <time>2026-05-16T13:40:18.800Z</time>
      </trkpt>
      <trkpt lat="49.45484" lon="1.44123">
        <ele>99</ele>
        <time>2026-05-16T13:40:23.800Z</time>
      </trkpt>
      <trkpt lat="49.45481" lon="1.44128">
        <ele>100</ele>
        <time>2026-05-16T13:40:28.135Z</time>
      </trkpt>
      <trkpt lat="49.45477" lon="1.44132">
        <ele>100</ele>
        <time>2026-05-16T13:40:32.435Z</time>
      </trkpt>
      <trkpt lat="49.45474" lon="1.44136">
        <ele>100</ele>
        <time>2026-05-16T13:40:36.614Z</time>
      </trkpt>
      <trkpt lat="49.4547" lon="1.44141">
        <ele>100</ele>
        <time>2026-05-16T13:40:40.679Z</time>
      </trkpt>
      <trkpt lat="49.45466" lon="1.44145">
        <ele>100</ele>
        <time>2026-05-16T13:40:44.734Z</time>
      </trkpt>
      <trkpt lat="49.45462" lon="1.4415">
        <ele>100</ele>
        <time>2026-05-16T13:40:48.737Z</time>
      </trkpt>
      <trkpt lat="49.45458" lon="1.44155">
        <ele>100</ele>
        <time>2026-05-16T13:40:52.775Z</time>
      </trkpt>
      <trkpt lat="49.45454" lon="1.44158">
        <ele>100</ele>
        <time>2026-05-16T13:40:56.796Z</time>
      </trkpt>
      <trkpt lat="49.4545" lon="1.44164">
        <ele>100</ele>
        <time>2026-05-16T13:41:01.492Z</time>
      </trkpt>
      <trkpt lat="49.45445" lon="1.44168">
        <ele>100</ele>
        <time>2026-05-16T13:41:06.057Z</time>
      </trkpt>
      <trkpt lat="49.4544" lon="1.44173">
        <ele>100</ele>
        <time>2026-05-16T13:41:10.614Z</time>
      </trkpt>
      <trkpt lat="49.45436" lon="1.44178">
        <ele>100</ele>
        <time>2026-05-16T13:41:15.179Z</time>
      </trkpt>
      <trkpt lat="49.45432" lon="1.44183">
        <ele>101</ele>
        <time>2026-05-16T13:41:19.234Z</time>
      </trkpt>
      <trkpt lat="49.45428" lon="1.44188">
        <ele>100</ele>
        <time>2026-05-16T13:41:23.272Z</time>
      </trkpt>
      <trkpt lat="49.45424" lon="1.44193">
        <ele>100</ele>
        <time>2026-05-16T13:41:27.354Z</time>
      </trkpt>
      <trkpt lat="49.4542" lon="1.44197">
        <ele>100</ele>
        <time>2026-05-16T13:41:31.455Z</time>
      </trkpt>
      <trkpt lat="49.45416" lon="1.44202">
        <ele>100</ele>
        <time>2026-05-16T13:41:35.536Z</time>
      </trkpt>
      <trkpt lat="49.45412" lon="1.44207">
        <ele>100</ele>
        <time>2026-05-16T13:41:39.574Z</time>
      </trkpt>
      <trkpt lat="49.45409" lon="1.44212">
        <ele>100</ele>
        <time>2026-05-16T13:41:43.613Z</time>
      </trkpt>
      <trkpt lat="49.45405" lon="1.44217">
        <ele>100</ele>
        <time>2026-05-16T13:41:47.712Z</time>
      </trkpt>
      <trkpt lat="49.45401" lon="1.44222">
        <ele>100</ele>
        <time>2026-05-16T13:41:51.777Z</time>
      </trkpt>
      <trkpt lat="49.45398" lon="1.44227">
        <ele>100</ele>
        <time>2026-05-16T13:41:55.800Z</time>
      </trkpt>
      <trkpt lat="49.45394" lon="1.44233">
        <ele>100</ele>
        <time>2026-05-16T13:41:59.959Z</time>
      </trkpt>
      <trkpt lat="49.4539" lon="1.44238">
        <ele>101</ele>
        <time>2026-05-16T13:42:04.058Z</time>
      </trkpt>
      <trkpt lat="49.45386" lon="1.44244">
        <ele>101</ele>
        <time>2026-05-16T13:42:08.141Z</time>
      </trkpt>
      <trkpt lat="49.45382" lon="1.44249">
        <ele>101</ele>
        <time>2026-05-16T13:42:12.216Z</time>
      </trkpt>
      <trkpt lat="49.45378" lon="1.44254">
        <ele>101</ele>
        <time>2026-05-16T13:42:16.234Z</time>
      </trkpt>
      <trkpt lat="49.45373" lon="1.44267">
        <ele>103</ele>
        <time>2026-05-16T13:45:22.800Z</time>
      </trkpt>
      <trkpt lat="49.45373" lon="1.44267">
        <ele>103</ele>
        <time>2026-05-16T13:45:27.800Z</time>
      </trkpt>
      <trkpt lat="49.45373" lon="1.44267">
        <ele>103</ele>
        <time>2026-05-16T13:45:32.800Z</time>
      </trkpt>
      <trkpt lat="49.45373" lon="1.44268">
        <ele>103</ele>
        <time>2026-05-16T13:45:37.195Z</time>
      </trkpt>
      <trkpt lat="49.45374" lon="1.44273">
        <ele>103</ele>
        <time>2026-05-16T13:45:41.682Z</time>
      </trkpt>
      <trkpt lat="49.45379" lon="1.44286">
        <ele>103</ele>
        <time>2026-05-16T13:45:50.636Z</time>
      </trkpt>
      <trkpt lat="49.45378" lon="1.44288">
        <ele>103</ele>
        <time>2026-05-16T13:45:54.800Z</time>
      </trkpt>
      <trkpt lat="49.45379" lon="1.44288">
        <ele>103</ele>
        <time>2026-05-16T13:45:59.800Z</time>
      </trkpt>
      <trkpt lat="49.45379" lon="1.44288">
        <ele>103</ele>
        <time>2026-05-16T13:46:04.800Z</time>
      </trkpt>
      <trkpt lat="49.45383" lon="1.44292">
        <ele>104</ele>
        <time>2026-05-16T13:46:09.397Z</time>
      </trkpt>
      <trkpt lat="49.45387" lon="1.44297">
        <ele>104</ele>
        <time>2026-05-16T13:46:13.800Z</time>
      </trkpt>
      <trkpt lat="49.45391" lon="1.44303">
        <ele>104</ele>
        <time>2026-05-16T13:46:18.579Z</time>
      </trkpt>
      <trkpt lat="49.45394" lon="1.44306">
        <ele>104</ele>
        <time>2026-05-16T13:46:22.698Z</time>
      </trkpt>
      <trkpt lat="49.45398" lon="1.44309">
        <ele>104</ele>
        <time>2026-05-16T13:46:26.800Z</time>
      </trkpt>
      <trkpt lat="49.454" lon="1.44315">
        <ele>104</ele>
        <time>2026-05-16T13:46:31.200Z</time>
      </trkpt>
      <trkpt lat="49.45404" lon="1.44321">
        <ele>106</ele>
        <time>2026-05-16T13:46:35.633Z</time>
      </trkpt>
      <trkpt lat="49.45407" lon="1.44325">
        <ele>106</ele>
        <time>2026-05-16T13:46:40.094Z</time>
      </trkpt>
      <trkpt lat="49.45411" lon="1.44329">
        <ele>106</ele>
        <time>2026-05-16T13:46:44.581Z</time>
      </trkpt>
      <trkpt lat="49.45414" lon="1.44334">
        <ele>106</ele>
        <time>2026-05-16T13:46:49.014Z</time>
      </trkpt>
      <trkpt lat="49.45418" lon="1.44338">
        <ele>106</ele>
        <time>2026-05-16T13:46:53.457Z</time>
      </trkpt>
      <trkpt lat="49.45422" lon="1.44343">
        <ele>106</ele>
        <time>2026-05-16T13:46:57.800Z</time>
      </trkpt>
      <trkpt lat="49.45426" lon="1.44348">
        <ele>108</ele>
        <time>2026-05-16T13:47:02.314Z</time>
      </trkpt>
      <trkpt lat="49.45429" lon="1.44352">
        <ele>108</ele>
        <time>2026-05-16T13:47:06.800Z</time>
      </trkpt>
      <trkpt lat="49.45433" lon="1.44356">
        <ele>108</ele>
        <time>2026-05-16T13:47:11.233Z</time>
      </trkpt>
      <trkpt lat="49.45437" lon="1.4436">
        <ele>108</ele>
        <time>2026-05-16T13:47:15.632Z</time>
      </trkpt>
      <trkpt lat="49.45441" lon="1.44363">
        <ele>108</ele>
        <time>2026-05-16T13:47:20.013Z</time>
      </trkpt>
      <trkpt lat="49.45445" lon="1.44367">
        <ele>108</ele>
        <time>2026-05-16T13:47:24.561Z</time>
      </trkpt>
      <trkpt lat="49.45449" lon="1.4437">
        <ele>108</ele>
        <time>2026-05-16T13:47:28.800Z</time>
      </trkpt>
      <trkpt lat="49.45454" lon="1.44374">
        <ele>108</ele>
        <time>2026-05-16T13:47:33.392Z</time>
      </trkpt>
      <trkpt lat="49.45459" lon="1.44377">
        <ele>109</ele>
        <time>2026-05-16T13:47:37.800Z</time>
      </trkpt>
      <trkpt lat="49.45463" lon="1.44379">
        <ele>109</ele>
        <time>2026-05-16T13:47:42.216Z</time>
      </trkpt>
      <trkpt lat="49.45467" lon="1.44382">
        <ele>109</ele>
        <time>2026-05-16T13:47:46.552Z</time>
      </trkpt>
      <trkpt lat="49.45471" lon="1.44384">
        <ele>109</ele>
        <time>2026-05-16T13:47:50.556Z</time>
      </trkpt>
      <trkpt lat="49.45475" lon="1.44385">
        <ele>109</ele>
        <time>2026-05-16T13:47:54.998Z</time>
      </trkpt>
      <trkpt lat="49.45479" lon="1.44388">
        <ele>109</ele>
        <time>2026-05-16T13:47:59.310Z</time>
      </trkpt>
      <trkpt lat="49.45484" lon="1.44389">
        <ele>109</ele>
        <time>2026-05-16T13:48:03.800Z</time>
      </trkpt>
      <trkpt lat="49.45489" lon="1.44392">
        <ele>109</ele>
        <time>2026-05-16T13:48:08.315Z</time>
      </trkpt>
      <trkpt lat="49.45494" lon="1.44393">
        <ele>109</ele>
        <time>2026-05-16T13:48:12.740Z</time>
      </trkpt>
      <trkpt lat="49.45499" lon="1.44395">
        <ele>109</ele>
        <time>2026-05-16T13:48:17.253Z</time>
      </trkpt>
      <trkpt lat="49.45504" lon="1.44397">
        <ele>109</ele>
        <time>2026-05-16T13:48:21.756Z</time>
      </trkpt>
      <trkpt lat="49.45508" lon="1.44397">
        <ele>109</ele>
        <time>2026-05-16T13:48:26.093Z</time>
      </trkpt>
      <trkpt lat="49.45513" lon="1.44399">
        <ele>109</ele>
        <time>2026-05-16T13:48:30.536Z</time>
      </trkpt>
      <trkpt lat="49.45517" lon="1.444">
        <ele>111</ele>
        <time>2026-05-16T13:48:34.793Z</time>
      </trkpt>
      <trkpt lat="49.45521" lon="1.44401">
        <ele>111</ele>
        <time>2026-05-16T13:48:39.200Z</time>
      </trkpt>
      <trkpt lat="49.45526" lon="1.44402">
        <ele>111</ele>
        <time>2026-05-16T13:48:43.756Z</time>
      </trkpt>
      <trkpt lat="49.4553" lon="1.44403">
        <ele>113</ele>
        <time>2026-05-16T13:48:47.800Z</time>
      </trkpt>
      <trkpt lat="49.45535" lon="1.44405">
        <ele>113</ele>
        <time>2026-05-16T13:48:52.644Z</time>
      </trkpt>
      <trkpt lat="49.45539" lon="1.44406">
        <ele>113</ele>
        <time>2026-05-16T13:48:57.217Z</time>
      </trkpt>
      <trkpt lat="49.45544" lon="1.44408">
        <ele>114</ele>
        <time>2026-05-16T13:49:01.800Z</time>
      </trkpt>
      <trkpt lat="49.45548" lon="1.44409">
        <ele>114</ele>
        <time>2026-05-16T13:49:05.800Z</time>
      </trkpt>
      <trkpt lat="49.45552" lon="1.44411">
        <ele>114</ele>
        <time>2026-05-16T13:49:10.576Z</time>
      </trkpt>
      <trkpt lat="49.45556" lon="1.44412">
        <ele>114</ele>
        <time>2026-05-16T13:49:15.035Z</time>
      </trkpt>
      <trkpt lat="49.4556" lon="1.44413">
        <ele>114</ele>
        <time>2026-05-16T13:49:19.800Z</time>
      </trkpt>
      <trkpt lat="49.45565" lon="1.44415">
        <ele>114</ele>
        <time>2026-05-16T13:49:24.517Z</time>
      </trkpt>
      <trkpt lat="49.45569" lon="1.44417">
        <ele>114</ele>
        <time>2026-05-16T13:49:29.275Z</time>
      </trkpt>
      <trkpt lat="49.45573" lon="1.44419">
        <ele>114</ele>
        <time>2026-05-16T13:49:33.796Z</time>
      </trkpt>
      <trkpt lat="49.45577" lon="1.4442">
        <ele>114</ele>
        <time>2026-05-16T13:49:38.396Z</time>
      </trkpt>
      <trkpt lat="49.4558" lon="1.44421">
        <ele>114</ele>
        <time>2026-05-16T13:49:42.435Z</time>
      </trkpt>
      <trkpt lat="49.45587" lon="1.44424">
        <ele>114</ele>
        <time>2026-05-16T13:50:54.800Z</time>
      </trkpt>
      <trkpt lat="49.45589" lon="1.44426">
        <ele>114</ele>
        <time>2026-05-16T13:50:59.620Z</time>
      </trkpt>
      <trkpt lat="49.45592" lon="1.44427">
        <ele>114</ele>
        <time>2026-05-16T13:51:04.299Z</time>
      </trkpt>
      <trkpt lat="49.45595" lon="1.44428">
        <ele>114</ele>
        <time>2026-05-16T13:51:08.800Z</time>
      </trkpt>
      <trkpt lat="49.45599" lon="1.44433">
        <ele>117</ele>
        <time>2026-05-16T13:51:13.692Z</time>
      </trkpt>
      <trkpt lat="49.45602" lon="1.44434">
        <ele>117</ele>
        <time>2026-05-16T13:51:17.800Z</time>
      </trkpt>
      <trkpt lat="49.45605" lon="1.44436">
        <ele>117</ele>
        <time>2026-05-16T13:51:22.594Z</time>
      </trkpt>
      <trkpt lat="49.45609" lon="1.44438">
        <ele>117</ele>
        <time>2026-05-16T13:51:26.738Z</time>
      </trkpt>
      <trkpt lat="49.45613" lon="1.44438">
        <ele>117</ele>
        <time>2026-05-16T13:51:30.800Z</time>
      </trkpt>
      <trkpt lat="49.4562" lon="1.44446">
        <ele>117</ele>
        <time>2026-05-16T13:51:43.638Z</time>
      </trkpt>
      <trkpt lat="49.45621" lon="1.44449">
        <ele>117</ele>
        <time>2026-05-16T13:51:47.800Z</time>
      </trkpt>
      <trkpt lat="49.45621" lon="1.44449">
        <ele>117</ele>
        <time>2026-05-16T13:51:52.800Z</time>
      </trkpt>
      <trkpt lat="49.45622" lon="1.4445">
        <ele>117</ele>
        <time>2026-05-16T13:51:56.800Z</time>
      </trkpt>
      <trkpt lat="49.45623" lon="1.4445">
        <ele>117</ele>
        <time>2026-05-16T13:52:01.800Z</time>
      </trkpt>
      <trkpt lat="49.45623" lon="1.44451">
        <ele>117</ele>
        <time>2026-05-16T13:52:06.314Z</time>
      </trkpt>
      <trkpt lat="49.45624" lon="1.44453">
        <ele>117</ele>
        <time>2026-05-16T13:52:10.773Z</time>
      </trkpt>
      <trkpt lat="49.45626" lon="1.44458">
        <ele>123</ele>
        <time>2026-05-16T13:52:15.374Z</time>
      </trkpt>
      <trkpt lat="49.45629" lon="1.44464">
        <ele>121</ele>
        <time>2026-05-16T13:52:19.800Z</time>
      </trkpt>
      <trkpt lat="49.45631" lon="1.44468">
        <ele>121</ele>
        <time>2026-05-16T13:52:28.800Z</time>
      </trkpt>
      <trkpt lat="49.45632" lon="1.44469">
        <ele>121</ele>
        <time>2026-05-16T13:52:33.493Z</time>
      </trkpt>
      <trkpt lat="49.45632" lon="1.44472">
        <ele>121</ele>
        <time>2026-05-16T13:52:37.592Z</time>
      </trkpt>
      <trkpt lat="49.45633" lon="1.44475">
        <ele>121</ele>
        <time>2026-05-16T13:52:41.657Z</time>
      </trkpt>
      <trkpt lat="49.45635" lon="1.4448">
        <ele>121</ele>
        <time>2026-05-16T13:52:46.574Z</time>
      </trkpt>
      <trkpt lat="49.45637" lon="1.44487">
        <ele>121</ele>
        <time>2026-05-16T13:52:51.376Z</time>
      </trkpt>
      <trkpt lat="49.45638" lon="1.44492">
        <ele>121</ele>
        <time>2026-05-16T13:52:55.537Z</time>
      </trkpt>
      <trkpt lat="49.45638" lon="1.44498">
        <ele>121</ele>
        <time>2026-05-16T13:52:59.558Z</time>
      </trkpt>
      <trkpt lat="49.45638" lon="1.44503">
        <ele>121</ele>
        <time>2026-05-16T13:53:04.316Z</time>
      </trkpt>
      <trkpt lat="49.45638" lon="1.44508">
        <ele>121</ele>
        <time>2026-05-16T13:53:08.618Z</time>
      </trkpt>
      <trkpt lat="49.45638" lon="1.44513">
        <ele>121</ele>
        <time>2026-05-16T13:53:12.735Z</time>
      </trkpt>
      <trkpt lat="49.45638" lon="1.44519">
        <ele>122</ele>
        <time>2026-05-16T13:53:16.800Z</time>
      </trkpt>
      <trkpt lat="49.45638" lon="1.4452">
        <ele>122</ele>
        <time>2026-05-16T13:53:21.541Z</time>
      </trkpt>
      <trkpt lat="49.45637" lon="1.44523">
        <ele>122</ele>
        <time>2026-05-16T13:53:25.614Z</time>
      </trkpt>
      <trkpt lat="49.45639" lon="1.44533">
        <ele>122</ele>
        <time>2026-05-16T13:53:38.800Z</time>
      </trkpt>
      <trkpt lat="49.45639" lon="1.44536">
        <ele>122</ele>
        <time>2026-05-16T13:53:43.559Z</time>
      </trkpt>
      <trkpt lat="49.45639" lon="1.44541">
        <ele>122</ele>
        <time>2026-05-16T13:53:47.800Z</time>
      </trkpt>
      <trkpt lat="49.45639" lon="1.44543">
        <ele>124</ele>
        <time>2026-05-16T13:53:52.373Z</time>
      </trkpt>
      <trkpt lat="49.45639" lon="1.44549">
        <ele>124</ele>
        <time>2026-05-16T13:53:57.800Z</time>
      </trkpt>
      <trkpt lat="49.45641" lon="1.44565">
        <ele>124</ele>
        <time>2026-05-16T13:54:20.800Z</time>
      </trkpt>
      <trkpt lat="49.45641" lon="1.44566">
        <ele>124</ele>
        <time>2026-05-16T13:54:24.800Z</time>
      </trkpt>
      <trkpt lat="49.45641" lon="1.44567">
        <ele>124</ele>
        <time>2026-05-16T13:54:29.800Z</time>
      </trkpt>
      <trkpt lat="49.45641" lon="1.44568">
        <ele>124</ele>
        <time>2026-05-16T13:54:35.038Z</time>
      </trkpt>
      <trkpt lat="49.4564" lon="1.44572">
        <ele>126</ele>
        <time>2026-05-16T13:54:39.533Z</time>
      </trkpt>
      <trkpt lat="49.45641" lon="1.44577">
        <ele>126</ele>
        <time>2026-05-16T13:54:48.514Z</time>
      </trkpt>
      <trkpt lat="49.45641" lon="1.44582">
        <ele>126</ele>
        <time>2026-05-16T13:54:52.800Z</time>
      </trkpt>
      <trkpt lat="49.45641" lon="1.44583">
        <ele>126</ele>
        <time>2026-05-16T13:54:56.800Z</time>
      </trkpt>
      <trkpt lat="49.45641" lon="1.44585">
        <ele>126</ele>
        <time>2026-05-16T13:55:01.735Z</time>
      </trkpt>
      <trkpt lat="49.45641" lon="1.4459">
        <ele>126</ele>
        <time>2026-05-16T13:55:05.800Z</time>
      </trkpt>
      <trkpt lat="49.45643" lon="1.44599">
        <ele>126</ele>
        <time>2026-05-16T13:55:10.716Z</time>
      </trkpt>
      <trkpt lat="49.45643" lon="1.44605">
        <ele>126</ele>
        <time>2026-05-16T13:55:14.800Z</time>
      </trkpt>
      <trkpt lat="49.45644" lon="1.44607">
        <ele>126</ele>
        <time>2026-05-16T13:55:18.800Z</time>
      </trkpt>
      <trkpt lat="49.45644" lon="1.44613">
        <ele>126</ele>
        <time>2026-05-16T13:55:23.358Z</time>
      </trkpt>
      <trkpt lat="49.45644" lon="1.44618">
        <ele>126</ele>
        <time>2026-05-16T13:55:27.800Z</time>
      </trkpt>
      <trkpt lat="49.45644" lon="1.44622">
        <ele>126</ele>
        <time>2026-05-16T13:55:31.800Z</time>
      </trkpt>
      <trkpt lat="49.45644" lon="1.44625">
        <ele>125</ele>
        <time>2026-05-16T13:55:36.800Z</time>
      </trkpt>
      <trkpt lat="49.45645" lon="1.4463">
        <ele>125</ele>
        <time>2026-05-16T13:55:41.800Z</time>
      </trkpt>
      <trkpt lat="49.45645" lon="1.44637">
        <ele>125</ele>
        <time>2026-05-16T13:55:46.578Z</time>
      </trkpt>
      <trkpt lat="49.45648" lon="1.44648">
        <ele>125</ele>
        <time>2026-05-16T13:57:28.800Z</time>
      </trkpt>
      <trkpt lat="49.45648" lon="1.44648">
        <ele>125</ele>
        <time>2026-05-16T13:57:35.800Z</time>
      </trkpt>
      <trkpt lat="49.45648" lon="1.44648">
        <ele>125</ele>
        <time>2026-05-16T13:57:40.492Z</time>
      </trkpt>
      <trkpt lat="49.45649" lon="1.44649">
        <ele>125</ele>
        <time>2026-05-16T13:57:44.800Z</time>
      </trkpt>
      <trkpt lat="49.4565" lon="1.44653">
        <ele>126</ele>
        <time>2026-05-16T13:57:49.254Z</time>
      </trkpt>
      <trkpt lat="49.45655" lon="1.44664">
        <ele>127</ele>
        <time>2026-05-16T13:57:53.800Z</time>
      </trkpt>
      <trkpt lat="49.45659" lon="1.44669">
        <ele>127</ele>
        <time>2026-05-16T13:57:58.392Z</time>
      </trkpt>
      <trkpt lat="49.45662" lon="1.44675">
        <ele>127</ele>
        <time>2026-05-16T13:58:03.054Z</time>
      </trkpt>
      <trkpt lat="49.45664" lon="1.44681">
        <ele>128</ele>
        <time>2026-05-16T13:58:07.513Z</time>
      </trkpt>
      <trkpt lat="49.45667" lon="1.44685">
        <ele>128</ele>
        <time>2026-05-16T13:58:11.613Z</time>
      </trkpt>
      <trkpt lat="49.45669" lon="1.4469">
        <ele>128</ele>
        <time>2026-05-16T13:58:16.117Z</time>
      </trkpt>
      <trkpt lat="49.45673" lon="1.44695">
        <ele>128</ele>
        <time>2026-05-16T13:58:20.498Z</time>
      </trkpt>
      <trkpt lat="49.45677" lon="1.44701">
        <ele>128</ele>
        <time>2026-05-16T13:58:25.019Z</time>
      </trkpt>
      <trkpt lat="49.45682" lon="1.44705">
        <ele>129</ele>
        <time>2026-05-16T13:58:29.576Z</time>
      </trkpt>
      <trkpt lat="49.45688" lon="1.44707">
        <ele>129</ele>
        <time>2026-05-16T13:58:34.237Z</time>
      </trkpt>
      <trkpt lat="49.45693" lon="1.44709">
        <ele>131</ele>
        <time>2026-05-16T13:58:38.741Z</time>
      </trkpt>
      <trkpt lat="49.45697" lon="1.4471">
        <ele>131</ele>
        <time>2026-05-16T13:58:43.314Z</time>
      </trkpt>
      <trkpt lat="49.45701" lon="1.4471">
        <ele>131</ele>
        <time>2026-05-16T13:58:47.800Z</time>
      </trkpt>
      <trkpt lat="49.45706" lon="1.4471">
        <ele>131</ele>
        <time>2026-05-16T13:58:52.374Z</time>
      </trkpt>
      <trkpt lat="49.45711" lon="1.44712">
        <ele>133</ele>
        <time>2026-05-16T13:58:56.800Z</time>
      </trkpt>
      <trkpt lat="49.45716" lon="1.44714">
        <ele>133</ele>
        <time>2026-05-16T13:59:01.416Z</time>
      </trkpt>
      <trkpt lat="49.4572" lon="1.44714">
        <ele>133</ele>
        <time>2026-05-16T13:59:06.034Z</time>
      </trkpt>
      <trkpt lat="49.45725" lon="1.44715">
        <ele>133</ele>
        <time>2026-05-16T13:59:10.634Z</time>
      </trkpt>
      <trkpt lat="49.45728" lon="1.44715">
        <ele>133</ele>
        <time>2026-05-16T13:59:14.655Z</time>
      </trkpt>
      <trkpt lat="49.45732" lon="1.44715">
        <ele>133</ele>
        <time>2026-05-16T13:59:18.658Z</time>
      </trkpt>
      <trkpt lat="49.45736" lon="1.44715">
        <ele>135</ele>
        <time>2026-05-16T13:59:23.225Z</time>
      </trkpt>
      <trkpt lat="49.45741" lon="1.44714">
        <ele>135</ele>
        <time>2026-05-16T13:59:27.674Z</time>
      </trkpt>
      <trkpt lat="49.45745" lon="1.44713">
        <ele>135</ele>
        <time>2026-05-16T13:59:31.800Z</time>
      </trkpt>
      <trkpt lat="49.4575" lon="1.44713">
        <ele>135</ele>
        <time>2026-05-16T13:59:36.479Z</time>
      </trkpt>
      <trkpt lat="49.45755" lon="1.44714">
        <ele>135</ele>
        <time>2026-05-16T13:59:41.132Z</time>
      </trkpt>
      <trkpt lat="49.45759" lon="1.44715">
        <ele>135</ele>
        <time>2026-05-16T13:59:45.241Z</time>
      </trkpt>
      <trkpt lat="49.45763" lon="1.44714">
        <ele>135</ele>
        <time>2026-05-16T13:59:49.800Z</time>
      </trkpt>
      <trkpt lat="49.45768" lon="1.44714">
        <ele>135</ele>
        <time>2026-05-16T13:59:54.599Z</time>
      </trkpt>
      <trkpt lat="49.45772" lon="1.44714">
        <ele>135</ele>
        <time>2026-05-16T13:59:58.655Z</time>
      </trkpt>
      <trkpt lat="49.45776" lon="1.44714">
        <ele>135</ele>
        <time>2026-05-16T14:00:03.255Z</time>
      </trkpt>
      <trkpt lat="49.4578" lon="1.44714">
        <ele>135</ele>
        <time>2026-05-16T14:00:07.337Z</time>
      </trkpt>
      <trkpt lat="49.45785" lon="1.44714">
        <ele>135</ele>
        <time>2026-05-16T14:00:11.800Z</time>
      </trkpt>
      <trkpt lat="49.4579" lon="1.44715">
        <ele>135</ele>
        <time>2026-05-16T14:00:16.573Z</time>
      </trkpt>
      <trkpt lat="49.45795" lon="1.44715">
        <ele>135</ele>
        <time>2026-05-16T14:00:21.199Z</time>
      </trkpt>
      <trkpt lat="49.45799" lon="1.44715">
        <ele>135</ele>
        <time>2026-05-16T14:00:25.659Z</time>
      </trkpt>
      <trkpt lat="49.45803" lon="1.44715">
        <ele>135</ele>
        <time>2026-05-16T14:00:29.679Z</time>
      </trkpt>
      <trkpt lat="49.45808" lon="1.44716">
        <ele>135</ele>
        <time>2026-05-16T14:00:34.297Z</time>
      </trkpt>
      <trkpt lat="49.45812" lon="1.44717">
        <ele>135</ele>
        <time>2026-05-16T14:00:38.352Z</time>
      </trkpt>
      <trkpt lat="49.45816" lon="1.44718">
        <ele>135</ele>
        <time>2026-05-16T14:00:42.374Z</time>
      </trkpt>
      <trkpt lat="49.45821" lon="1.44719">
        <ele>136</ele>
        <time>2026-05-16T14:00:46.800Z</time>
      </trkpt>
      <trkpt lat="49.45825" lon="1.44719">
        <ele>136</ele>
        <time>2026-05-16T14:00:51.618Z</time>
      </trkpt>
      <trkpt lat="49.45829" lon="1.44719">
        <ele>136</ele>
        <time>2026-05-16T14:00:55.700Z</time>
      </trkpt>
      <trkpt lat="49.45833" lon="1.44719">
        <ele>136</ele>
        <time>2026-05-16T14:00:59.800Z</time>
      </trkpt>
      <trkpt lat="49.45839" lon="1.44721">
        <ele>136</ele>
        <time>2026-05-16T14:01:04.575Z</time>
      </trkpt>
      <trkpt lat="49.45842" lon="1.44721">
        <ele>136</ele>
        <time>2026-05-16T14:01:08.657Z</time>
      </trkpt>
      <trkpt lat="49.45847" lon="1.44721">
        <ele>137</ele>
        <time>2026-05-16T14:01:13.161Z</time>
      </trkpt>
      <trkpt lat="49.45853" lon="1.44722">
        <ele>137</ele>
        <time>2026-05-16T14:01:17.717Z</time>
      </trkpt>
      <trkpt lat="49.45857" lon="1.44723">
        <ele>137</ele>
        <time>2026-05-16T14:01:22.194Z</time>
      </trkpt>
      <trkpt lat="49.45862" lon="1.44723">
        <ele>137</ele>
        <time>2026-05-16T14:01:26.800Z</time>
      </trkpt>
      <trkpt lat="49.45867" lon="1.44723">
        <ele>137</ele>
        <time>2026-05-16T14:01:31.421Z</time>
      </trkpt>
      <trkpt lat="49.45871" lon="1.44723">
        <ele>137</ele>
        <time>2026-05-16T14:01:35.800Z</time>
      </trkpt>
      <trkpt lat="49.45875" lon="1.44722">
        <ele>137</ele>
        <time>2026-05-16T14:01:40.313Z</time>
      </trkpt>
      <trkpt lat="49.4588" lon="1.44722">
        <ele>140</ele>
        <time>2026-05-16T14:01:44.800Z</time>
      </trkpt>
      <trkpt lat="49.45885" lon="1.4472">
        <ele>140</ele>
        <time>2026-05-16T14:01:49.593Z</time>
      </trkpt>
      <trkpt lat="49.45889" lon="1.44718">
        <ele>140</ele>
        <time>2026-05-16T14:01:54.001Z</time>
      </trkpt>
      <trkpt lat="49.45894" lon="1.44716">
        <ele>140</ele>
        <time>2026-05-16T14:01:58.354Z</time>
      </trkpt>
      <trkpt lat="49.45898" lon="1.44713">
        <ele>140</ele>
        <time>2026-05-16T14:02:02.735Z</time>
      </trkpt>
      <trkpt lat="49.45902" lon="1.44711">
        <ele>140</ele>
        <time>2026-05-16T14:02:07.335Z</time>
      </trkpt>
      <trkpt lat="49.45906" lon="1.44708">
        <ele>143</ele>
        <time>2026-05-16T14:02:11.800Z</time>
      </trkpt>
      <trkpt lat="49.4591" lon="1.44705">
        <ele>143</ele>
        <time>2026-05-16T14:02:16.254Z</time>
      </trkpt>
      <trkpt lat="49.45914" lon="1.44701">
        <ele>143</ele>
        <time>2026-05-16T14:02:20.740Z</time>
      </trkpt>
      <trkpt lat="49.45918" lon="1.44697">
        <ele>143</ele>
        <time>2026-05-16T14:02:25.313Z</time>
      </trkpt>
      <trkpt lat="49.45923" lon="1.44695">
        <ele>143</ele>
        <time>2026-05-16T14:02:29.800Z</time>
      </trkpt>
      <trkpt lat="49.45927" lon="1.44692">
        <ele>143</ele>
        <time>2026-05-16T14:02:34.294Z</time>
      </trkpt>
      <trkpt lat="49.45934" lon="1.44678">
        <ele>146</ele>
        <time>2026-05-16T14:02:52.800Z</time>
      </trkpt>
      <trkpt lat="49.45934" lon="1.44678">
        <ele>146</ele>
        <time>2026-05-16T14:02:58.800Z</time>
      </trkpt>
      <trkpt lat="49.45934" lon="1.44678">
        <ele>146</ele>
        <time>2026-05-16T14:03:03.694Z</time>
      </trkpt>
      <trkpt lat="49.45937" lon="1.44678">
        <ele>146</ele>
        <time>2026-05-16T14:03:08.294Z</time>
      </trkpt>
      <trkpt lat="49.45941" lon="1.44673">
        <ele>146</ele>
        <time>2026-05-16T14:03:12.717Z</time>
      </trkpt>
      <trkpt lat="49.45945" lon="1.44668">
        <ele>146</ele>
        <time>2026-05-16T14:03:17.257Z</time>
      </trkpt>
      <trkpt lat="49.45948" lon="1.44663">
        <ele>146</ele>
        <time>2026-05-16T14:03:21.726Z</time>
      </trkpt>
      <trkpt lat="49.45951" lon="1.44657">
        <ele>146</ele>
        <time>2026-05-16T14:03:26.316Z</time>
      </trkpt>
      <trkpt lat="49.45955" lon="1.44652">
        <ele>145</ele>
        <time>2026-05-16T14:03:30.794Z</time>
      </trkpt>
      <trkpt lat="49.45958" lon="1.44647">
        <ele>145</ele>
        <time>2026-05-16T14:03:35.314Z</time>
      </trkpt>
      <trkpt lat="49.45961" lon="1.44643">
        <ele>147</ele>
        <time>2026-05-16T14:03:39.318Z</time>
      </trkpt>
      <trkpt lat="49.45965" lon="1.44639">
        <ele>147</ele>
        <time>2026-05-16T14:03:43.800Z</time>
      </trkpt>
      <trkpt lat="49.45968" lon="1.44635">
        <ele>147</ele>
        <time>2026-05-16T14:03:47.800Z</time>
      </trkpt>
      <trkpt lat="49.45971" lon="1.4463">
        <ele>147</ele>
        <time>2026-05-16T14:03:52.696Z</time>
      </trkpt>
      <trkpt lat="49.45974" lon="1.44625">
        <ele>147</ele>
        <time>2026-05-16T14:03:57.217Z</time>
      </trkpt>
      <trkpt lat="49.45978" lon="1.44621">
        <ele>146</ele>
        <time>2026-05-16T14:04:01.800Z</time>
      </trkpt>
      <trkpt lat="49.45982" lon="1.44617">
        <ele>146</ele>
        <time>2026-05-16T14:04:06.558Z</time>
      </trkpt>
      <trkpt lat="49.45989" lon="1.44604">
        <ele>146</ele>
        <time>2026-05-16T14:04:23.800Z</time>
      </trkpt>
      <trkpt lat="49.45991" lon="1.44602">
        <ele>146</ele>
        <time>2026-05-16T14:04:28.320Z</time>
      </trkpt>
      <trkpt lat="49.45995" lon="1.44598">
        <ele>146</ele>
        <time>2026-05-16T14:04:32.800Z</time>
      </trkpt>
      <trkpt lat="49.45999" lon="1.44593">
        <ele>145</ele>
        <time>2026-05-16T14:04:37.379Z</time>
      </trkpt>
      <trkpt lat="49.46003" lon="1.44589">
        <ele>145</ele>
        <time>2026-05-16T14:04:41.800Z</time>
      </trkpt>
      <trkpt lat="49.46006" lon="1.44586">
        <ele>145</ele>
        <time>2026-05-16T14:04:46.035Z</time>
      </trkpt>
      <trkpt lat="49.46009" lon="1.44581">
        <ele>145</ele>
        <time>2026-05-16T14:04:50.634Z</time>
      </trkpt>
      <trkpt lat="49.46012" lon="1.44577">
        <ele>145</ele>
        <time>2026-05-16T14:04:54.734Z</time>
      </trkpt>
      <trkpt lat="49.46016" lon="1.44573">
        <ele>147</ele>
        <time>2026-05-16T14:04:59.317Z</time>
      </trkpt>
      <trkpt lat="49.4602" lon="1.44569">
        <ele>147</ele>
        <time>2026-05-16T14:05:03.800Z</time>
      </trkpt>
      <trkpt lat="49.46023" lon="1.44564">
        <ele>147</ele>
        <time>2026-05-16T14:05:08.676Z</time>
      </trkpt>
      <trkpt lat="49.46026" lon="1.44561">
        <ele>147</ele>
        <time>2026-05-16T14:05:12.800Z</time>
      </trkpt>
      <trkpt lat="49.4603" lon="1.44557">
        <ele>147</ele>
        <time>2026-05-16T14:05:17.559Z</time>
      </trkpt>
      <trkpt lat="49.46033" lon="1.44553">
        <ele>147</ele>
        <time>2026-05-16T14:05:21.641Z</time>
      </trkpt>
      <trkpt lat="49.46037" lon="1.44549">
        <ele>147</ele>
        <time>2026-05-16T14:05:26.355Z</time>
      </trkpt>
      <trkpt lat="49.4604" lon="1.44545">
        <ele>147</ele>
        <time>2026-05-16T14:05:30.454Z</time>
      </trkpt>
      <trkpt lat="49.46043" lon="1.44542">
        <ele>149</ele>
        <time>2026-05-16T14:05:34.580Z</time>
      </trkpt>
      <trkpt lat="49.46047" lon="1.4454">
        <ele>149</ele>
        <time>2026-05-16T14:05:38.732Z</time>
      </trkpt>
      <trkpt lat="49.4605" lon="1.44537">
        <ele>149</ele>
        <time>2026-05-16T14:05:42.800Z</time>
      </trkpt>
      <trkpt lat="49.46053" lon="1.44532">
        <ele>149</ele>
        <time>2026-05-16T14:05:47.195Z</time>
      </trkpt>
      <trkpt lat="49.46057" lon="1.44529">
        <ele>149</ele>
        <time>2026-05-16T14:05:51.294Z</time>
      </trkpt>
      <trkpt lat="49.4606" lon="1.44525">
        <ele>149</ele>
        <time>2026-05-16T14:05:55.579Z</time>
      </trkpt>
      <trkpt lat="49.46063" lon="1.44522">
        <ele>149</ele>
        <time>2026-05-16T14:05:59.616Z</time>
      </trkpt>
      <trkpt lat="49.46067" lon="1.44519">
        <ele>149</ele>
        <time>2026-05-16T14:06:03.733Z</time>
      </trkpt>
      <trkpt lat="49.4607" lon="1.44516">
        <ele>151</ele>
        <time>2026-05-16T14:06:07.800Z</time>
      </trkpt>
      <trkpt lat="49.46074" lon="1.44514">
        <ele>151</ele>
        <time>2026-05-16T14:06:12.099Z</time>
      </trkpt>
      <trkpt lat="49.46077" lon="1.44512">
        <ele>152</ele>
        <time>2026-05-16T14:06:16.374Z</time>
      </trkpt>
      <trkpt lat="49.46081" lon="1.44511">
        <ele>152</ele>
        <time>2026-05-16T14:06:20.579Z</time>
      </trkpt>
      <trkpt lat="49.46084" lon="1.44509">
        <ele>152</ele>
        <time>2026-05-16T14:06:24.800Z</time>
      </trkpt>
      <trkpt lat="49.46088" lon="1.44508">
        <ele>152</ele>
        <time>2026-05-16T14:06:28.800Z</time>
      </trkpt>
      <trkpt lat="49.46092" lon="1.44508">
        <ele>152</ele>
        <time>2026-05-16T14:06:33.159Z</time>
      </trkpt>
      <trkpt lat="49.46096" lon="1.44508">
        <ele>152</ele>
        <time>2026-05-16T14:06:37.380Z</time>
      </trkpt>
      <trkpt lat="49.461" lon="1.44508">
        <ele>155</ele>
        <time>2026-05-16T14:06:41.514Z</time>
      </trkpt>
      <trkpt lat="49.46104" lon="1.44508">
        <ele>155</ele>
        <time>2026-05-16T14:06:45.518Z</time>
      </trkpt>
      <trkpt lat="49.46107" lon="1.44509">
        <ele>155</ele>
        <time>2026-05-16T14:06:49.600Z</time>
      </trkpt>
      <trkpt lat="49.46112" lon="1.44509">
        <ele>155</ele>
        <time>2026-05-16T14:06:54.220Z</time>
      </trkpt>
      <trkpt lat="49.46116" lon="1.44509">
        <ele>155</ele>
        <time>2026-05-16T14:06:58.352Z</time>
      </trkpt>
      <trkpt lat="49.46121" lon="1.44509">
        <ele>155</ele>
        <time>2026-05-16T14:07:02.496Z</time>
      </trkpt>
      <trkpt lat="49.46125" lon="1.44508">
        <ele>155</ele>
        <time>2026-05-16T14:07:06.516Z</time>
      </trkpt>
      <trkpt lat="49.46129" lon="1.44508">
        <ele>157</ele>
        <time>2026-05-16T14:07:11.160Z</time>
      </trkpt>
      <trkpt lat="49.46133" lon="1.44508">
        <ele>157</ele>
        <time>2026-05-16T14:07:15.733Z</time>
      </trkpt>
      <trkpt lat="49.46138" lon="1.44507">
        <ele>157</ele>
        <time>2026-05-16T14:07:20.377Z</time>
      </trkpt>
      <trkpt lat="49.46141" lon="1.44505">
        <ele>157</ele>
        <time>2026-05-16T14:07:24.415Z</time>
      </trkpt>
      <trkpt lat="49.46144" lon="1.44499">
        <ele>157</ele>
        <time>2026-05-16T14:07:28.800Z</time>
      </trkpt>
      <trkpt lat="49.46143" lon="1.44492">
        <ele>157</ele>
        <time>2026-05-16T14:07:33.283Z</time>
      </trkpt>
      <trkpt lat="49.46144" lon="1.44484">
        <ele>157</ele>
        <time>2026-05-16T14:07:52.800Z</time>
      </trkpt>
      <trkpt lat="49.46144" lon="1.44482">
        <ele>157</ele>
        <time>2026-05-16T14:07:57.273Z</time>
      </trkpt>
      <trkpt lat="49.46145" lon="1.4448">
        <ele>157</ele>
        <time>2026-05-16T14:08:02.251Z</time>
      </trkpt>
      <trkpt lat="49.46147" lon="1.44474">
        <ele>157</ele>
        <time>2026-05-16T14:08:06.594Z</time>
      </trkpt>
      <trkpt lat="49.46149" lon="1.44466">
        <ele>157</ele>
        <time>2026-05-16T14:08:11.134Z</time>
      </trkpt>
      <trkpt lat="49.46149" lon="1.44458">
        <ele>158</ele>
        <time>2026-05-16T14:08:15.620Z</time>
      </trkpt>
      <trkpt lat="49.4615" lon="1.4445">
        <ele>158</ele>
        <time>2026-05-16T14:08:20.192Z</time>
      </trkpt>
      <trkpt lat="49.46151" lon="1.44443">
        <ele>158</ele>
        <time>2026-05-16T14:08:24.740Z</time>
      </trkpt>
      <trkpt lat="49.46151" lon="1.44435">
        <ele>158</ele>
        <time>2026-05-16T14:08:29.234Z</time>
      </trkpt>
      <trkpt lat="49.46152" lon="1.44428">
        <ele>159</ele>
        <time>2026-05-16T14:08:33.693Z</time>
      </trkpt>
      <trkpt lat="49.46153" lon="1.44421">
        <ele>160</ele>
        <time>2026-05-16T14:08:38.152Z</time>
      </trkpt>
      <trkpt lat="49.46154" lon="1.44413">
        <ele>160</ele>
        <time>2026-05-16T14:08:42.559Z</time>
      </trkpt>
      <trkpt lat="49.46154" lon="1.44406">
        <ele>160</ele>
        <time>2026-05-16T14:08:46.800Z</time>
      </trkpt>
      <trkpt lat="49.46154" lon="1.44398">
        <ele>161</ele>
        <time>2026-05-16T14:08:51.337Z</time>
      </trkpt>
      <trkpt lat="49.46155" lon="1.44391">
        <ele>161</ele>
        <time>2026-05-16T14:08:55.800Z</time>
      </trkpt>
      <trkpt lat="49.46156" lon="1.44383">
        <ele>161</ele>
        <time>2026-05-16T14:09:00.256Z</time>
      </trkpt>
      <trkpt lat="49.46157" lon="1.44376">
        <ele>161</ele>
        <time>2026-05-16T14:09:04.759Z</time>
      </trkpt>
      <trkpt lat="49.4616" lon="1.44371">
        <ele>162</ele>
        <time>2026-05-16T14:09:08.780Z</time>
      </trkpt>
      <trkpt lat="49.46165" lon="1.44371">
        <ele>162</ele>
        <time>2026-05-16T14:09:13.212Z</time>
      </trkpt>
      <trkpt lat="49.4617" lon="1.44373">
        <ele>162</ele>
        <time>2026-05-16T14:09:17.655Z</time>
      </trkpt>
      <trkpt lat="49.46175" lon="1.44375">
        <ele>161</ele>
        <time>2026-05-16T14:09:22.036Z</time>
      </trkpt>
      <trkpt lat="49.4618" lon="1.44376">
        <ele>161</ele>
        <time>2026-05-16T14:09:26.416Z</time>
      </trkpt>
      <trkpt lat="49.46185" lon="1.44377">
        <ele>161</ele>
        <time>2026-05-16T14:09:30.800Z</time>
      </trkpt>
      <trkpt lat="49.4619" lon="1.44377">
        <ele>161</ele>
        <time>2026-05-16T14:09:35.523Z</time>
      </trkpt>
      <trkpt lat="49.46194" lon="1.44378">
        <ele>161</ele>
        <time>2026-05-16T14:09:40.074Z</time>
      </trkpt>
      <trkpt lat="49.46199" lon="1.44379">
        <ele>161</ele>
        <time>2026-05-16T14:09:44.639Z</time>
      </trkpt>
      <trkpt lat="49.46204" lon="1.4438">
        <ele>161</ele>
        <time>2026-05-16T14:09:49.177Z</time>
      </trkpt>
      <trkpt lat="49.46208" lon="1.44381">
        <ele>163</ele>
        <time>2026-05-16T14:09:53.637Z</time>
      </trkpt>
      <trkpt lat="49.46213" lon="1.44381">
        <ele>163</ele>
        <time>2026-05-16T14:09:58.114Z</time>
      </trkpt>
      <trkpt lat="49.46218" lon="1.44382">
        <ele>163</ele>
        <time>2026-05-16T14:10:02.398Z</time>
      </trkpt>
      <trkpt lat="49.46222" lon="1.44383">
        <ele>163</ele>
        <time>2026-05-16T14:10:06.340Z</time>
      </trkpt>
      <trkpt lat="49.46227" lon="1.44385">
        <ele>163</ele>
        <time>2026-05-16T14:10:10.535Z</time>
      </trkpt>
      <trkpt lat="49.46231" lon="1.44387">
        <ele>163</ele>
        <time>2026-05-16T14:10:14.800Z</time>
      </trkpt>
      <trkpt lat="49.46236" lon="1.44389">
        <ele>164</ele>
        <time>2026-05-16T14:10:19.155Z</time>
      </trkpt>
      <trkpt lat="49.46241" lon="1.44391">
        <ele>164</ele>
        <time>2026-05-16T14:10:23.614Z</time>
      </trkpt>
      <trkpt lat="49.46245" lon="1.4439">
        <ele>164</ele>
        <time>2026-05-16T14:10:28.145Z</time>
      </trkpt>
      <trkpt lat="49.46249" lon="1.44389">
        <ele>164</ele>
        <time>2026-05-16T14:10:32.638Z</time>
      </trkpt>
      <trkpt lat="49.46255" lon="1.4439">
        <ele>164</ele>
        <time>2026-05-16T14:10:50.580Z</time>
      </trkpt>
      <trkpt lat="49.46259" lon="1.44395">
        <ele>164</ele>
        <time>2026-05-16T14:10:54.680Z</time>
      </trkpt>
      <trkpt lat="49.46264" lon="1.44396">
        <ele>164</ele>
        <time>2026-05-16T14:10:58.954Z</time>
      </trkpt>
      <trkpt lat="49.46269" lon="1.44397">
        <ele>165</ele>
        <time>2026-05-16T14:11:03.335Z</time>
      </trkpt>
      <trkpt lat="49.46274" lon="1.44397">
        <ele>165</ele>
        <time>2026-05-16T14:11:07.800Z</time>
      </trkpt>
      <trkpt lat="49.46279" lon="1.44396">
        <ele>165</ele>
        <time>2026-05-16T14:11:12.314Z</time>
      </trkpt>
      <trkpt lat="49.46283" lon="1.44396">
        <ele>165</ele>
        <time>2026-05-16T14:11:16.600Z</time>
      </trkpt>
      <trkpt lat="49.46288" lon="1.44396">
        <ele>165</ele>
        <time>2026-05-16T14:11:21.277Z</time>
      </trkpt>
      <trkpt lat="49.46292" lon="1.44397">
        <ele>166</ele>
        <time>2026-05-16T14:11:25.675Z</time>
      </trkpt>
      <trkpt lat="49.46296" lon="1.44399">
        <ele>166</ele>
        <time>2026-05-16T14:11:30.117Z</time>
      </trkpt>
      <trkpt lat="49.46301" lon="1.444">
        <ele>166</ele>
        <time>2026-05-16T14:11:34.576Z</time>
      </trkpt>
      <trkpt lat="49.46305" lon="1.44402">
        <ele>166</ele>
        <time>2026-05-16T14:11:39.080Z</time>
      </trkpt>
      <trkpt lat="49.4631" lon="1.44402">
        <ele>166</ele>
        <time>2026-05-16T14:11:43.461Z</time>
      </trkpt>
      <trkpt lat="49.46315" lon="1.44403">
        <ele>166</ele>
        <time>2026-05-16T14:11:47.800Z</time>
      </trkpt>
      <trkpt lat="49.4632" lon="1.44405">
        <ele>168</ele>
        <time>2026-05-16T14:11:52.800Z</time>
      </trkpt>
      <trkpt lat="49.46325" lon="1.44407">
        <ele>168</ele>
        <time>2026-05-16T14:11:57.373Z</time>
      </trkpt>
      <trkpt lat="49.4633" lon="1.44408">
        <ele>168</ele>
        <time>2026-05-16T14:12:01.735Z</time>
      </trkpt>
      <trkpt lat="49.46336" lon="1.4441">
        <ele>168</ele>
        <time>2026-05-16T14:12:06.177Z</time>
      </trkpt>
      <trkpt lat="49.46341" lon="1.44413">
        <ele>168</ele>
        <time>2026-05-16T14:12:10.575Z</time>
      </trkpt>
      <trkpt lat="49.46345" lon="1.44414">
        <ele>168</ele>
        <time>2026-05-16T14:12:14.800Z</time>
      </trkpt>
      <trkpt lat="49.46351" lon="1.44415">
        <ele>169</ele>
        <time>2026-05-16T14:12:19.379Z</time>
      </trkpt>
      <trkpt lat="49.46356" lon="1.44416">
        <ele>169</ele>
        <time>2026-05-16T14:12:23.800Z</time>
      </trkpt>
      <trkpt lat="49.46361" lon="1.44417">
        <ele>169</ele>
        <time>2026-05-16T14:12:28.315Z</time>
      </trkpt>
      <trkpt lat="49.46366" lon="1.44418">
        <ele>169</ele>
        <time>2026-05-16T14:12:32.757Z</time>
      </trkpt>
      <trkpt lat="49.46368" lon="1.44419">
        <ele>169</ele>
        <time>2026-05-16T14:12:36.800Z</time>
      </trkpt>
      <trkpt lat="49.46372" lon="1.4442">
        <ele>169</ele>
        <time>2026-05-16T14:12:41.517Z</time>
      </trkpt>
      <trkpt lat="49.46376" lon="1.44421">
        <ele>170</ele>
        <time>2026-05-16T14:12:45.800Z</time>
      </trkpt>
      <trkpt lat="49.46381" lon="1.44422">
        <ele>170</ele>
        <time>2026-05-16T14:12:50.313Z</time>
      </trkpt>
      <trkpt lat="49.46385" lon="1.44424">
        <ele>170</ele>
        <time>2026-05-16T14:12:54.659Z</time>
      </trkpt>
      <trkpt lat="49.46393" lon="1.4443">
        <ele>170</ele>
        <time>2026-05-16T14:14:10.800Z</time>
      </trkpt>
      <trkpt lat="49.46394" lon="1.44434">
        <ele>171</ele>
        <time>2026-05-16T14:14:15.158Z</time>
      </trkpt>
      <trkpt lat="49.46399" lon="1.44441">
        <ele>171</ele>
        <time>2026-05-16T14:14:19.355Z</time>
      </trkpt>
      <trkpt lat="49.46404" lon="1.44444">
        <ele>172</ele>
        <time>2026-05-16T14:14:23.420Z</time>
      </trkpt>
      <trkpt lat="49.46409" lon="1.44446">
        <ele>172</ele>
        <time>2026-05-16T14:14:27.597Z</time>
      </trkpt>
      <trkpt lat="49.46412" lon="1.4445">
        <ele>172</ele>
        <time>2026-05-16T14:14:31.799Z</time>
      </trkpt>
      <trkpt lat="49.46416" lon="1.44452">
        <ele>172</ele>
        <time>2026-05-16T14:14:36.060Z</time>
      </trkpt>
      <trkpt lat="49.46421" lon="1.44454">
        <ele>172</ele>
        <time>2026-05-16T14:14:40.475Z</time>
      </trkpt>
      <trkpt lat="49.46427" lon="1.44458">
        <ele>172</ele>
        <time>2026-05-16T14:14:44.575Z</time>
      </trkpt>
      <trkpt lat="49.46433" lon="1.44464">
        <ele>171</ele>
        <time>2026-05-16T14:18:05.579Z</time>
      </trkpt>
      <trkpt lat="49.46437" lon="1.44465">
        <ele>171</ele>
        <time>2026-05-16T14:18:09.977Z</time>
      </trkpt>
      <trkpt lat="49.46442" lon="1.44462">
        <ele>171</ele>
        <time>2026-05-16T14:18:14.015Z</time>
      </trkpt>
      <trkpt lat="49.46446" lon="1.44458">
        <ele>171</ele>
        <time>2026-05-16T14:18:18.053Z</time>
      </trkpt>
      <trkpt lat="49.4645" lon="1.44453">
        <ele>171</ele>
        <time>2026-05-16T14:18:22.135Z</time>
      </trkpt>
      <trkpt lat="49.46455" lon="1.44449">
        <ele>171</ele>
        <time>2026-05-16T14:18:26.173Z</time>
      </trkpt>
      <trkpt lat="49.46459" lon="1.44445">
        <ele>170</ele>
        <time>2026-05-16T14:18:30.694Z</time>
      </trkpt>
      <trkpt lat="49.46462" lon="1.44441">
        <ele>170</ele>
        <time>2026-05-16T14:18:34.800Z</time>
      </trkpt>
      <trkpt lat="49.46463" lon="1.44438">
        <ele>170</ele>
        <time>2026-05-16T14:18:38.997Z</time>
      </trkpt>
      <trkpt lat="49.46463" lon="1.44434">
        <ele>170</ele>
        <time>2026-05-16T14:18:43.800Z</time>
      </trkpt>
      <trkpt lat="49.46465" lon="1.44434">
        <ele>170</ele>
        <time>2026-05-16T14:18:48.074Z</time>
      </trkpt>
      <trkpt lat="49.4647" lon="1.44432">
        <ele>170</ele>
        <time>2026-05-16T14:18:52.112Z</time>
      </trkpt>
      <trkpt lat="49.46475" lon="1.4443">
        <ele>171</ele>
        <time>2026-05-16T14:18:56.177Z</time>
      </trkpt>
      <trkpt lat="49.46478" lon="1.44425">
        <ele>171</ele>
        <time>2026-05-16T14:19:00.320Z</time>
      </trkpt>
      <trkpt lat="49.46482" lon="1.44421">
        <ele>171</ele>
        <time>2026-05-16T14:19:04.376Z</time>
      </trkpt>
      <trkpt lat="49.46486" lon="1.44417">
        <ele>171</ele>
        <time>2026-05-16T14:19:08.395Z</time>
      </trkpt>
      <trkpt lat="49.46491" lon="1.44413">
        <ele>171</ele>
        <time>2026-05-16T14:19:12.433Z</time>
      </trkpt>
      <trkpt lat="49.46494" lon="1.4441">
        <ele>171</ele>
        <time>2026-05-16T14:19:16.455Z</time>
      </trkpt>
      <trkpt lat="49.46499" lon="1.44406">
        <ele>171</ele>
        <time>2026-05-16T14:19:20.501Z</time>
      </trkpt>
      <trkpt lat="49.46501" lon="1.44406">
        <ele>171</ele>
        <time>2026-05-16T14:19:24.513Z</time>
      </trkpt>
      <trkpt lat="49.46506" lon="1.44398">
        <ele>172</ele>
        <time>2026-05-16T14:19:28.998Z</time>
      </trkpt>
      <trkpt lat="49.4651" lon="1.44394">
        <ele>172</ele>
        <time>2026-05-16T14:19:33.415Z</time>
      </trkpt>
      <trkpt lat="49.46513" lon="1.4439">
        <ele>172</ele>
        <time>2026-05-16T14:19:38.013Z</time>
      </trkpt>
      <trkpt lat="49.4652" lon="1.44388">
        <ele>173</ele>
        <time>2026-05-16T14:19:42.595Z</time>
      </trkpt>
      <trkpt lat="49.46523" lon="1.44383">
        <ele>173</ele>
        <time>2026-05-16T14:19:46.800Z</time>
      </trkpt>
      <trkpt lat="49.46528" lon="1.44381">
        <ele>173</ele>
        <time>2026-05-16T14:19:51.312Z</time>
      </trkpt>
      <trkpt lat="49.46534" lon="1.44376">
        <ele>173</ele>
        <time>2026-05-16T14:19:55.377Z</time>
      </trkpt>
      <trkpt lat="49.46538" lon="1.44373">
        <ele>173</ele>
        <time>2026-05-16T14:19:59.416Z</time>
      </trkpt>
      <trkpt lat="49.46543" lon="1.44368">
        <ele>174</ele>
        <time>2026-05-16T14:20:03.435Z</time>
      </trkpt>
      <trkpt lat="49.46547" lon="1.44363">
        <ele>174</ele>
        <time>2026-05-16T14:20:07.457Z</time>
      </trkpt>
      <trkpt lat="49.46551" lon="1.44362">
        <ele>174</ele>
        <time>2026-05-16T14:20:11.775Z</time>
      </trkpt>
      <trkpt lat="49.46556" lon="1.4436">
        <ele>174</ele>
        <time>2026-05-16T14:20:16.295Z</time>
      </trkpt>
      <trkpt lat="49.46561" lon="1.44358">
        <ele>174</ele>
        <time>2026-05-16T14:20:20.799Z</time>
      </trkpt>
      <trkpt lat="49.46566" lon="1.44355">
        <ele>174</ele>
        <time>2026-05-16T14:20:24.800Z</time>
      </trkpt>
      <trkpt lat="49.46571" lon="1.44351">
        <ele>174</ele>
        <time>2026-05-16T14:20:29.498Z</time>
      </trkpt>
      <trkpt lat="49.46576" lon="1.44347">
        <ele>174</ele>
        <time>2026-05-16T14:20:34.036Z</time>
      </trkpt>
      <trkpt lat="49.4658" lon="1.44344">
        <ele>174</ele>
        <time>2026-05-16T14:20:38.057Z</time>
      </trkpt>
      <trkpt lat="49.46585" lon="1.4434">
        <ele>174</ele>
        <time>2026-05-16T14:20:42.639Z</time>
      </trkpt>
      <trkpt lat="49.4659" lon="1.44336">
        <ele>174</ele>
        <time>2026-05-16T14:20:46.721Z</time>
      </trkpt>
      <trkpt lat="49.46592" lon="1.44335">
        <ele>174</ele>
        <time>2026-05-16T14:20:50.793Z</time>
      </trkpt>
      <trkpt lat="49.46598" lon="1.44334">
        <ele>174</ele>
        <time>2026-05-16T14:20:54.800Z</time>
      </trkpt>
      <trkpt lat="49.46605" lon="1.4432">
        <ele>174</ele>
        <time>2026-05-16T14:21:14.800Z</time>
      </trkpt>
      <trkpt lat="49.46605" lon="1.4432">
        <ele>174</ele>
        <time>2026-05-16T14:21:22.800Z</time>
      </trkpt>
      <trkpt lat="49.46609" lon="1.44318">
        <ele>173</ele>
        <time>2026-05-16T14:21:26.995Z</time>
      </trkpt>
      <trkpt lat="49.46614" lon="1.44313">
        <ele>173</ele>
        <time>2026-05-16T14:21:31.016Z</time>
      </trkpt>
      <trkpt lat="49.46619" lon="1.44308">
        <ele>173</ele>
        <time>2026-05-16T14:21:35.273Z</time>
      </trkpt>
      <trkpt lat="49.46624" lon="1.44303">
        <ele>173</ele>
        <time>2026-05-16T14:21:39.777Z</time>
      </trkpt>
      <trkpt lat="49.46627" lon="1.44297">
        <ele>174</ele>
        <time>2026-05-16T14:21:44.174Z</time>
      </trkpt>
      <trkpt lat="49.46631" lon="1.4429">
        <ele>174</ele>
        <time>2026-05-16T14:21:48.695Z</time>
      </trkpt>
      <trkpt lat="49.46636" lon="1.44284">
        <ele>174</ele>
        <time>2026-05-16T14:21:53.233Z</time>
      </trkpt>
      <trkpt lat="49.4664" lon="1.44279">
        <ele>174</ele>
        <time>2026-05-16T14:21:57.695Z</time>
      </trkpt>
      <trkpt lat="49.46645" lon="1.44275">
        <ele>174</ele>
        <time>2026-05-16T14:22:02.195Z</time>
      </trkpt>
      <trkpt lat="49.46648" lon="1.4427">
        <ele>174</ele>
        <time>2026-05-16T14:22:06.800Z</time>
      </trkpt>
      <trkpt lat="49.46651" lon="1.44265">
        <ele>174</ele>
        <time>2026-05-16T14:22:11.052Z</time>
      </trkpt>
      <trkpt lat="49.46657" lon="1.4426">
        <ele>174</ele>
        <time>2026-05-16T14:22:15.415Z</time>
      </trkpt>
      <trkpt lat="49.46662" lon="1.44256">
        <ele>174</ele>
        <time>2026-05-16T14:22:19.795Z</time>
      </trkpt>
      <trkpt lat="49.46667" lon="1.44252">
        <ele>174</ele>
        <time>2026-05-16T14:22:24.738Z</time>
      </trkpt>
      <trkpt lat="49.46669" lon="1.44246">
        <ele>174</ele>
        <time>2026-05-16T14:22:29.276Z</time>
      </trkpt>
      <trkpt lat="49.46669" lon="1.44237">
        <ele>174</ele>
        <time>2026-05-16T14:22:33.800Z</time>
      </trkpt>
      <trkpt lat="49.46669" lon="1.44233">
        <ele>173</ele>
        <time>2026-05-16T14:22:37.800Z</time>
      </trkpt>
      <trkpt lat="49.46677" lon="1.44227">
        <ele>173</ele>
        <time>2026-05-16T14:22:41.999Z</time>
      </trkpt>
      <trkpt lat="49.4668" lon="1.44225">
        <ele>173</ele>
        <time>2026-05-16T14:22:46.800Z</time>
      </trkpt>
      <trkpt lat="49.46681" lon="1.44223">
        <ele>173</ele>
        <time>2026-05-16T14:33:50.799Z</time>
      </trkpt>
      <trkpt lat="49.46681" lon="1.44223">
        <ele>173</ele>
        <time>2026-05-16T14:33:56.799Z</time>
      </trkpt>
      <trkpt lat="49.46679" lon="1.44222">
        <ele>173</ele>
        <time>2026-05-16T14:34:00.799Z</time>
      </trkpt>
      <trkpt lat="49.46677" lon="1.44219">
        <ele>173</ele>
        <time>2026-05-16T14:34:04.800Z</time>
      </trkpt>
      <trkpt lat="49.46672" lon="1.44214">
        <ele>173</ele>
        <time>2026-05-16T14:34:09.800Z</time>
      </trkpt>
      <trkpt lat="49.46665" lon="1.44199">
        <ele>172</ele>
        <time>2026-05-16T14:34:27.800Z</time>
      </trkpt>
      <trkpt lat="49.46665" lon="1.44199">
        <ele>172</ele>
        <time>2026-05-16T14:34:32.800Z</time>
      </trkpt>
      <trkpt lat="49.46665" lon="1.44199">
        <ele>172</ele>
        <time>2026-05-16T14:34:36.800Z</time>
      </trkpt>
      <trkpt lat="49.46664" lon="1.44199">
        <ele>172</ele>
        <time>2026-05-16T14:34:41.015Z</time>
      </trkpt>
      <trkpt lat="49.46661" lon="1.44195">
        <ele>172</ele>
        <time>2026-05-16T14:34:45.457Z</time>
      </trkpt>
      <trkpt lat="49.46657" lon="1.44198">
        <ele>172</ele>
        <time>2026-05-16T14:34:49.800Z</time>
      </trkpt>
      <trkpt lat="49.46654" lon="1.44195">
        <ele>172</ele>
        <time>2026-05-16T14:34:54.138Z</time>
      </trkpt>
      <trkpt lat="49.46652" lon="1.44186">
        <ele>173</ele>
        <time>2026-05-16T14:34:58.475Z</time>
      </trkpt>
      <trkpt lat="49.46649" lon="1.44176">
        <ele>172</ele>
        <time>2026-05-16T14:35:02.800Z</time>
      </trkpt>
      <trkpt lat="49.46647" lon="1.44167">
        <ele>172</ele>
        <time>2026-05-16T14:35:07.297Z</time>
      </trkpt>
      <trkpt lat="49.46647" lon="1.44159">
        <ele>172</ele>
        <time>2026-05-16T14:35:11.660Z</time>
      </trkpt>
      <trkpt lat="49.46647" lon="1.44149">
        <ele>172</ele>
        <time>2026-05-16T14:35:16.014Z</time>
      </trkpt>
      <trkpt lat="49.46648" lon="1.44141">
        <ele>172</ele>
        <time>2026-05-16T14:35:20.360Z</time>
      </trkpt>
      <trkpt lat="49.46649" lon="1.44133">
        <ele>172</ele>
        <time>2026-05-16T14:35:24.714Z</time>
      </trkpt>
      <trkpt lat="49.46652" lon="1.44126">
        <ele>172</ele>
        <time>2026-05-16T14:35:29.155Z</time>
      </trkpt>
      <trkpt lat="49.46653" lon="1.4412">
        <ele>172</ele>
        <time>2026-05-16T14:35:33.580Z</time>
      </trkpt>
      <trkpt lat="49.46653" lon="1.4411">
        <ele>172</ele>
        <time>2026-05-16T14:35:38.012Z</time>
      </trkpt>
      <trkpt lat="49.46654" lon="1.44102">
        <ele>172</ele>
        <time>2026-05-16T14:35:42.394Z</time>
      </trkpt>
      <trkpt lat="49.46655" lon="1.44093">
        <ele>173</ele>
        <time>2026-05-16T14:35:46.738Z</time>
      </trkpt>
      <trkpt lat="49.46656" lon="1.44085">
        <ele>173</ele>
        <time>2026-05-16T14:35:51.154Z</time>
      </trkpt>
      <trkpt lat="49.46658" lon="1.44077">
        <ele>173</ele>
        <time>2026-05-16T14:35:55.561Z</time>
      </trkpt>
      <trkpt lat="49.46659" lon="1.4407">
        <ele>173</ele>
        <time>2026-05-16T14:36:00.055Z</time>
      </trkpt>
      <trkpt lat="49.46661" lon="1.44063">
        <ele>173</ele>
        <time>2026-05-16T14:36:04.437Z</time>
      </trkpt>
      <trkpt lat="49.46663" lon="1.44055">
        <ele>173</ele>
        <time>2026-05-16T14:36:08.702Z</time>
      </trkpt>
      <trkpt lat="49.46665" lon="1.44047">
        <ele>173</ele>
        <time>2026-05-16T14:36:13.048Z</time>
      </trkpt>
      <trkpt lat="49.46667" lon="1.4404">
        <ele>173</ele>
        <time>2026-05-16T14:36:17.350Z</time>
      </trkpt>
      <trkpt lat="49.4667" lon="1.44033">
        <ele>173</ele>
        <time>2026-05-16T14:36:21.686Z</time>
      </trkpt>
      <trkpt lat="49.4667" lon="1.44026">
        <ele>173</ele>
        <time>2026-05-16T14:36:25.799Z</time>
      </trkpt>
      <trkpt lat="49.46671" lon="1.44016">
        <ele>173</ele>
        <time>2026-05-16T14:36:30.228Z</time>
      </trkpt>
      <trkpt lat="49.46673" lon="1.4401">
        <ele>173</ele>
        <time>2026-05-16T14:36:34.706Z</time>
      </trkpt>
      <trkpt lat="49.46675" lon="1.44">
        <ele>173</ele>
        <time>2026-05-16T14:36:38.963Z</time>
      </trkpt>
      <trkpt lat="49.46678" lon="1.43992">
        <ele>173</ele>
        <time>2026-05-16T14:36:43.424Z</time>
      </trkpt>
      <trkpt lat="49.46679" lon="1.43983">
        <ele>172</ele>
        <time>2026-05-16T14:36:47.724Z</time>
      </trkpt>
      <trkpt lat="49.4668" lon="1.43975">
        <ele>172</ele>
        <time>2026-05-16T14:36:52.153Z</time>
      </trkpt>
      <trkpt lat="49.46682" lon="1.43967">
        <ele>172</ele>
        <time>2026-05-16T14:36:56.704Z</time>
      </trkpt>
      <trkpt lat="49.46683" lon="1.43958">
        <ele>172</ele>
        <time>2026-05-16T14:37:00.962Z</time>
      </trkpt>
      <trkpt lat="49.46685" lon="1.4395">
        <ele>172</ele>
        <time>2026-05-16T14:37:05.325Z</time>
      </trkpt>
      <trkpt lat="49.46687" lon="1.43941">
        <ele>172</ele>
        <time>2026-05-16T14:37:09.723Z</time>
      </trkpt>
      <trkpt lat="49.46688" lon="1.43933">
        <ele>172</ele>
        <time>2026-05-16T14:37:14.147Z</time>
      </trkpt>
      <trkpt lat="49.4669" lon="1.43925">
        <ele>171</ele>
        <time>2026-05-16T14:37:18.562Z</time>
      </trkpt>
      <trkpt lat="49.46691" lon="1.43917">
        <ele>171</ele>
        <time>2026-05-16T14:37:22.908Z</time>
      </trkpt>
      <trkpt lat="49.4669" lon="1.43908">
        <ele>171</ele>
        <time>2026-05-16T14:37:27.306Z</time>
      </trkpt>
      <trkpt lat="49.46688" lon="1.439">
        <ele>171</ele>
        <time>2026-05-16T14:37:31.668Z</time>
      </trkpt>
      <trkpt lat="49.46686" lon="1.43892">
        <ele>171</ele>
        <time>2026-05-16T14:37:36.163Z</time>
      </trkpt>
      <trkpt lat="49.46683" lon="1.43884">
        <ele>171</ele>
        <time>2026-05-16T14:37:40.587Z</time>
      </trkpt>
      <trkpt lat="49.4668" lon="1.43877">
        <ele>171</ele>
        <time>2026-05-16T14:37:45.003Z</time>
      </trkpt>
      <trkpt lat="49.46676" lon="1.4387">
        <ele>172</ele>
        <time>2026-05-16T14:37:49.444Z</time>
      </trkpt>
      <trkpt lat="49.46673" lon="1.43863">
        <ele>172</ele>
        <time>2026-05-16T14:37:53.922Z</time>
      </trkpt>
      <trkpt lat="49.4667" lon="1.43855">
        <ele>172</ele>
        <time>2026-05-16T14:37:58.363Z</time>
      </trkpt>
      <trkpt lat="49.46668" lon="1.43847">
        <ele>172</ele>
        <time>2026-05-16T14:38:02.800Z</time>
      </trkpt>
      <trkpt lat="49.46667" lon="1.43839">
        <ele>172</ele>
        <time>2026-05-16T14:38:07.230Z</time>
      </trkpt>
      <trkpt lat="49.46666" lon="1.43829">
        <ele>172</ele>
        <time>2026-05-16T14:38:11.786Z</time>
      </trkpt>
      <trkpt lat="49.46666" lon="1.43821">
        <ele>172</ele>
        <time>2026-05-16T14:38:16.106Z</time>
      </trkpt>
      <trkpt lat="49.46665" lon="1.43812">
        <ele>173</ele>
        <time>2026-05-16T14:38:20.529Z</time>
      </trkpt>
      <trkpt lat="49.46665" lon="1.43803">
        <ele>173</ele>
        <time>2026-05-16T14:38:24.988Z</time>
      </trkpt>
      <trkpt lat="49.46665" lon="1.43795">
        <ele>173</ele>
        <time>2026-05-16T14:38:29.385Z</time>
      </trkpt>
      <trkpt lat="49.46665" lon="1.43787">
        <ele>173</ele>
        <time>2026-05-16T14:38:33.800Z</time>
      </trkpt>
      <trkpt lat="49.46665" lon="1.43777">
        <ele>173</ele>
        <time>2026-05-16T14:38:38.286Z</time>
      </trkpt>
      <trkpt lat="49.46665" lon="1.43768">
        <ele>173</ele>
        <time>2026-05-16T14:38:42.666Z</time>
      </trkpt>
      <trkpt lat="49.46664" lon="1.43759">
        <ele>172</ele>
        <time>2026-05-16T14:38:47.081Z</time>
      </trkpt>
      <trkpt lat="49.46664" lon="1.43751">
        <ele>172</ele>
        <time>2026-05-16T14:38:51.462Z</time>
      </trkpt>
      <trkpt lat="49.46664" lon="1.43745">
        <ele>172</ele>
        <time>2026-05-16T14:38:55.932Z</time>
      </trkpt>
      <trkpt lat="49.46663" lon="1.43734">
        <ele>173</ele>
        <time>2026-05-16T14:39:00.406Z</time>
      </trkpt>
      <trkpt lat="49.46662" lon="1.43726">
        <ele>173</ele>
        <time>2026-05-16T14:39:04.927Z</time>
      </trkpt>
      <trkpt lat="49.46662" lon="1.43716">
        <ele>173</ele>
        <time>2026-05-16T14:39:09.387Z</time>
      </trkpt>
      <trkpt lat="49.46662" lon="1.43708">
        <ele>173</ele>
        <time>2026-05-16T14:39:13.800Z</time>
      </trkpt>
      <trkpt lat="49.46662" lon="1.437">
        <ele>173</ele>
        <time>2026-05-16T14:39:17.806Z</time>
      </trkpt>
      <trkpt lat="49.46661" lon="1.43691">
        <ele>173</ele>
        <time>2026-05-16T14:39:22.307Z</time>
      </trkpt>
      <trkpt lat="49.4666" lon="1.43683">
        <ele>173</ele>
        <time>2026-05-16T14:39:26.800Z</time>
      </trkpt>
      <trkpt lat="49.4666" lon="1.43675">
        <ele>172</ele>
        <time>2026-05-16T14:39:31.243Z</time>
      </trkpt>
      <trkpt lat="49.4666" lon="1.43666">
        <ele>172</ele>
        <time>2026-05-16T14:39:35.728Z</time>
      </trkpt>
      <trkpt lat="49.46659" lon="1.43658">
        <ele>172</ele>
        <time>2026-05-16T14:39:40.030Z</time>
      </trkpt>
      <trkpt lat="49.46659" lon="1.43649">
        <ele>171</ele>
        <time>2026-05-16T14:39:44.411Z</time>
      </trkpt>
      <trkpt lat="49.46659" lon="1.4364">
        <ele>171</ele>
        <time>2026-05-16T14:39:48.800Z</time>
      </trkpt>
      <trkpt lat="49.46659" lon="1.43631">
        <ele>171</ele>
        <time>2026-05-16T14:39:53.347Z</time>
      </trkpt>
      <trkpt lat="49.46658" lon="1.43623">
        <ele>171</ele>
        <time>2026-05-16T14:39:57.745Z</time>
      </trkpt>
      <trkpt lat="49.46658" lon="1.43614">
        <ele>171</ele>
        <time>2026-05-16T14:40:02.221Z</time>
      </trkpt>
      <trkpt lat="49.46658" lon="1.43606">
        <ele>171</ele>
        <time>2026-05-16T14:40:06.524Z</time>
      </trkpt>
      <trkpt lat="49.46658" lon="1.43597">
        <ele>171</ele>
        <time>2026-05-16T14:40:10.983Z</time>
      </trkpt>
      <trkpt lat="49.46658" lon="1.43589">
        <ele>171</ele>
        <time>2026-05-16T14:40:15.391Z</time>
      </trkpt>
      <trkpt lat="49.46657" lon="1.4358">
        <ele>171</ele>
        <time>2026-05-16T14:40:19.800Z</time>
      </trkpt>
      <trkpt lat="49.46657" lon="1.43571">
        <ele>171</ele>
        <time>2026-05-16T14:40:24.326Z</time>
      </trkpt>
      <trkpt lat="49.46657" lon="1.43563">
        <ele>171</ele>
        <time>2026-05-16T14:40:28.785Z</time>
      </trkpt>
      <trkpt lat="49.46656" lon="1.43554">
        <ele>171</ele>
        <time>2026-05-16T14:40:33.213Z</time>
      </trkpt>
      <trkpt lat="49.46656" lon="1.43546">
        <ele>171</ele>
        <time>2026-05-16T14:40:37.641Z</time>
      </trkpt>
      <trkpt lat="49.46656" lon="1.43537">
        <ele>171</ele>
        <time>2026-05-16T14:40:42.083Z</time>
      </trkpt>
      <trkpt lat="49.46656" lon="1.43529">
        <ele>171</ele>
        <time>2026-05-16T14:40:46.525Z</time>
      </trkpt>
      <trkpt lat="49.46656" lon="1.4352">
        <ele>171</ele>
        <time>2026-05-16T14:40:50.949Z</time>
      </trkpt>
      <trkpt lat="49.46655" lon="1.43511">
        <ele>172</ele>
        <time>2026-05-16T14:40:55.443Z</time>
      </trkpt>
      <trkpt lat="49.46655" lon="1.43503">
        <ele>172</ele>
        <time>2026-05-16T14:40:59.929Z</time>
      </trkpt>
      <trkpt lat="49.46654" lon="1.43494">
        <ele>172</ele>
        <time>2026-05-16T14:41:04.372Z</time>
      </trkpt>
      <trkpt lat="49.46654" lon="1.43485">
        <ele>171</ele>
        <time>2026-05-16T14:41:08.785Z</time>
      </trkpt>
      <trkpt lat="49.46654" lon="1.43476">
        <ele>171</ele>
        <time>2026-05-16T14:41:13.182Z</time>
      </trkpt>
      <trkpt lat="49.46653" lon="1.43469">
        <ele>171</ele>
        <time>2026-05-16T14:41:17.609Z</time>
      </trkpt>
      <trkpt lat="49.46652" lon="1.43461">
        <ele>171</ele>
        <time>2026-05-16T14:41:22.005Z</time>
      </trkpt>
      <trkpt lat="49.46652" lon="1.43452">
        <ele>171</ele>
        <time>2026-05-16T14:41:26.385Z</time>
      </trkpt>
      <trkpt lat="49.4665" lon="1.43444">
        <ele>171</ele>
        <time>2026-05-16T14:41:30.800Z</time>
      </trkpt>
      <trkpt lat="49.46649" lon="1.43435">
        <ele>171</ele>
        <time>2026-05-16T14:41:35.242Z</time>
      </trkpt>
      <trkpt lat="49.46646" lon="1.43427">
        <ele>171</ele>
        <time>2026-05-16T14:41:39.683Z</time>
      </trkpt>
      <trkpt lat="49.46644" lon="1.4342">
        <ele>171</ele>
        <time>2026-05-16T14:41:44.091Z</time>
      </trkpt>
      <trkpt lat="49.46641" lon="1.43413">
        <ele>171</ele>
        <time>2026-05-16T14:41:48.425Z</time>
      </trkpt>
      <trkpt lat="49.46638" lon="1.43406">
        <ele>171</ele>
        <time>2026-05-16T14:41:52.446Z</time>
      </trkpt>
      <trkpt lat="49.46635" lon="1.43398">
        <ele>172</ele>
        <time>2026-05-16T14:41:56.730Z</time>
      </trkpt>
      <trkpt lat="49.46632" lon="1.43392">
        <ele>172</ele>
        <time>2026-05-16T14:42:01.145Z</time>
      </trkpt>
      <trkpt lat="49.46629" lon="1.43384">
        <ele>172</ele>
        <time>2026-05-16T14:42:05.682Z</time>
      </trkpt>
      <trkpt lat="49.46626" lon="1.43377">
        <ele>172</ele>
        <time>2026-05-16T14:42:10.027Z</time>
      </trkpt>
      <trkpt lat="49.46625" lon="1.43369">
        <ele>172</ele>
        <time>2026-05-16T14:42:14.504Z</time>
      </trkpt>
      <trkpt lat="49.46623" lon="1.43362">
        <ele>172</ele>
        <time>2026-05-16T14:42:18.800Z</time>
      </trkpt>
      <trkpt lat="49.4662" lon="1.43355">
        <ele>172</ele>
        <time>2026-05-16T14:42:23.027Z</time>
      </trkpt>
      <trkpt lat="49.46618" lon="1.43346">
        <ele>172</ele>
        <time>2026-05-16T14:42:27.468Z</time>
      </trkpt>
      <trkpt lat="49.46617" lon="1.43338">
        <ele>172</ele>
        <time>2026-05-16T14:42:31.800Z</time>
      </trkpt>
      <trkpt lat="49.46615" lon="1.43329">
        <ele>172</ele>
        <time>2026-05-16T14:42:36.325Z</time>
      </trkpt>
      <trkpt lat="49.46615" lon="1.4332">
        <ele>172</ele>
        <time>2026-05-16T14:42:40.688Z</time>
      </trkpt>
      <trkpt lat="49.46613" lon="1.43311">
        <ele>172</ele>
        <time>2026-05-16T14:42:45.242Z</time>
      </trkpt>
      <trkpt lat="49.46611" lon="1.43303">
        <ele>172</ele>
        <time>2026-05-16T14:42:49.728Z</time>
      </trkpt>
      <trkpt lat="49.46611" lon="1.43294">
        <ele>172</ele>
        <time>2026-05-16T14:42:54.126Z</time>
      </trkpt>
      <trkpt lat="49.4661" lon="1.43286">
        <ele>172</ele>
        <time>2026-05-16T14:42:58.567Z</time>
      </trkpt>
      <trkpt lat="49.4661" lon="1.43277">
        <ele>172</ele>
        <time>2026-05-16T14:43:03.105Z</time>
      </trkpt>
      <trkpt lat="49.46609" lon="1.43269">
        <ele>172</ele>
        <time>2026-05-16T14:43:07.592Z</time>
      </trkpt>
      <trkpt lat="49.46608" lon="1.4326">
        <ele>171</ele>
        <time>2026-05-16T14:43:12.022Z</time>
      </trkpt>
      <trkpt lat="49.46608" lon="1.43252">
        <ele>171</ele>
        <time>2026-05-16T14:43:16.492Z</time>
      </trkpt>
      <trkpt lat="49.46607" lon="1.43243">
        <ele>171</ele>
        <time>2026-05-16T14:43:20.800Z</time>
      </trkpt>
      <trkpt lat="49.46606" lon="1.43235">
        <ele>171</ele>
        <time>2026-05-16T14:43:25.346Z</time>
      </trkpt>
      <trkpt lat="49.46606" lon="1.43226">
        <ele>171</ele>
        <time>2026-05-16T14:43:29.800Z</time>
      </trkpt>
      <trkpt lat="49.46605" lon="1.43217">
        <ele>171</ele>
        <time>2026-05-16T14:43:34.231Z</time>
      </trkpt>
      <trkpt lat="49.46604" lon="1.43209">
        <ele>171</ele>
        <time>2026-05-16T14:43:38.646Z</time>
      </trkpt>
      <trkpt lat="49.46603" lon="1.43201">
        <ele>171</ele>
        <time>2026-05-16T14:43:43.086Z</time>
      </trkpt>
      <trkpt lat="49.46602" lon="1.43192">
        <ele>171</ele>
        <time>2026-05-16T14:43:47.527Z</time>
      </trkpt>
      <trkpt lat="49.46601" lon="1.43183">
        <ele>171</ele>
        <time>2026-05-16T14:43:51.925Z</time>
      </trkpt>
      <trkpt lat="49.466" lon="1.43176">
        <ele>170</ele>
        <time>2026-05-16T14:43:56.366Z</time>
      </trkpt>
      <trkpt lat="49.46598" lon="1.43168">
        <ele>170</ele>
        <time>2026-05-16T14:44:00.701Z</time>
      </trkpt>
      <trkpt lat="49.46596" lon="1.4316">
        <ele>170</ele>
        <time>2026-05-16T14:44:05.188Z</time>
      </trkpt>
      <trkpt lat="49.46594" lon="1.43151">
        <ele>169</ele>
        <time>2026-05-16T14:44:09.663Z</time>
      </trkpt>
      <trkpt lat="49.46592" lon="1.43144">
        <ele>169</ele>
        <time>2026-05-16T14:44:14.071Z</time>
      </trkpt>
      <trkpt lat="49.4659" lon="1.43136">
        <ele>169</ele>
        <time>2026-05-16T14:44:18.451Z</time>
      </trkpt>
      <trkpt lat="49.46588" lon="1.43128">
        <ele>169</ele>
        <time>2026-05-16T14:44:22.800Z</time>
      </trkpt>
      <trkpt lat="49.46586" lon="1.43121">
        <ele>168</ele>
        <time>2026-05-16T14:44:27.352Z</time>
      </trkpt>
      <trkpt lat="49.46584" lon="1.43112">
        <ele>168</ele>
        <time>2026-05-16T14:44:31.800Z</time>
      </trkpt>
      <trkpt lat="49.46582" lon="1.43105">
        <ele>168</ele>
        <time>2026-05-16T14:44:36.251Z</time>
      </trkpt>
      <trkpt lat="49.46579" lon="1.43097">
        <ele>169</ele>
        <time>2026-05-16T14:44:40.709Z</time>
      </trkpt>
      <trkpt lat="49.46577" lon="1.43089">
        <ele>169</ele>
        <time>2026-05-16T14:44:45.246Z</time>
      </trkpt>
      <trkpt lat="49.46575" lon="1.43081">
        <ele>169</ele>
        <time>2026-05-16T14:44:49.751Z</time>
      </trkpt>
      <trkpt lat="49.46572" lon="1.43073">
        <ele>169</ele>
        <time>2026-05-16T14:44:54.146Z</time>
      </trkpt>
      <trkpt lat="49.4657" lon="1.43065">
        <ele>169</ele>
        <time>2026-05-16T14:44:58.605Z</time>
      </trkpt>
      <trkpt lat="49.46569" lon="1.43057">
        <ele>170</ele>
        <time>2026-05-16T14:45:03.031Z</time>
      </trkpt>
      <trkpt lat="49.46568" lon="1.43049">
        <ele>170</ele>
        <time>2026-05-16T14:45:07.409Z</time>
      </trkpt>
      <trkpt lat="49.46566" lon="1.43041">
        <ele>171</ele>
        <time>2026-05-16T14:45:11.800Z</time>
      </trkpt>
      <trkpt lat="49.46564" lon="1.43033">
        <ele>171</ele>
        <time>2026-05-16T14:45:16.326Z</time>
      </trkpt>
      <trkpt lat="49.46562" lon="1.43024">
        <ele>171</ele>
        <time>2026-05-16T14:45:20.768Z</time>
      </trkpt>
      <trkpt lat="49.4656" lon="1.43015">
        <ele>171</ele>
        <time>2026-05-16T14:45:25.183Z</time>
      </trkpt>
      <trkpt lat="49.46559" lon="1.43007">
        <ele>171</ele>
        <time>2026-05-16T14:45:29.545Z</time>
      </trkpt>
      <trkpt lat="49.46557" lon="1.42999">
        <ele>171</ele>
        <time>2026-05-16T14:45:33.969Z</time>
      </trkpt>
      <trkpt lat="49.46555" lon="1.42991">
        <ele>171</ele>
        <time>2026-05-16T14:45:38.445Z</time>
      </trkpt>
      <trkpt lat="49.46553" lon="1.42983">
        <ele>170</ele>
        <time>2026-05-16T14:45:42.800Z</time>
      </trkpt>
      <trkpt lat="49.46551" lon="1.42976">
        <ele>170</ele>
        <time>2026-05-16T14:45:47.327Z</time>
      </trkpt>
      <trkpt lat="49.46549" lon="1.42968">
        <ele>170</ele>
        <time>2026-05-16T14:45:51.742Z</time>
      </trkpt>
      <trkpt lat="49.46547" lon="1.4296">
        <ele>170</ele>
        <time>2026-05-16T14:45:56.122Z</time>
      </trkpt>
      <trkpt lat="49.46544" lon="1.42953">
        <ele>169</ele>
        <time>2026-05-16T14:46:00.591Z</time>
      </trkpt>
      <trkpt lat="49.46542" lon="1.42945">
        <ele>169</ele>
        <time>2026-05-16T14:46:04.987Z</time>
      </trkpt>
      <trkpt lat="49.46539" lon="1.42937">
        <ele>169</ele>
        <time>2026-05-16T14:46:09.446Z</time>
      </trkpt>
      <trkpt lat="49.46537" lon="1.42929">
        <ele>168</ele>
        <time>2026-05-16T14:46:13.800Z</time>
      </trkpt>
      <trkpt lat="49.46534" lon="1.42921">
        <ele>168</ele>
        <time>2026-05-16T14:46:18.328Z</time>
      </trkpt>
      <trkpt lat="49.46531" lon="1.42914">
        <ele>168</ele>
        <time>2026-05-16T14:46:22.800Z</time>
      </trkpt>
      <trkpt lat="49.46528" lon="1.42906">
        <ele>168</ele>
        <time>2026-05-16T14:46:27.343Z</time>
      </trkpt>
      <trkpt lat="49.46525" lon="1.42899">
        <ele>167</ele>
        <time>2026-05-16T14:46:31.783Z</time>
      </trkpt>
      <trkpt lat="49.46522" lon="1.42891">
        <ele>167</ele>
        <time>2026-05-16T14:46:36.163Z</time>
      </trkpt>
      <trkpt lat="49.4652" lon="1.42884">
        <ele>167</ele>
        <time>2026-05-16T14:46:40.544Z</time>
      </trkpt>
      <trkpt lat="49.46517" lon="1.42877">
        <ele>167</ele>
        <time>2026-05-16T14:46:44.872Z</time>
      </trkpt>
      <trkpt lat="49.46514" lon="1.42869">
        <ele>167</ele>
        <time>2026-05-16T14:46:49.286Z</time>
      </trkpt>
      <trkpt lat="49.46512" lon="1.42862">
        <ele>167</ele>
        <time>2026-05-16T14:46:53.710Z</time>
      </trkpt>
      <trkpt lat="49.4651" lon="1.42854">
        <ele>167</ele>
        <time>2026-05-16T14:46:58.151Z</time>
      </trkpt>
      <trkpt lat="49.46508" lon="1.42846">
        <ele>168</ele>
        <time>2026-05-16T14:47:02.547Z</time>
      </trkpt>
      <trkpt lat="49.46505" lon="1.42837">
        <ele>168</ele>
        <time>2026-05-16T14:47:07.023Z</time>
      </trkpt>
      <trkpt lat="49.46503" lon="1.4283">
        <ele>168</ele>
        <time>2026-05-16T14:47:11.464Z</time>
      </trkpt>
      <trkpt lat="49.46501" lon="1.42821">
        <ele>168</ele>
        <time>2026-05-16T14:47:16.485Z</time>
      </trkpt>
      <trkpt lat="49.46499" lon="1.42813">
        <ele>168</ele>
        <time>2026-05-16T14:47:20.800Z</time>
      </trkpt>
      <trkpt lat="49.46497" lon="1.42804">
        <ele>168</ele>
        <time>2026-05-16T14:47:25.447Z</time>
      </trkpt>
      <trkpt lat="49.46495" lon="1.42797">
        <ele>168</ele>
        <time>2026-05-16T14:47:29.800Z</time>
      </trkpt>
      <trkpt lat="49.46493" lon="1.42788">
        <ele>168</ele>
        <time>2026-05-16T14:47:34.328Z</time>
      </trkpt>
      <trkpt lat="49.46491" lon="1.42781">
        <ele>168</ele>
        <time>2026-05-16T14:47:38.800Z</time>
      </trkpt>
      <trkpt lat="49.46489" lon="1.42772">
        <ele>168</ele>
        <time>2026-05-16T14:47:43.343Z</time>
      </trkpt>
      <trkpt lat="49.46487" lon="1.42764">
        <ele>168</ele>
        <time>2026-05-16T14:47:47.800Z</time>
      </trkpt>
      <trkpt lat="49.46484" lon="1.42757">
        <ele>167</ele>
        <time>2026-05-16T14:47:52.269Z</time>
      </trkpt>
      <trkpt lat="49.46481" lon="1.4275">
        <ele>167</ele>
        <time>2026-05-16T14:47:56.744Z</time>
      </trkpt>
      <trkpt lat="49.46479" lon="1.42744">
        <ele>167</ele>
        <time>2026-05-16T14:48:00.800Z</time>
      </trkpt>
      <trkpt lat="49.46476" lon="1.42737">
        <ele>167</ele>
        <time>2026-05-16T14:48:04.969Z</time>
      </trkpt>
      <trkpt lat="49.46474" lon="1.42729">
        <ele>166</ele>
        <time>2026-05-16T14:48:09.367Z</time>
      </trkpt>
      <trkpt lat="49.46471" lon="1.42722">
        <ele>166</ele>
        <time>2026-05-16T14:48:13.685Z</time>
      </trkpt>
      <trkpt lat="49.46468" lon="1.42716">
        <ele>166</ele>
        <time>2026-05-16T14:48:18.248Z</time>
      </trkpt>
      <trkpt lat="49.46465" lon="1.42711">
        <ele>166</ele>
        <time>2026-05-16T14:48:22.347Z</time>
      </trkpt>
      <trkpt lat="49.46462" lon="1.42706">
        <ele>165</ele>
        <time>2026-05-16T14:48:26.800Z</time>
      </trkpt>
      <trkpt lat="49.46459" lon="1.427">
        <ele>165</ele>
        <time>2026-05-16T14:48:31.106Z</time>
      </trkpt>
      <trkpt lat="49.46456" lon="1.42695">
        <ele>166</ele>
        <time>2026-05-16T14:48:35.187Z</time>
      </trkpt>
      <trkpt lat="49.46454" lon="1.42688">
        <ele>166</ele>
        <time>2026-05-16T14:49:27.800Z</time>
      </trkpt>
      <trkpt lat="49.46454" lon="1.42688">
        <ele>166</ele>
        <time>2026-05-16T14:49:36.800Z</time>
      </trkpt>
      <trkpt lat="49.46452" lon="1.42685">
        <ele>166</ele>
        <time>2026-05-16T14:49:41.800Z</time>
      </trkpt>
      <trkpt lat="49.4645" lon="1.42678">
        <ele>165</ele>
        <time>2026-05-16T14:49:45.800Z</time>
      </trkpt>
      <trkpt lat="49.46449" lon="1.42671">
        <ele>165</ele>
        <time>2026-05-16T14:49:49.800Z</time>
      </trkpt>
      <trkpt lat="49.46453" lon="1.42655">
        <ele>165</ele>
        <time>2026-05-16T14:50:49.746Z</time>
      </trkpt>
      <trkpt lat="49.46454" lon="1.42651">
        <ele>165</ele>
        <time>2026-05-16T14:50:53.800Z</time>
      </trkpt>
      <trkpt lat="49.46456" lon="1.42641">
        <ele>165</ele>
        <time>2026-05-16T14:50:58.302Z</time>
      </trkpt>
      <trkpt lat="49.46455" lon="1.42633">
        <ele>165</ele>
        <time>2026-05-16T14:51:02.665Z</time>
      </trkpt>
      <trkpt lat="49.46454" lon="1.42624">
        <ele>165</ele>
        <time>2026-05-16T14:51:07.044Z</time>
      </trkpt>
      <trkpt lat="49.46454" lon="1.42616">
        <ele>165</ele>
        <time>2026-05-16T14:51:11.407Z</time>
      </trkpt>
      <trkpt lat="49.46453" lon="1.42607">
        <ele>165</ele>
        <time>2026-05-16T14:51:15.723Z</time>
      </trkpt>
      <trkpt lat="49.46454" lon="1.42598">
        <ele>165</ele>
        <time>2026-05-16T14:51:20.086Z</time>
      </trkpt>
      <trkpt lat="49.46454" lon="1.42589">
        <ele>165</ele>
        <time>2026-05-16T14:51:24.404Z</time>
      </trkpt>
      <trkpt lat="49.46454" lon="1.42581">
        <ele>165</ele>
        <time>2026-05-16T14:51:28.766Z</time>
      </trkpt>
      <trkpt lat="49.46455" lon="1.42572">
        <ele>165</ele>
        <time>2026-05-16T14:51:33.111Z</time>
      </trkpt>
      <trkpt lat="49.46455" lon="1.42563">
        <ele>164</ele>
        <time>2026-05-16T14:51:37.446Z</time>
      </trkpt>
      <trkpt lat="49.46456" lon="1.42554">
        <ele>164</ele>
        <time>2026-05-16T14:51:41.764Z</time>
      </trkpt>
      <trkpt lat="49.46456" lon="1.42544">
        <ele>164</ele>
        <time>2026-05-16T14:51:46.109Z</time>
      </trkpt>
      <trkpt lat="49.46456" lon="1.42534">
        <ele>163</ele>
        <time>2026-05-16T14:51:50.800Z</time>
      </trkpt>
      <trkpt lat="49.46457" lon="1.42524">
        <ele>163</ele>
        <time>2026-05-16T14:51:55.323Z</time>
      </trkpt>
      <trkpt lat="49.46459" lon="1.42515">
        <ele>163</ele>
        <time>2026-05-16T14:51:59.732Z</time>
      </trkpt>
      <trkpt lat="49.46461" lon="1.42507">
        <ele>162</ele>
        <time>2026-05-16T14:52:04.111Z</time>
      </trkpt>
      <trkpt lat="49.46463" lon="1.425">
        <ele>162</ele>
        <time>2026-05-16T14:52:08.489Z</time>
      </trkpt>
      <trkpt lat="49.46465" lon="1.42492">
        <ele>162</ele>
        <time>2026-05-16T14:52:12.800Z</time>
      </trkpt>
      <trkpt lat="49.46467" lon="1.42484">
        <ele>161</ele>
        <time>2026-05-16T14:52:17.327Z</time>
      </trkpt>
      <trkpt lat="49.46469" lon="1.42476">
        <ele>161</ele>
        <time>2026-05-16T14:52:21.706Z</time>
      </trkpt>
      <trkpt lat="49.46472" lon="1.42468">
        <ele>161</ele>
        <time>2026-05-16T14:52:26.147Z</time>
      </trkpt>
      <trkpt lat="49.46474" lon="1.4246">
        <ele>161</ele>
        <time>2026-05-16T14:52:30.511Z</time>
      </trkpt>
      <trkpt lat="49.46476" lon="1.42452">
        <ele>160</ele>
        <time>2026-05-16T14:52:34.800Z</time>
      </trkpt>
      <trkpt lat="49.46479" lon="1.42445">
        <ele>160</ele>
        <time>2026-05-16T14:52:39.102Z</time>
      </trkpt>
      <trkpt lat="49.46483" lon="1.4244">
        <ele>160</ele>
        <time>2026-05-16T14:52:43.464Z</time>
      </trkpt>
      <trkpt lat="49.46485" lon="1.42432">
        <ele>160</ele>
        <time>2026-05-16T14:52:47.747Z</time>
      </trkpt>
      <trkpt lat="49.46486" lon="1.42424">
        <ele>159</ele>
        <time>2026-05-16T14:52:51.800Z</time>
      </trkpt>
      <trkpt lat="49.46487" lon="1.42416">
        <ele>159</ele>
        <time>2026-05-16T14:52:56.151Z</time>
      </trkpt>
      <trkpt lat="49.4649" lon="1.42407">
        <ele>159</ele>
        <time>2026-05-16T14:53:00.469Z</time>
      </trkpt>
      <trkpt lat="49.46492" lon="1.42397">
        <ele>158</ele>
        <time>2026-05-16T14:53:04.809Z</time>
      </trkpt>
      <trkpt lat="49.46494" lon="1.42389">
        <ele>158</ele>
        <time>2026-05-16T14:53:09.044Z</time>
      </trkpt>
      <trkpt lat="49.46497" lon="1.42386">
        <ele>158</ele>
        <time>2026-05-16T14:53:13.344Z</time>
      </trkpt>
      <trkpt lat="49.465" lon="1.42377">
        <ele>158</ele>
        <time>2026-05-16T14:53:17.548Z</time>
      </trkpt>
      <trkpt lat="49.465" lon="1.42369">
        <ele>157</ele>
        <time>2026-05-16T14:53:21.848Z</time>
      </trkpt>
      <trkpt lat="49.46504" lon="1.42362">
        <ele>157</ele>
        <time>2026-05-16T14:53:26.228Z</time>
      </trkpt>
      <trkpt lat="49.46506" lon="1.42353">
        <ele>157</ele>
        <time>2026-05-16T14:53:30.529Z</time>
      </trkpt>
      <trkpt lat="49.46508" lon="1.42345">
        <ele>156</ele>
        <time>2026-05-16T14:53:34.800Z</time>
      </trkpt>
      <trkpt lat="49.4651" lon="1.42337">
        <ele>156</ele>
        <time>2026-05-16T14:53:39.306Z</time>
      </trkpt>
      <trkpt lat="49.46512" lon="1.42331">
        <ele>156</ele>
        <time>2026-05-16T14:53:43.685Z</time>
      </trkpt>
      <trkpt lat="49.46513" lon="1.42321">
        <ele>156</ele>
        <time>2026-05-16T14:53:48.066Z</time>
      </trkpt>
      <trkpt lat="49.46515" lon="1.42312">
        <ele>157</ele>
        <time>2026-05-16T14:53:52.410Z</time>
      </trkpt>
      <trkpt lat="49.46516" lon="1.42304">
        <ele>157</ele>
        <time>2026-05-16T14:53:56.800Z</time>
      </trkpt>
      <trkpt lat="49.46516" lon="1.42296">
        <ele>157</ele>
        <time>2026-05-16T14:54:01.108Z</time>
      </trkpt>
      <trkpt lat="49.46515" lon="1.42287">
        <ele>157</ele>
        <time>2026-05-16T14:54:05.426Z</time>
      </trkpt>
      <trkpt lat="49.46514" lon="1.42278">
        <ele>157</ele>
        <time>2026-05-16T14:54:09.787Z</time>
      </trkpt>
      <trkpt lat="49.46512" lon="1.42269">
        <ele>157</ele>
        <time>2026-05-16T14:54:14.123Z</time>
      </trkpt>
      <trkpt lat="49.4651" lon="1.42262">
        <ele>156</ele>
        <time>2026-05-16T14:54:18.486Z</time>
      </trkpt>
      <trkpt lat="49.46507" lon="1.42255">
        <ele>156</ele>
        <time>2026-05-16T14:54:22.800Z</time>
      </trkpt>
      <trkpt lat="49.46504" lon="1.42248">
        <ele>156</ele>
        <time>2026-05-16T14:54:27.305Z</time>
      </trkpt>
      <trkpt lat="49.465" lon="1.42242">
        <ele>156</ele>
        <time>2026-05-16T14:54:31.589Z</time>
      </trkpt>
      <trkpt lat="49.46497" lon="1.42235">
        <ele>156</ele>
        <time>2026-05-16T14:54:35.924Z</time>
      </trkpt>
      <trkpt lat="49.46493" lon="1.42229">
        <ele>156</ele>
        <time>2026-05-16T14:54:40.383Z</time>
      </trkpt>
      <trkpt lat="49.46489" lon="1.42223">
        <ele>156</ele>
        <time>2026-05-16T14:54:44.791Z</time>
      </trkpt>
      <trkpt lat="49.46486" lon="1.42216">
        <ele>156</ele>
        <time>2026-05-16T14:54:49.187Z</time>
      </trkpt>
      <trkpt lat="49.46482" lon="1.42209">
        <ele>156</ele>
        <time>2026-05-16T14:54:53.583Z</time>
      </trkpt>
      <trkpt lat="49.46479" lon="1.42203">
        <ele>155</ele>
        <time>2026-05-16T14:54:57.991Z</time>
      </trkpt>
      <trkpt lat="49.46475" lon="1.42195">
        <ele>155</ele>
        <time>2026-05-16T14:55:02.546Z</time>
      </trkpt>
      <trkpt lat="49.46472" lon="1.42189">
        <ele>155</ele>
        <time>2026-05-16T14:55:06.800Z</time>
      </trkpt>
      <trkpt lat="49.46468" lon="1.42182">
        <ele>155</ele>
        <time>2026-05-16T14:55:11.241Z</time>
      </trkpt>
      <trkpt lat="49.46462" lon="1.42169">
        <ele>155</ele>
        <time>2026-05-16T14:55:24.800Z</time>
      </trkpt>
      <trkpt lat="49.4646" lon="1.42171">
        <ele>155</ele>
        <time>2026-05-16T14:55:28.800Z</time>
      </trkpt>
      <trkpt lat="49.4646" lon="1.42171">
        <ele>155</ele>
        <time>2026-05-16T14:55:32.800Z</time>
      </trkpt>
      <trkpt lat="49.46458" lon="1.42168">
        <ele>155</ele>
        <time>2026-05-16T14:55:36.800Z</time>
      </trkpt>
      <trkpt lat="49.46456" lon="1.42162">
        <ele>155</ele>
        <time>2026-05-16T14:55:41.800Z</time>
      </trkpt>
      <trkpt lat="49.46455" lon="1.42154">
        <ele>155</ele>
        <time>2026-05-16T14:55:45.983Z</time>
      </trkpt>
      <trkpt lat="49.46452" lon="1.42148">
        <ele>155</ele>
        <time>2026-05-16T14:55:50.083Z</time>
      </trkpt>
      <trkpt lat="49.4645" lon="1.42141">
        <ele>155</ele>
        <time>2026-05-16T14:55:54.726Z</time>
      </trkpt>
      <trkpt lat="49.46448" lon="1.42136">
        <ele>155</ele>
        <time>2026-05-16T14:55:58.800Z</time>
      </trkpt>
      <trkpt lat="49.46446" lon="1.4213">
        <ele>155</ele>
        <time>2026-05-16T14:56:03.344Z</time>
      </trkpt>
      <trkpt lat="49.46444" lon="1.42126">
        <ele>155</ele>
        <time>2026-05-16T14:56:07.505Z</time>
      </trkpt>
      <trkpt lat="49.46441" lon="1.42119">
        <ele>154</ele>
        <time>2026-05-16T14:56:11.800Z</time>
      </trkpt>
      <trkpt lat="49.46437" lon="1.42113">
        <ele>154</ele>
        <time>2026-05-16T14:56:16.792Z</time>
      </trkpt>
      <trkpt lat="49.46433" lon="1.42107">
        <ele>154</ele>
        <time>2026-05-16T14:56:21.249Z</time>
      </trkpt>
      <trkpt lat="49.4643" lon="1.42102">
        <ele>153</ele>
        <time>2026-05-16T14:56:25.365Z</time>
      </trkpt>
      <trkpt lat="49.46428" lon="1.42099">
        <ele>153</ele>
        <time>2026-05-16T14:56:29.542Z</time>
      </trkpt>
      <trkpt lat="49.46424" lon="1.42093">
        <ele>153</ele>
        <time>2026-05-16T14:56:33.563Z</time>
      </trkpt>
      <trkpt lat="49.46419" lon="1.42088">
        <ele>153</ele>
        <time>2026-05-16T14:56:37.986Z</time>
      </trkpt>
      <trkpt lat="49.46415" lon="1.42082">
        <ele>153</ele>
        <time>2026-05-16T14:56:42.524Z</time>
      </trkpt>
      <trkpt lat="49.46412" lon="1.42075">
        <ele>153</ele>
        <time>2026-05-16T14:56:46.946Z</time>
      </trkpt>
      <trkpt lat="49.4641" lon="1.42069">
        <ele>153</ele>
        <time>2026-05-16T14:56:51.800Z</time>
      </trkpt>
      <trkpt lat="49.46408" lon="1.42062">
        <ele>153</ele>
        <time>2026-05-16T14:56:56.426Z</time>
      </trkpt>
      <trkpt lat="49.46404" lon="1.42056">
        <ele>153</ele>
        <time>2026-05-16T14:57:00.463Z</time>
      </trkpt>
      <trkpt lat="49.464" lon="1.42051">
        <ele>152</ele>
        <time>2026-05-16T14:57:04.984Z</time>
      </trkpt>
      <trkpt lat="49.46396" lon="1.42045">
        <ele>152</ele>
        <time>2026-05-16T14:57:09.485Z</time>
      </trkpt>
      <trkpt lat="49.46393" lon="1.4204">
        <ele>152</ele>
        <time>2026-05-16T14:57:14.022Z</time>
      </trkpt>
      <trkpt lat="49.46389" lon="1.42036">
        <ele>152</ele>
        <time>2026-05-16T14:57:18.025Z</time>
      </trkpt>
      <trkpt lat="49.46385" lon="1.42031">
        <ele>152</ele>
        <time>2026-05-16T14:57:22.511Z</time>
      </trkpt>
      <trkpt lat="49.46382" lon="1.42027">
        <ele>152</ele>
        <time>2026-05-16T14:57:26.564Z</time>
      </trkpt>
      <trkpt lat="49.46379" lon="1.42022">
        <ele>152</ele>
        <time>2026-05-16T14:57:30.800Z</time>
      </trkpt>
      <trkpt lat="49.46376" lon="1.42017">
        <ele>152</ele>
        <time>2026-05-16T14:57:35.290Z</time>
      </trkpt>
      <trkpt lat="49.46372" lon="1.42011">
        <ele>150</ele>
        <time>2026-05-16T14:57:39.668Z</time>
      </trkpt>
      <trkpt lat="49.46368" lon="1.4201">
        <ele>150</ele>
        <time>2026-05-16T14:57:43.723Z</time>
      </trkpt>
      <trkpt lat="49.46363" lon="1.42012">
        <ele>150</ele>
        <time>2026-05-16T14:57:48.444Z</time>
      </trkpt>
      <trkpt lat="49.4636" lon="1.42008">
        <ele>150</ele>
        <time>2026-05-16T14:57:52.589Z</time>
      </trkpt>
      <trkpt lat="49.46357" lon="1.42003">
        <ele>150</ele>
        <time>2026-05-16T14:57:56.732Z</time>
      </trkpt>
      <trkpt lat="49.46353" lon="1.41999">
        <ele>150</ele>
        <time>2026-05-16T14:58:00.800Z</time>
      </trkpt>
      <trkpt lat="49.46349" lon="1.41994">
        <ele>150</ele>
        <time>2026-05-16T14:58:05.146Z</time>
      </trkpt>
      <trkpt lat="49.46345" lon="1.4199">
        <ele>149</ele>
        <time>2026-05-16T14:58:09.246Z</time>
      </trkpt>
      <trkpt lat="49.46341" lon="1.41984">
        <ele>146</ele>
        <time>2026-05-16T14:58:13.687Z</time>
      </trkpt>
      <trkpt lat="49.46337" lon="1.41978">
        <ele>146</ele>
        <time>2026-05-16T14:58:18.162Z</time>
      </trkpt>
      <trkpt lat="49.46334" lon="1.41971">
        <ele>146</ele>
        <time>2026-05-16T14:58:22.586Z</time>
      </trkpt>
      <trkpt lat="49.46335" lon="1.41963">
        <ele>146</ele>
        <time>2026-05-16T14:58:26.728Z</time>
      </trkpt>
      <trkpt lat="49.46337" lon="1.41958">
        <ele>146</ele>
        <time>2026-05-16T14:58:32.800Z</time>
      </trkpt>
      <trkpt lat="49.46335" lon="1.41957">
        <ele>146</ele>
        <time>2026-05-16T14:58:37.224Z</time>
      </trkpt>
      <trkpt lat="49.46332" lon="1.41952">
        <ele>146</ele>
        <time>2026-05-16T14:58:41.430Z</time>
      </trkpt>
      <trkpt lat="49.46329" lon="1.41945">
        <ele>146</ele>
        <time>2026-05-16T14:58:45.747Z</time>
      </trkpt>
      <trkpt lat="49.46325" lon="1.41941">
        <ele>146</ele>
        <time>2026-05-16T14:58:50.109Z</time>
      </trkpt>
      <trkpt lat="49.46321" lon="1.41937">
        <ele>146</ele>
        <time>2026-05-16T14:58:54.743Z</time>
      </trkpt>
      <trkpt lat="49.46318" lon="1.4193">
        <ele>141</ele>
        <time>2026-05-16T14:58:59.245Z</time>
      </trkpt>
      <trkpt lat="49.46316" lon="1.41922">
        <ele>141</ele>
        <time>2026-05-16T14:59:03.800Z</time>
      </trkpt>
      <trkpt lat="49.46314" lon="1.41914">
        <ele>141</ele>
        <time>2026-05-16T14:59:08.267Z</time>
      </trkpt>
      <trkpt lat="49.46312" lon="1.41906">
        <ele>141</ele>
        <time>2026-05-16T14:59:12.800Z</time>
      </trkpt>
      <trkpt lat="49.46309" lon="1.419">
        <ele>141</ele>
        <time>2026-05-16T14:59:17.291Z</time>
      </trkpt>
      <trkpt lat="49.46306" lon="1.41895">
        <ele>141</ele>
        <time>2026-05-16T14:59:21.407Z</time>
      </trkpt>
      <trkpt lat="49.46303" lon="1.41889">
        <ele>141</ele>
        <time>2026-05-16T14:59:25.800Z</time>
      </trkpt>
      <trkpt lat="49.463" lon="1.41883">
        <ele>141</ele>
        <time>2026-05-16T14:59:29.902Z</time>
      </trkpt>
      <trkpt lat="49.46297" lon="1.41876">
        <ele>141</ele>
        <time>2026-05-16T14:59:34.404Z</time>
      </trkpt>
      <trkpt lat="49.46294" lon="1.4187">
        <ele>140</ele>
        <time>2026-05-16T14:59:38.800Z</time>
      </trkpt>
      <trkpt lat="49.46291" lon="1.41863">
        <ele>135</ele>
        <time>2026-05-16T14:59:42.800Z</time>
      </trkpt>
      <trkpt lat="49.46288" lon="1.41856">
        <ele>135</ele>
        <time>2026-05-16T14:59:47.494Z</time>
      </trkpt>
      <trkpt lat="49.46286" lon="1.4185">
        <ele>135</ele>
        <time>2026-05-16T14:59:52.106Z</time>
      </trkpt>
      <trkpt lat="49.46283" lon="1.41842">
        <ele>134</ele>
        <time>2026-05-16T14:59:56.644Z</time>
      </trkpt>
      <trkpt lat="49.46281" lon="1.41835">
        <ele>134</ele>
        <time>2026-05-16T15:00:01.209Z</time>
      </trkpt>
      <trkpt lat="49.4628" lon="1.41827">
        <ele>134</ele>
        <time>2026-05-16T15:00:05.800Z</time>
      </trkpt>
      <trkpt lat="49.46278" lon="1.41819">
        <ele>133</ele>
        <time>2026-05-16T15:00:10.643Z</time>
      </trkpt>
      <trkpt lat="49.46277" lon="1.41812">
        <ele>133</ele>
        <time>2026-05-16T15:00:15.127Z</time>
      </trkpt>
      <trkpt lat="49.46277" lon="1.41804">
        <ele>133</ele>
        <time>2026-05-16T15:00:19.542Z</time>
      </trkpt>
      <trkpt lat="49.46277" lon="1.41796">
        <ele>133</ele>
        <time>2026-05-16T15:00:24.088Z</time>
      </trkpt>
      <trkpt lat="49.46278" lon="1.41788">
        <ele>131</ele>
        <time>2026-05-16T15:00:28.547Z</time>
      </trkpt>
      <trkpt lat="49.46281" lon="1.4178">
        <ele>131</ele>
        <time>2026-05-16T15:00:32.800Z</time>
      </trkpt>
      <trkpt lat="49.46283" lon="1.41773">
        <ele>131</ele>
        <time>2026-05-16T15:00:36.885Z</time>
      </trkpt>
      <trkpt lat="49.46287" lon="1.41765">
        <ele>131</ele>
        <time>2026-05-16T15:00:41.484Z</time>
      </trkpt>
      <trkpt lat="49.46292" lon="1.4176">
        <ele>130</ele>
        <time>2026-05-16T15:00:45.800Z</time>
      </trkpt>
      <trkpt lat="49.46295" lon="1.41754">
        <ele>132</ele>
        <time>2026-05-16T15:00:50.340Z</time>
      </trkpt>
      <trkpt lat="49.46298" lon="1.41748">
        <ele>132</ele>
        <time>2026-05-16T15:00:54.446Z</time>
      </trkpt>
      <trkpt lat="49.46302" lon="1.41742">
        <ele>132</ele>
        <time>2026-05-16T15:00:58.949Z</time>
      </trkpt>
      <trkpt lat="49.46306" lon="1.41736">
        <ele>132</ele>
        <time>2026-05-16T15:01:03.407Z</time>
      </trkpt>
      <trkpt lat="49.46309" lon="1.41729">
        <ele>130</ele>
        <time>2026-05-16T15:01:07.911Z</time>
      </trkpt>
      <trkpt lat="49.46312" lon="1.41723">
        <ele>130</ele>
        <time>2026-05-16T15:01:12.246Z</time>
      </trkpt>
      <trkpt lat="49.46316" lon="1.41716">
        <ele>130</ele>
        <time>2026-05-16T15:01:16.800Z</time>
      </trkpt>
      <trkpt lat="49.46321" lon="1.41711">
        <ele>133</ele>
        <time>2026-05-16T15:01:21.285Z</time>
      </trkpt>
      <trkpt lat="49.46325" lon="1.41705">
        <ele>129</ele>
        <time>2026-05-16T15:01:25.726Z</time>
      </trkpt>
      <trkpt lat="49.46329" lon="1.417">
        <ele>129</ele>
        <time>2026-05-16T15:01:30.245Z</time>
      </trkpt>
      <trkpt lat="49.46334" lon="1.41694">
        <ele>129</ele>
        <time>2026-05-16T15:01:34.800Z</time>
      </trkpt>
      <trkpt lat="49.46338" lon="1.41689">
        <ele>129</ele>
        <time>2026-05-16T15:01:39.208Z</time>
      </trkpt>
      <trkpt lat="49.46342" lon="1.41683">
        <ele>129</ele>
        <time>2026-05-16T15:01:43.568Z</time>
      </trkpt>
      <trkpt lat="49.46346" lon="1.41678">
        <ele>126</ele>
        <time>2026-05-16T15:01:47.983Z</time>
      </trkpt>
      <trkpt lat="49.4635" lon="1.41674">
        <ele>127</ele>
        <time>2026-05-16T15:01:52.003Z</time>
      </trkpt>
      <trkpt lat="49.46354" lon="1.41668">
        <ele>127</ele>
        <time>2026-05-16T15:01:56.365Z</time>
      </trkpt>
      <trkpt lat="49.46359" lon="1.41664">
        <ele>127</ele>
        <time>2026-05-16T15:02:00.800Z</time>
      </trkpt>
      <trkpt lat="49.46363" lon="1.4166">
        <ele>127</ele>
        <time>2026-05-16T15:02:05.343Z</time>
      </trkpt>
      <trkpt lat="49.46368" lon="1.41657">
        <ele>127</ele>
        <time>2026-05-16T15:02:09.800Z</time>
      </trkpt>
      <trkpt lat="49.46373" lon="1.41652">
        <ele>123</ele>
        <time>2026-05-16T15:02:14.444Z</time>
      </trkpt>
      <trkpt lat="49.46377" lon="1.41648">
        <ele>124</ele>
        <time>2026-05-16T15:02:18.745Z</time>
      </trkpt>
      <trkpt lat="49.46382" lon="1.41644">
        <ele>124</ele>
        <time>2026-05-16T15:02:23.248Z</time>
      </trkpt>
      <trkpt lat="49.46387" lon="1.4164">
        <ele>124</ele>
        <time>2026-05-16T15:02:27.799Z</time>
      </trkpt>
      <trkpt lat="49.46391" lon="1.41637">
        <ele>124</ele>
        <time>2026-05-16T15:02:31.800Z</time>
      </trkpt>
      <trkpt lat="49.46396" lon="1.41633">
        <ele>124</ele>
        <time>2026-05-16T15:02:36.184Z</time>
      </trkpt>
      <trkpt lat="49.464" lon="1.4163">
        <ele>124</ele>
        <time>2026-05-16T15:02:40.231Z</time>
      </trkpt>
      <trkpt lat="49.46404" lon="1.41626">
        <ele>125</ele>
        <time>2026-05-16T15:02:44.751Z</time>
      </trkpt>
      <trkpt lat="49.46409" lon="1.41623">
        <ele>121</ele>
        <time>2026-05-16T15:02:49.305Z</time>
      </trkpt>
      <trkpt lat="49.46414" lon="1.4162">
        <ele>121</ele>
        <time>2026-05-16T15:02:53.800Z</time>
      </trkpt>
      <trkpt lat="49.46419" lon="1.41617">
        <ele>121</ele>
        <time>2026-05-16T15:02:57.800Z</time>
      </trkpt>
      <trkpt lat="49.46423" lon="1.41614">
        <ele>121</ele>
        <time>2026-05-16T15:03:02.004Z</time>
      </trkpt>
      <trkpt lat="49.46427" lon="1.4161">
        <ele>121</ele>
        <time>2026-05-16T15:03:06.103Z</time>
      </trkpt>
      <trkpt lat="49.46431" lon="1.41606">
        <ele>122</ele>
        <time>2026-05-16T15:03:10.123Z</time>
      </trkpt>
      <trkpt lat="49.46435" lon="1.41602">
        <ele>122</ele>
        <time>2026-05-16T15:03:14.186Z</time>
      </trkpt>
      <trkpt lat="49.46439" lon="1.41599">
        <ele>122</ele>
        <time>2026-05-16T15:03:18.269Z</time>
      </trkpt>
      <trkpt lat="49.46444" lon="1.41597">
        <ele>117</ele>
        <time>2026-05-16T15:03:22.272Z</time>
      </trkpt>
      <trkpt lat="49.46448" lon="1.41594">
        <ele>117</ele>
        <time>2026-05-16T15:03:26.342Z</time>
      </trkpt>
      <trkpt lat="49.46452" lon="1.41591">
        <ele>117</ele>
        <time>2026-05-16T15:03:30.405Z</time>
      </trkpt>
      <trkpt lat="49.46457" lon="1.41589">
        <ele>117</ele>
        <time>2026-05-16T15:03:34.547Z</time>
      </trkpt>
      <trkpt lat="49.46461" lon="1.41585">
        <ele>118</ele>
        <time>2026-05-16T15:03:38.667Z</time>
      </trkpt>
      <trkpt lat="49.46464" lon="1.41581">
        <ele>118</ele>
        <time>2026-05-16T15:03:42.727Z</time>
      </trkpt>
      <trkpt lat="49.46469" lon="1.41579">
        <ele>118</ele>
        <time>2026-05-16T15:03:46.800Z</time>
      </trkpt>
      <trkpt lat="49.46473" lon="1.41576">
        <ele>118</ele>
        <time>2026-05-16T15:03:51.504Z</time>
      </trkpt>
      <trkpt lat="49.46478" lon="1.41572">
        <ele>118</ele>
        <time>2026-05-16T15:03:55.630Z</time>
      </trkpt>
      <trkpt lat="49.46482" lon="1.4157">
        <ele>118</ele>
        <time>2026-05-16T15:04:00.167Z</time>
      </trkpt>
      <trkpt lat="49.46486" lon="1.41566">
        <ele>114</ele>
        <time>2026-05-16T15:04:04.231Z</time>
      </trkpt>
      <trkpt lat="49.4649" lon="1.41563">
        <ele>114</ele>
        <time>2026-05-16T15:04:08.425Z</time>
      </trkpt>
      <trkpt lat="49.46494" lon="1.4156">
        <ele>114</ele>
        <time>2026-05-16T15:04:12.800Z</time>
      </trkpt>
      <trkpt lat="49.46499" lon="1.41557">
        <ele>114</ele>
        <time>2026-05-16T15:04:16.800Z</time>
      </trkpt>
      <trkpt lat="49.46503" lon="1.41554">
        <ele>114</ele>
        <time>2026-05-16T15:04:21.451Z</time>
      </trkpt>
      <trkpt lat="49.46508" lon="1.41552">
        <ele>114</ele>
        <time>2026-05-16T15:04:25.487Z</time>
      </trkpt>
      <trkpt lat="49.46513" lon="1.41549">
        <ele>114</ele>
        <time>2026-05-16T15:04:30.042Z</time>
      </trkpt>
      <trkpt lat="49.46517" lon="1.41546">
        <ele>115</ele>
        <time>2026-05-16T15:04:34.152Z</time>
      </trkpt>
      <trkpt lat="49.46522" lon="1.41542">
        <ele>115</ele>
        <time>2026-05-16T15:04:38.345Z</time>
      </trkpt>
      <trkpt lat="49.46526" lon="1.41538">
        <ele>111</ele>
        <time>2026-05-16T15:04:42.663Z</time>
      </trkpt>
      <trkpt lat="49.46533" lon="1.41538">
        <ele>111</ele>
        <time>2026-05-16T15:05:40.800Z</time>
      </trkpt>
      <trkpt lat="49.46532" lon="1.41535">
        <ele>111</ele>
        <time>2026-05-16T15:05:49.800Z</time>
      </trkpt>
      <trkpt lat="49.46532" lon="1.41534">
        <ele>111</ele>
        <time>2026-05-16T15:05:53.800Z</time>
      </trkpt>
      <trkpt lat="49.46535" lon="1.41531">
        <ele>111</ele>
        <time>2026-05-16T15:05:58.263Z</time>
      </trkpt>
      <trkpt lat="49.4654" lon="1.41528">
        <ele>111</ele>
        <time>2026-05-16T15:06:02.607Z</time>
      </trkpt>
      <trkpt lat="49.46544" lon="1.41524">
        <ele>111</ele>
        <time>2026-05-16T15:06:06.800Z</time>
      </trkpt>
      <trkpt lat="49.46546" lon="1.41521">
        <ele>111</ele>
        <time>2026-05-16T15:06:10.800Z</time>
      </trkpt>
      <trkpt lat="49.4655" lon="1.41516">
        <ele>111</ele>
        <time>2026-05-16T15:06:14.904Z</time>
      </trkpt>
      <trkpt lat="49.46555" lon="1.41511">
        <ele>107</ele>
        <time>2026-05-16T15:06:19.372Z</time>
      </trkpt>
      <trkpt lat="49.46559" lon="1.41508">
        <ele>107</ele>
        <time>2026-05-16T15:06:23.945Z</time>
      </trkpt>
      <trkpt lat="49.46564" lon="1.41503">
        <ele>107</ele>
        <time>2026-05-16T15:06:28.432Z</time>
      </trkpt>
      <trkpt lat="49.46569" lon="1.41502">
        <ele>107</ele>
        <time>2026-05-16T15:06:32.800Z</time>
      </trkpt>
      <trkpt lat="49.46575" lon="1.41498">
        <ele>108</ele>
        <time>2026-05-16T15:06:37.331Z</time>
      </trkpt>
      <trkpt lat="49.46579" lon="1.41495">
        <ele>108</ele>
        <time>2026-05-16T15:06:41.685Z</time>
      </trkpt>
      <trkpt lat="49.46584" lon="1.4149">
        <ele>108</ele>
        <time>2026-05-16T15:06:45.800Z</time>
      </trkpt>
      <trkpt lat="49.46588" lon="1.41485">
        <ele>105</ele>
        <time>2026-05-16T15:06:49.951Z</time>
      </trkpt>
      <trkpt lat="49.46593" lon="1.41481">
        <ele>105</ele>
        <time>2026-05-16T15:06:54.393Z</time>
      </trkpt>
      <trkpt lat="49.46598" lon="1.41475">
        <ele>106</ele>
        <time>2026-05-16T15:06:59.325Z</time>
      </trkpt>
      <trkpt lat="49.46603" lon="1.41471">
        <ele>106</ele>
        <time>2026-05-16T15:07:03.800Z</time>
      </trkpt>
      <trkpt lat="49.46607" lon="1.41468">
        <ele>106</ele>
        <time>2026-05-16T15:07:08.392Z</time>
      </trkpt>
      <trkpt lat="49.46612" lon="1.41463">
        <ele>106</ele>
        <time>2026-05-16T15:07:12.745Z</time>
      </trkpt>
      <trkpt lat="49.46616" lon="1.41458">
        <ele>102</ele>
        <time>2026-05-16T15:07:17.214Z</time>
      </trkpt>
      <trkpt lat="49.4662" lon="1.41453">
        <ele>102</ele>
        <time>2026-05-16T15:07:21.800Z</time>
      </trkpt>
      <trkpt lat="49.46625" lon="1.41449">
        <ele>102</ele>
        <time>2026-05-16T15:07:26.288Z</time>
      </trkpt>
      <trkpt lat="49.46628" lon="1.41445">
        <ele>106</ele>
        <time>2026-05-16T15:07:30.291Z</time>
      </trkpt>
      <trkpt lat="49.46633" lon="1.41439">
        <ele>106</ele>
        <time>2026-05-16T15:07:34.800Z</time>
      </trkpt>
      <trkpt lat="49.46637" lon="1.41433">
        <ele>106</ele>
        <time>2026-05-16T15:07:39.331Z</time>
      </trkpt>
      <trkpt lat="49.46641" lon="1.41428">
        <ele>102</ele>
        <time>2026-05-16T15:07:43.771Z</time>
      </trkpt>
      <trkpt lat="49.46645" lon="1.41424">
        <ele>102</ele>
        <time>2026-05-16T15:07:48.152Z</time>
      </trkpt>
      <trkpt lat="49.46648" lon="1.41418">
        <ele>102</ele>
        <time>2026-05-16T15:07:52.189Z</time>
      </trkpt>
      <trkpt lat="49.46652" lon="1.41412">
        <ele>102</ele>
        <time>2026-05-16T15:07:56.726Z</time>
      </trkpt>
      <trkpt lat="49.46656" lon="1.41407">
        <ele>106</ele>
        <time>2026-05-16T15:08:00.809Z</time>
      </trkpt>
      <trkpt lat="49.46661" lon="1.41403">
        <ele>106</ele>
        <time>2026-05-16T15:08:05.467Z</time>
      </trkpt>
      <trkpt lat="49.46665" lon="1.41398">
        <ele>101</ele>
        <time>2026-05-16T15:08:09.611Z</time>
      </trkpt>
      <trkpt lat="49.46669" lon="1.41392">
        <ele>101</ele>
        <time>2026-05-16T15:08:14.351Z</time>
      </trkpt>
      <trkpt lat="49.46672" lon="1.41386">
        <ele>101</ele>
        <time>2026-05-16T15:08:18.799Z</time>
      </trkpt>
      <trkpt lat="49.46676" lon="1.41381">
        <ele>101</ele>
        <time>2026-05-16T15:08:22.907Z</time>
      </trkpt>
      <trkpt lat="49.4668" lon="1.41378">
        <ele>101</ele>
        <time>2026-05-16T15:08:26.971Z</time>
      </trkpt>
      <trkpt lat="49.46684" lon="1.41373">
        <ele>99</ele>
        <time>2026-05-16T15:08:31.667Z</time>
      </trkpt>
      <trkpt lat="49.46687" lon="1.41367">
        <ele>99</ele>
        <time>2026-05-16T15:08:35.765Z</time>
      </trkpt>
      <trkpt lat="49.46691" lon="1.41361">
        <ele>99</ele>
        <time>2026-05-16T15:08:40.233Z</time>
      </trkpt>
      <trkpt lat="49.46694" lon="1.41355">
        <ele>99</ele>
        <time>2026-05-16T15:08:44.787Z</time>
      </trkpt>
      <trkpt lat="49.46698" lon="1.41351">
        <ele>99</ele>
        <time>2026-05-16T15:08:48.800Z</time>
      </trkpt>
      <trkpt lat="49.46702" lon="1.41346">
        <ele>96</ele>
        <time>2026-05-16T15:08:52.800Z</time>
      </trkpt>
      <trkpt lat="49.46706" lon="1.41342">
        <ele>96</ele>
        <time>2026-05-16T15:08:57.427Z</time>
      </trkpt>
      <trkpt lat="49.4671" lon="1.41337">
        <ele>98</ele>
        <time>2026-05-16T15:09:01.569Z</time>
      </trkpt>
      <trkpt lat="49.46713" lon="1.41331">
        <ele>98</ele>
        <time>2026-05-16T15:09:06.011Z</time>
      </trkpt>
      <trkpt lat="49.46717" lon="1.41326">
        <ele>98</ele>
        <time>2026-05-16T15:09:10.732Z</time>
      </trkpt>
      <trkpt lat="49.46722" lon="1.41321">
        <ele>98</ele>
        <time>2026-05-16T15:09:15.348Z</time>
      </trkpt>
      <trkpt lat="49.46726" lon="1.41316">
        <ele>96</ele>
        <time>2026-05-16T15:09:19.800Z</time>
      </trkpt>
      <trkpt lat="49.4673" lon="1.41312">
        <ele>96</ele>
        <time>2026-05-16T15:09:24.046Z</time>
      </trkpt>
      <trkpt lat="49.46733" lon="1.41306">
        <ele>96</ele>
        <time>2026-05-16T15:09:28.173Z</time>
      </trkpt>
      <trkpt lat="49.46737" lon="1.413">
        <ele>100</ele>
        <time>2026-05-16T15:09:32.800Z</time>
      </trkpt>
      <trkpt lat="49.46741" lon="1.41294">
        <ele>100</ele>
        <time>2026-05-16T15:09:37.405Z</time>
      </trkpt>
      <trkpt lat="49.46745" lon="1.41289">
        <ele>97</ele>
        <time>2026-05-16T15:09:41.925Z</time>
      </trkpt>
      <trkpt lat="49.46749" lon="1.41285">
        <ele>97</ele>
        <time>2026-05-16T15:09:45.988Z</time>
      </trkpt>
      <trkpt lat="49.46753" lon="1.4128">
        <ele>97</ele>
        <time>2026-05-16T15:09:50.527Z</time>
      </trkpt>
      <trkpt lat="49.46757" lon="1.41274">
        <ele>97</ele>
        <time>2026-05-16T15:09:55.125Z</time>
      </trkpt>
      <trkpt lat="49.46761" lon="1.41268">
        <ele>97</ele>
        <time>2026-05-16T15:09:59.612Z</time>
      </trkpt>
      <trkpt lat="49.46764" lon="1.41263">
        <ele>96</ele>
        <time>2026-05-16T15:10:03.753Z</time>
      </trkpt>
      <trkpt lat="49.46767" lon="1.41257">
        <ele>96</ele>
        <time>2026-05-16T15:10:07.807Z</time>
      </trkpt>
      <trkpt lat="49.46771" lon="1.41251">
        <ele>96</ele>
        <time>2026-05-16T15:10:12.390Z</time>
      </trkpt>
      <trkpt lat="49.46774" lon="1.41245">
        <ele>96</ele>
        <time>2026-05-16T15:10:16.427Z</time>
      </trkpt>
      <trkpt lat="49.46776" lon="1.41238">
        <ele>96</ele>
        <time>2026-05-16T15:10:20.472Z</time>
      </trkpt>
      <trkpt lat="49.46777" lon="1.41231">
        <ele>94</ele>
        <time>2026-05-16T15:10:24.527Z</time>
      </trkpt>
      <trkpt lat="49.46779" lon="1.41225">
        <ele>94</ele>
        <time>2026-05-16T15:10:28.591Z</time>
      </trkpt>
      <trkpt lat="49.46782" lon="1.41219">
        <ele>94</ele>
        <time>2026-05-16T15:10:32.647Z</time>
      </trkpt>
      <trkpt lat="49.46784" lon="1.41213">
        <ele>94</ele>
        <time>2026-05-16T15:10:36.727Z</time>
      </trkpt>
      <trkpt lat="49.46787" lon="1.41207">
        <ele>91</ele>
        <time>2026-05-16T15:10:41.352Z</time>
      </trkpt>
      <trkpt lat="49.46789" lon="1.41201">
        <ele>91</ele>
        <time>2026-05-16T15:10:45.548Z</time>
      </trkpt>
      <trkpt lat="49.46791" lon="1.41194">
        <ele>91</ele>
        <time>2026-05-16T15:10:49.800Z</time>
      </trkpt>
      <trkpt lat="49.46793" lon="1.41187">
        <ele>93</ele>
        <time>2026-05-16T15:10:54.009Z</time>
      </trkpt>
      <trkpt lat="49.46796" lon="1.41181">
        <ele>93</ele>
        <time>2026-05-16T15:10:58.125Z</time>
      </trkpt>
      <trkpt lat="49.46799" lon="1.41163">
        <ele>90</ele>
        <time>2026-05-16T15:12:21.800Z</time>
      </trkpt>
      <trkpt lat="49.46799" lon="1.41163">
        <ele>90</ele>
        <time>2026-05-16T15:12:28.800Z</time>
      </trkpt>
      <trkpt lat="49.46794" lon="1.41159">
        <ele>90</ele>
        <time>2026-05-16T15:12:33.800Z</time>
      </trkpt>
      <trkpt lat="49.46788" lon="1.41158">
        <ele>90</ele>
        <time>2026-05-16T15:12:37.800Z</time>
      </trkpt>
      <trkpt lat="49.46783" lon="1.41158">
        <ele>90</ele>
        <time>2026-05-16T15:12:42.800Z</time>
      </trkpt>
      <trkpt lat="49.46779" lon="1.41159">
        <ele>90</ele>
        <time>2026-05-16T15:12:46.800Z</time>
      </trkpt>
      <trkpt lat="49.46774" lon="1.41158">
        <ele>90</ele>
        <time>2026-05-16T15:12:50.800Z</time>
      </trkpt>
      <trkpt lat="49.46769" lon="1.41158">
        <ele>90</ele>
        <time>2026-05-16T15:12:55.091Z</time>
      </trkpt>
      <trkpt lat="49.46763" lon="1.41157">
        <ele>93</ele>
        <time>2026-05-16T15:12:59.146Z</time>
      </trkpt>
      <trkpt lat="49.46758" lon="1.41156">
        <ele>93</ele>
        <time>2026-05-16T15:13:03.226Z</time>
      </trkpt>
      <trkpt lat="49.46753" lon="1.41155">
        <ele>93</ele>
        <time>2026-05-16T15:13:07.327Z</time>
      </trkpt>
      <trkpt lat="49.46751" lon="1.41155">
        <ele>93</ele>
        <time>2026-05-16T15:13:11.626Z</time>
      </trkpt>
      <trkpt lat="49.46745" lon="1.41152">
        <ele>95</ele>
        <time>2026-05-16T15:13:16.051Z</time>
      </trkpt>
      <trkpt lat="49.4674" lon="1.41151">
        <ele>95</ele>
        <time>2026-05-16T15:13:20.527Z</time>
      </trkpt>
      <trkpt lat="49.46737" lon="1.4115">
        <ele>95</ele>
        <time>2026-05-16T15:13:24.766Z</time>
      </trkpt>
      <trkpt lat="49.46733" lon="1.41148">
        <ele>103</ele>
        <time>2026-05-16T15:13:29.312Z</time>
      </trkpt>
      <trkpt lat="49.46729" lon="1.41147">
        <ele>103</ele>
        <time>2026-05-16T15:13:33.753Z</time>
      </trkpt>
      <trkpt lat="49.46726" lon="1.41146">
        <ele>103</ele>
        <time>2026-05-16T15:13:37.800Z</time>
      </trkpt>
      <trkpt lat="49.46722" lon="1.41145">
        <ele>103</ele>
        <time>2026-05-16T15:13:42.487Z</time>
      </trkpt>
      <trkpt lat="49.46718" lon="1.41145">
        <ele>103</ele>
        <time>2026-05-16T15:13:46.800Z</time>
      </trkpt>
      <trkpt lat="49.46715" lon="1.41143">
        <ele>103</ele>
        <time>2026-05-16T15:13:51.105Z</time>
      </trkpt>
      <trkpt lat="49.46712" lon="1.4114">
        <ele>103</ele>
        <time>2026-05-16T15:13:55.352Z</time>
      </trkpt>
      <trkpt lat="49.46709" lon="1.41135">
        <ele>103</ele>
        <time>2026-05-16T15:13:59.627Z</time>
      </trkpt>
      <trkpt lat="49.46706" lon="1.4113">
        <ele>109</ele>
        <time>2026-05-16T15:14:03.800Z</time>
      </trkpt>
      <trkpt lat="49.46703" lon="1.41126">
        <ele>109</ele>
        <time>2026-05-16T15:14:08.292Z</time>
      </trkpt>
      <trkpt lat="49.467" lon="1.41122">
        <ele>110</ele>
        <time>2026-05-16T15:14:12.546Z</time>
      </trkpt>
      <trkpt lat="49.46697" lon="1.41118">
        <ele>110</ele>
        <time>2026-05-16T15:14:16.593Z</time>
      </trkpt>
      <trkpt lat="49.46694" lon="1.41113">
        <ele>110</ele>
        <time>2026-05-16T15:14:20.709Z</time>
      </trkpt>
      <trkpt lat="49.46695" lon="1.41109">
        <ele>110</ele>
        <time>2026-05-16T15:14:24.800Z</time>
      </trkpt>
      <trkpt lat="49.46695" lon="1.41108">
        <ele>110</ele>
        <time>2026-05-16T15:14:29.129Z</time>
      </trkpt>
      <trkpt lat="49.46695" lon="1.41103">
        <ele>110</ele>
        <time>2026-05-16T15:14:33.268Z</time>
      </trkpt>
      <trkpt lat="49.46695" lon="1.41095">
        <ele>109</ele>
        <time>2026-05-16T15:14:37.711Z</time>
      </trkpt>
      <trkpt lat="49.46693" lon="1.41089">
        <ele>109</ele>
        <time>2026-05-16T15:14:41.967Z</time>
      </trkpt>
      <trkpt lat="49.46692" lon="1.41081">
        <ele>109</ele>
        <time>2026-05-16T15:14:46.706Z</time>
      </trkpt>
      <trkpt lat="49.46692" lon="1.41075">
        <ele>109</ele>
        <time>2026-05-16T15:14:50.892Z</time>
      </trkpt>
      <trkpt lat="49.46691" lon="1.41068">
        <ele>109</ele>
        <time>2026-05-16T15:14:55.229Z</time>
      </trkpt>
      <trkpt lat="49.46691" lon="1.41061">
        <ele>109</ele>
        <time>2026-05-16T15:14:59.327Z</time>
      </trkpt>
      <trkpt lat="49.4669" lon="1.41053">
        <ele>109</ele>
        <time>2026-05-16T15:15:03.488Z</time>
      </trkpt>
      <trkpt lat="49.4669" lon="1.41046">
        <ele>109</ele>
        <time>2026-05-16T15:15:07.647Z</time>
      </trkpt>
      <trkpt lat="49.4669" lon="1.41038">
        <ele>108</ele>
        <time>2026-05-16T15:15:11.800Z</time>
      </trkpt>
      <trkpt lat="49.4669" lon="1.41032">
        <ele>108</ele>
        <time>2026-05-16T15:15:15.873Z</time>
      </trkpt>
      <trkpt lat="49.46693" lon="1.41025">
        <ele>108</ele>
        <time>2026-05-16T15:15:20.532Z</time>
      </trkpt>
      <trkpt lat="49.46693" lon="1.41018">
        <ele>108</ele>
        <time>2026-05-16T15:15:24.800Z</time>
      </trkpt>
      <trkpt lat="49.46692" lon="1.4101">
        <ele>109</ele>
        <time>2026-05-16T15:15:29.513Z</time>
      </trkpt>
      <trkpt lat="49.46691" lon="1.41004">
        <ele>109</ele>
        <time>2026-05-16T15:15:33.644Z</time>
      </trkpt>
      <trkpt lat="49.4669" lon="1.40996">
        <ele>109</ele>
        <time>2026-05-16T15:15:37.771Z</time>
      </trkpt>
      <trkpt lat="49.4669" lon="1.4099">
        <ele>109</ele>
        <time>2026-05-16T15:15:42.307Z</time>
      </trkpt>
      <trkpt lat="49.46689" lon="1.40982">
        <ele>108</ele>
        <time>2026-05-16T15:15:46.432Z</time>
      </trkpt>
      <trkpt lat="49.46688" lon="1.40975">
        <ele>108</ele>
        <time>2026-05-16T15:15:50.690Z</time>
      </trkpt>
      <trkpt lat="49.46687" lon="1.40968">
        <ele>108</ele>
        <time>2026-05-16T15:15:54.800Z</time>
      </trkpt>
      <trkpt lat="49.46687" lon="1.4096">
        <ele>108</ele>
        <time>2026-05-16T15:15:59.088Z</time>
      </trkpt>
      <trkpt lat="49.46687" lon="1.40953">
        <ele>108</ele>
        <time>2026-05-16T15:16:03.346Z</time>
      </trkpt>
      <trkpt lat="49.46687" lon="1.40947">
        <ele>108</ele>
        <time>2026-05-16T15:16:07.551Z</time>
      </trkpt>
      <trkpt lat="49.46688" lon="1.40939">
        <ele>108</ele>
        <time>2026-05-16T15:16:12.105Z</time>
      </trkpt>
      <trkpt lat="49.4669" lon="1.40932">
        <ele>108</ele>
        <time>2026-05-16T15:16:16.291Z</time>
      </trkpt>
      <trkpt lat="49.46692" lon="1.40926">
        <ele>107</ele>
        <time>2026-05-16T15:16:20.392Z</time>
      </trkpt>
      <trkpt lat="49.46692" lon="1.40918">
        <ele>107</ele>
        <time>2026-05-16T15:16:24.800Z</time>
      </trkpt>
      <trkpt lat="49.46693" lon="1.4091">
        <ele>107</ele>
        <time>2026-05-16T15:16:29.026Z</time>
      </trkpt>
      <trkpt lat="49.46694" lon="1.40902">
        <ele>106</ele>
        <time>2026-05-16T15:16:33.327Z</time>
      </trkpt>
      <trkpt lat="49.46695" lon="1.40895">
        <ele>106</ele>
        <time>2026-05-16T15:16:37.645Z</time>
      </trkpt>
      <trkpt lat="49.46695" lon="1.40887">
        <ele>106</ele>
        <time>2026-05-16T15:16:41.800Z</time>
      </trkpt>
      <trkpt lat="49.46695" lon="1.4088">
        <ele>106</ele>
        <time>2026-05-16T15:16:46.131Z</time>
      </trkpt>
      <trkpt lat="49.46693" lon="1.40873">
        <ele>106</ele>
        <time>2026-05-16T15:16:50.672Z</time>
      </trkpt>
      <trkpt lat="49.46693" lon="1.40866">
        <ele>106</ele>
        <time>2026-05-16T15:16:55.207Z</time>
      </trkpt>
      <trkpt lat="49.46691" lon="1.4086">
        <ele>106</ele>
        <time>2026-05-16T15:16:59.728Z</time>
      </trkpt>
      <trkpt lat="49.4669" lon="1.40853">
        <ele>106</ele>
        <time>2026-05-16T15:17:04.406Z</time>
      </trkpt>
      <trkpt lat="49.46688" lon="1.40846">
        <ele>105</ele>
        <time>2026-05-16T15:17:09.005Z</time>
      </trkpt>
      <trkpt lat="49.46685" lon="1.40841">
        <ele>105</ele>
        <time>2026-05-16T15:17:13.165Z</time>
      </trkpt>
      <trkpt lat="49.46683" lon="1.40836">
        <ele>105</ele>
        <time>2026-05-16T15:17:17.388Z</time>
      </trkpt>
      <trkpt lat="49.4668" lon="1.40832">
        <ele>113</ele>
        <time>2026-05-16T15:17:21.672Z</time>
      </trkpt>
      <trkpt lat="49.46677" lon="1.40827">
        <ele>113</ele>
        <time>2026-05-16T15:17:26.173Z</time>
      </trkpt>
      <trkpt lat="49.46674" lon="1.40822">
        <ele>113</ele>
        <time>2026-05-16T15:17:30.588Z</time>
      </trkpt>
      <trkpt lat="49.4667" lon="1.40817">
        <ele>112</ele>
        <time>2026-05-16T15:17:35.169Z</time>
      </trkpt>
      <trkpt lat="49.46668" lon="1.40813">
        <ele>112</ele>
        <time>2026-05-16T15:17:39.268Z</time>
      </trkpt>
      <trkpt lat="49.46665" lon="1.40808">
        <ele>112</ele>
        <time>2026-05-16T15:17:43.287Z</time>
      </trkpt>
      <trkpt lat="49.46662" lon="1.40804">
        <ele>112</ele>
        <time>2026-05-16T15:17:47.800Z</time>
      </trkpt>
      <trkpt lat="49.46658" lon="1.408">
        <ele>112</ele>
        <time>2026-05-16T15:17:51.800Z</time>
      </trkpt>
      <trkpt lat="49.46654" lon="1.40796">
        <ele>112</ele>
        <time>2026-05-16T15:17:56.426Z</time>
      </trkpt>
      <trkpt lat="49.46651" lon="1.40793">
        <ele>117</ele>
        <time>2026-05-16T15:18:00.491Z</time>
      </trkpt>
      <trkpt lat="49.46647" lon="1.40789">
        <ele>115</ele>
        <time>2026-05-16T15:18:05.186Z</time>
      </trkpt>
      <trkpt lat="49.46643" lon="1.40786">
        <ele>115</ele>
        <time>2026-05-16T15:18:09.328Z</time>
      </trkpt>
      <trkpt lat="49.46639" lon="1.40782">
        <ele>115</ele>
        <time>2026-05-16T15:18:13.800Z</time>
      </trkpt>
      <trkpt lat="49.46635" lon="1.40778">
        <ele>115</ele>
        <time>2026-05-16T15:18:17.800Z</time>
      </trkpt>
      <trkpt lat="49.46632" lon="1.40774">
        <ele>115</ele>
        <time>2026-05-16T15:18:22.671Z</time>
      </trkpt>
      <trkpt lat="49.46628" lon="1.40769">
        <ele>115</ele>
        <time>2026-05-16T15:18:27.312Z</time>
      </trkpt>
      <trkpt lat="49.46624" lon="1.40765">
        <ele>118</ele>
        <time>2026-05-16T15:18:31.800Z</time>
      </trkpt>
      <trkpt lat="49.46621" lon="1.40761">
        <ele>116</ele>
        <time>2026-05-16T15:18:35.800Z</time>
      </trkpt>
      <trkpt lat="49.46618" lon="1.40756">
        <ele>116</ele>
        <time>2026-05-16T15:18:40.548Z</time>
      </trkpt>
      <trkpt lat="49.46614" lon="1.40751">
        <ele>116</ele>
        <time>2026-05-16T15:18:44.800Z</time>
      </trkpt>
      <trkpt lat="49.46611" lon="1.40746">
        <ele>116</ele>
        <time>2026-05-16T15:18:49.227Z</time>
      </trkpt>
      <trkpt lat="49.46607" lon="1.40741">
        <ele>116</ele>
        <time>2026-05-16T15:18:53.625Z</time>
      </trkpt>
      <trkpt lat="49.46603" lon="1.40737">
        <ele>116</ele>
        <time>2026-05-16T15:18:57.800Z</time>
      </trkpt>
      <trkpt lat="49.46599" lon="1.40732">
        <ele>113</ele>
        <time>2026-05-16T15:19:02.245Z</time>
      </trkpt>
      <trkpt lat="49.46595" lon="1.40727">
        <ele>117</ele>
        <time>2026-05-16T15:19:06.589Z</time>
      </trkpt>
      <trkpt lat="49.46591" lon="1.40722">
        <ele>117</ele>
        <time>2026-05-16T15:19:10.800Z</time>
      </trkpt>
      <trkpt lat="49.46586" lon="1.40716">
        <ele>117</ele>
        <time>2026-05-16T15:19:15.445Z</time>
      </trkpt>
      <trkpt lat="49.46583" lon="1.40711">
        <ele>117</ele>
        <time>2026-05-16T15:19:19.800Z</time>
      </trkpt>
      <trkpt lat="49.4658" lon="1.40704">
        <ele>114</ele>
        <time>2026-05-16T15:19:24.529Z</time>
      </trkpt>
      <trkpt lat="49.46577" lon="1.40698">
        <ele>114</ele>
        <time>2026-05-16T15:19:28.800Z</time>
      </trkpt>
      <trkpt lat="49.46573" lon="1.40693">
        <ele>114</ele>
        <time>2026-05-16T15:19:33.306Z</time>
      </trkpt>
      <trkpt lat="49.4657" lon="1.40688">
        <ele>114</ele>
        <time>2026-05-16T15:19:37.765Z</time>
      </trkpt>
      <trkpt lat="49.46566" lon="1.40683">
        <ele>120</ele>
        <time>2026-05-16T15:19:42.252Z</time>
      </trkpt>
      <trkpt lat="49.46562" lon="1.40679">
        <ele>117</ele>
        <time>2026-05-16T15:19:46.568Z</time>
      </trkpt>
      <trkpt lat="49.46559" lon="1.40675">
        <ele>117</ele>
        <time>2026-05-16T15:19:50.800Z</time>
      </trkpt>
      <trkpt lat="49.46555" lon="1.4067">
        <ele>117</ele>
        <time>2026-05-16T15:19:55.125Z</time>
      </trkpt>
      <trkpt lat="49.46552" lon="1.40665">
        <ele>117</ele>
        <time>2026-05-16T15:19:59.286Z</time>
      </trkpt>
      <trkpt lat="49.46549" lon="1.40659">
        <ele>117</ele>
        <time>2026-05-16T15:20:03.632Z</time>
      </trkpt>
      <trkpt lat="49.46547" lon="1.40653">
        <ele>117</ele>
        <time>2026-05-16T15:20:07.800Z</time>
      </trkpt>
      <trkpt lat="49.46544" lon="1.40647">
        <ele>113</ele>
        <time>2026-05-16T15:20:12.251Z</time>
      </trkpt>
      <trkpt lat="49.46541" lon="1.40641">
        <ele>119</ele>
        <time>2026-05-16T15:20:16.444Z</time>
      </trkpt>
      <trkpt lat="49.46538" lon="1.40635">
        <ele>119</ele>
        <time>2026-05-16T15:20:20.605Z</time>
      </trkpt>
      <trkpt lat="49.46535" lon="1.40629">
        <ele>119</ele>
        <time>2026-05-16T15:20:24.731Z</time>
      </trkpt>
      <trkpt lat="49.46533" lon="1.40623">
        <ele>117</ele>
        <time>2026-05-16T15:20:28.800Z</time>
      </trkpt>
      <trkpt lat="49.46529" lon="1.40617">
        <ele>117</ele>
        <time>2026-05-16T15:20:32.972Z</time>
      </trkpt>
      <trkpt lat="49.46527" lon="1.40611">
        <ele>117</ele>
        <time>2026-05-16T15:20:37.167Z</time>
      </trkpt>
      <trkpt lat="49.46524" lon="1.40605">
        <ele>117</ele>
        <time>2026-05-16T15:20:41.216Z</time>
      </trkpt>
      <trkpt lat="49.46522" lon="1.40599">
        <ele>117</ele>
        <time>2026-05-16T15:20:45.232Z</time>
      </trkpt>
      <trkpt lat="49.46519" lon="1.40593">
        <ele>113</ele>
        <time>2026-05-16T15:20:49.411Z</time>
      </trkpt>
      <trkpt lat="49.46516" lon="1.40587">
        <ele>113</ele>
        <time>2026-05-16T15:20:53.669Z</time>
      </trkpt>
      <trkpt lat="49.46513" lon="1.40582">
        <ele>118</ele>
        <time>2026-05-16T15:20:57.800Z</time>
      </trkpt>
      <trkpt lat="49.46509" lon="1.40577">
        <ele>118</ele>
        <time>2026-05-16T15:21:02.129Z</time>
      </trkpt>
      <trkpt lat="49.46505" lon="1.40574">
        <ele>118</ele>
        <time>2026-05-16T15:21:06.272Z</time>
      </trkpt>
      <trkpt lat="49.46501" lon="1.4057">
        <ele>118</ele>
        <time>2026-05-16T15:21:10.765Z</time>
      </trkpt>
      <trkpt lat="49.46497" lon="1.40567">
        <ele>115</ele>
        <time>2026-05-16T15:21:14.971Z</time>
      </trkpt>
      <trkpt lat="49.46493" lon="1.40562">
        <ele>115</ele>
        <time>2026-05-16T15:21:19.253Z</time>
      </trkpt>
      <trkpt lat="49.4649" lon="1.40558">
        <ele>115</ele>
        <time>2026-05-16T15:21:23.387Z</time>
      </trkpt>
      <trkpt lat="49.46486" lon="1.40554">
        <ele>121</ele>
        <time>2026-05-16T15:21:27.652Z</time>
      </trkpt>
      <trkpt lat="49.46482" lon="1.4055">
        <ele>121</ele>
        <time>2026-05-16T15:21:31.725Z</time>
      </trkpt>
      <trkpt lat="49.46479" lon="1.40545">
        <ele>121</ele>
        <time>2026-05-16T15:21:35.800Z</time>
      </trkpt>
      <trkpt lat="49.46475" lon="1.40542">
        <ele>118</ele>
        <time>2026-05-16T15:21:40.027Z</time>
      </trkpt>
      <trkpt lat="49.46471" lon="1.40538">
        <ele>118</ele>
        <time>2026-05-16T15:21:44.266Z</time>
      </trkpt>
      <trkpt lat="49.46468" lon="1.40533">
        <ele>118</ele>
        <time>2026-05-16T15:21:48.531Z</time>
      </trkpt>
      <trkpt lat="49.46464" lon="1.40527">
        <ele>118</ele>
        <time>2026-05-16T15:21:52.728Z</time>
      </trkpt>
      <trkpt lat="49.46462" lon="1.40521">
        <ele>118</ele>
        <time>2026-05-16T15:21:56.792Z</time>
      </trkpt>
      <trkpt lat="49.46462" lon="1.40514">
        <ele>113</ele>
        <time>2026-05-16T15:22:00.800Z</time>
      </trkpt>
      <trkpt lat="49.46466" lon="1.40507">
        <ele>113</ele>
        <time>2026-05-16T15:22:05.226Z</time>
      </trkpt>
      <trkpt lat="49.46468" lon="1.40499">
        <ele>113</ele>
        <time>2026-05-16T15:22:09.511Z</time>
      </trkpt>
      <trkpt lat="49.4647" lon="1.40492">
        <ele>113</ele>
        <time>2026-05-16T15:22:14.216Z</time>
      </trkpt>
      <trkpt lat="49.46472" lon="1.40486">
        <ele>108</ele>
        <time>2026-05-16T15:22:18.800Z</time>
      </trkpt>
      <trkpt lat="49.46474" lon="1.40478">
        <ele>108</ele>
        <time>2026-05-16T15:22:23.447Z</time>
      </trkpt>
      <trkpt lat="49.46477" lon="1.40474">
        <ele>108</ele>
        <time>2026-05-16T15:22:27.669Z</time>
      </trkpt>
      <trkpt lat="49.4648" lon="1.40471">
        <ele>108</ele>
        <time>2026-05-16T15:22:31.800Z</time>
      </trkpt>
      <trkpt lat="49.46482" lon="1.40462">
        <ele>108</ele>
        <time>2026-05-16T15:22:36.800Z</time>
      </trkpt>
      <trkpt lat="49.46481" lon="1.40455">
        <ele>104</ele>
        <time>2026-05-16T15:22:41.387Z</time>
      </trkpt>
      <trkpt lat="49.46478" lon="1.40452">
        <ele>104</ele>
        <time>2026-05-16T15:22:45.800Z</time>
      </trkpt>
      <trkpt lat="49.46478" lon="1.40452">
        <ele>104</ele>
        <time>2026-05-16T15:24:11.800Z</time>
      </trkpt>
      <trkpt lat="49.46477" lon="1.40449">
        <ele>104</ele>
        <time>2026-05-16T15:24:16.781Z</time>
      </trkpt>
      <trkpt lat="49.46475" lon="1.40441">
        <ele>104</ele>
        <time>2026-05-16T15:24:21.535Z</time>
      </trkpt>
      <trkpt lat="49.4647" lon="1.40436">
        <ele>104</ele>
        <time>2026-05-16T15:24:26.263Z</time>
      </trkpt>
      <trkpt lat="49.46464" lon="1.40435">
        <ele>104</ele>
        <time>2026-05-16T15:24:30.538Z</time>
      </trkpt>
      <trkpt lat="49.4646" lon="1.40436">
        <ele>104</ele>
        <time>2026-05-16T15:24:34.800Z</time>
      </trkpt>
      <trkpt lat="49.46456" lon="1.40434">
        <ele>110</ele>
        <time>2026-05-16T15:24:38.957Z</time>
      </trkpt>
      <trkpt lat="49.46453" lon="1.40428">
        <ele>105</ele>
        <time>2026-05-16T15:24:43.760Z</time>
      </trkpt>
      <trkpt lat="49.46449" lon="1.40424">
        <ele>105</ele>
        <time>2026-05-16T15:24:47.798Z</time>
      </trkpt>
      <trkpt lat="49.46444" lon="1.40421">
        <ele>105</ele>
        <time>2026-05-16T15:24:51.800Z</time>
      </trkpt>
      <trkpt lat="49.4644" lon="1.40417">
        <ele>105</ele>
        <time>2026-05-16T15:24:56.461Z</time>
      </trkpt>
      <trkpt lat="49.46437" lon="1.40411">
        <ele>105</ele>
        <time>2026-05-16T15:25:00.622Z</time>
      </trkpt>
      <trkpt lat="49.46436" lon="1.40406">
        <ele>105</ele>
        <time>2026-05-16T15:25:05.178Z</time>
      </trkpt>
      <trkpt lat="49.46436" lon="1.40398">
        <ele>100</ele>
        <time>2026-05-16T15:25:09.576Z</time>
      </trkpt>
      <trkpt lat="49.46438" lon="1.40389">
        <ele>100</ele>
        <time>2026-05-16T15:25:13.957Z</time>
      </trkpt>
      <trkpt lat="49.46439" lon="1.40382">
        <ele>100</ele>
        <time>2026-05-16T15:25:18.197Z</time>
      </trkpt>
      <trkpt lat="49.46441" lon="1.40373">
        <ele>97</ele>
        <time>2026-05-16T15:25:22.498Z</time>
      </trkpt>
      <trkpt lat="49.4644" lon="1.40365">
        <ele>97</ele>
        <time>2026-05-16T15:25:27.036Z</time>
      </trkpt>
      <trkpt lat="49.46441" lon="1.40358">
        <ele>97</ele>
        <time>2026-05-16T15:25:31.496Z</time>
      </trkpt>
      <trkpt lat="49.46447" lon="1.40352">
        <ele>97</ele>
        <time>2026-05-16T15:25:35.800Z</time>
      </trkpt>
      <trkpt lat="49.4645" lon="1.40345">
        <ele>94</ele>
        <time>2026-05-16T15:25:40.459Z</time>
      </trkpt>
      <trkpt lat="49.46452" lon="1.40338">
        <ele>94</ele>
        <time>2026-05-16T15:25:44.800Z</time>
      </trkpt>
      <trkpt lat="49.46453" lon="1.40332">
        <ele>94</ele>
        <time>2026-05-16T15:25:49.057Z</time>
      </trkpt>
      <trkpt lat="49.46457" lon="1.40325">
        <ele>94</ele>
        <time>2026-05-16T15:25:53.800Z</time>
      </trkpt>
      <trkpt lat="49.46459" lon="1.40318">
        <ele>93</ele>
        <time>2026-05-16T15:25:58.520Z</time>
      </trkpt>
      <trkpt lat="49.46461" lon="1.40312">
        <ele>93</ele>
        <time>2026-05-16T15:26:02.575Z</time>
      </trkpt>
      <trkpt lat="49.46459" lon="1.4031">
        <ele>93</ele>
        <time>2026-05-16T15:26:06.800Z</time>
      </trkpt>
      <trkpt lat="49.46455" lon="1.40303">
        <ele>94</ele>
        <time>2026-05-16T15:26:11.459Z</time>
      </trkpt>
      <trkpt lat="49.46452" lon="1.40298">
        <ele>94</ele>
        <time>2026-05-16T15:26:15.559Z</time>
      </trkpt>
      <trkpt lat="49.4645" lon="1.40293">
        <ele>94</ele>
        <time>2026-05-16T15:26:19.720Z</time>
      </trkpt>
      <trkpt lat="49.46449" lon="1.40287">
        <ele>92</ele>
        <time>2026-05-16T15:26:23.800Z</time>
      </trkpt>
      <trkpt lat="49.46447" lon="1.4028">
        <ele>92</ele>
        <time>2026-05-16T15:26:28.182Z</time>
      </trkpt>
      <trkpt lat="49.46446" lon="1.40273">
        <ele>92</ele>
        <time>2026-05-16T15:26:32.800Z</time>
      </trkpt>
      <trkpt lat="49.46444" lon="1.40266">
        <ele>92</ele>
        <time>2026-05-16T15:26:37.415Z</time>
      </trkpt>
      <trkpt lat="49.46442" lon="1.40261">
        <ele>89</ele>
        <time>2026-05-16T15:26:41.496Z</time>
      </trkpt>
      <trkpt lat="49.46439" lon="1.40254">
        <ele>89</ele>
        <time>2026-05-16T15:26:46.061Z</time>
      </trkpt>
      <trkpt lat="49.46437" lon="1.40248">
        <ele>89</ele>
        <time>2026-05-16T15:26:50.196Z</time>
      </trkpt>
      <trkpt lat="49.46435" lon="1.40243">
        <ele>89</ele>
        <time>2026-05-16T15:26:54.322Z</time>
      </trkpt>
      <trkpt lat="49.46433" lon="1.40236">
        <ele>89</ele>
        <time>2026-05-16T15:26:58.438Z</time>
      </trkpt>
      <trkpt lat="49.46432" lon="1.40229">
        <ele>86</ele>
        <time>2026-05-16T15:27:03.082Z</time>
      </trkpt>
      <trkpt lat="49.46431" lon="1.40221">
        <ele>86</ele>
        <time>2026-05-16T15:27:07.620Z</time>
      </trkpt>
      <trkpt lat="49.46429" lon="1.40215">
        <ele>86</ele>
        <time>2026-05-16T15:27:11.719Z</time>
      </trkpt>
      <trkpt lat="49.46427" lon="1.40208">
        <ele>84</ele>
        <time>2026-05-16T15:27:15.800Z</time>
      </trkpt>
      <trkpt lat="49.46425" lon="1.40202">
        <ele>84</ele>
        <time>2026-05-16T15:27:19.900Z</time>
      </trkpt>
      <trkpt lat="49.46423" lon="1.40195">
        <ele>84</ele>
        <time>2026-05-16T15:27:24.657Z</time>
      </trkpt>
      <trkpt lat="49.46421" lon="1.40189">
        <ele>84</ele>
        <time>2026-05-16T15:27:28.800Z</time>
      </trkpt>
      <trkpt lat="49.4642" lon="1.40185">
        <ele>84</ele>
        <time>2026-05-16T15:27:32.996Z</time>
      </trkpt>
      <trkpt lat="49.46417" lon="1.40179">
        <ele>83</ele>
        <time>2026-05-16T15:27:37.183Z</time>
      </trkpt>
      <trkpt lat="49.46415" lon="1.40173">
        <ele>83</ele>
        <time>2026-05-16T15:27:41.379Z</time>
      </trkpt>
      <trkpt lat="49.46414" lon="1.40166">
        <ele>83</ele>
        <time>2026-05-16T15:27:45.540Z</time>
      </trkpt>
      <trkpt lat="49.46412" lon="1.40159">
        <ele>83</ele>
        <time>2026-05-16T15:27:49.717Z</time>
      </trkpt>
      <trkpt lat="49.4641" lon="1.40153">
        <ele>83</ele>
        <time>2026-05-16T15:27:53.799Z</time>
      </trkpt>
      <trkpt lat="49.46408" lon="1.40147">
        <ele>82</ele>
        <time>2026-05-16T15:27:57.915Z</time>
      </trkpt>
      <trkpt lat="49.46407" lon="1.40141">
        <ele>82</ele>
        <time>2026-05-16T15:28:02.041Z</time>
      </trkpt>
      <trkpt lat="49.46405" lon="1.40134">
        <ele>82</ele>
        <time>2026-05-16T15:28:06.175Z</time>
      </trkpt>
      <trkpt lat="49.46403" lon="1.40128">
        <ele>82</ele>
        <time>2026-05-16T15:28:10.283Z</time>
      </trkpt>
      <trkpt lat="49.46401" lon="1.40122">
        <ele>80</ele>
        <time>2026-05-16T15:28:14.461Z</time>
      </trkpt>
      <trkpt lat="49.464" lon="1.40115">
        <ele>80</ele>
        <time>2026-05-16T15:28:18.542Z</time>
      </trkpt>
      <trkpt lat="49.46398" lon="1.40109">
        <ele>80</ele>
        <time>2026-05-16T15:28:22.598Z</time>
      </trkpt>
      <trkpt lat="49.46397" lon="1.40101">
        <ele>80</ele>
        <time>2026-05-16T15:28:26.758Z</time>
      </trkpt>
      <trkpt lat="49.46396" lon="1.40094">
        <ele>78</ele>
        <time>2026-05-16T15:28:30.796Z</time>
      </trkpt>
      <trkpt lat="49.46394" lon="1.40088">
        <ele>78</ele>
        <time>2026-05-16T15:28:35.001Z</time>
      </trkpt>
      <trkpt lat="49.46391" lon="1.40082">
        <ele>78</ele>
        <time>2026-05-16T15:28:39.117Z</time>
      </trkpt>
      <trkpt lat="49.46389" lon="1.40076">
        <ele>78</ele>
        <time>2026-05-16T15:28:43.216Z</time>
      </trkpt>
      <trkpt lat="49.46386" lon="1.4007">
        <ele>78</ele>
        <time>2026-05-16T15:28:47.800Z</time>
      </trkpt>
      <trkpt lat="49.46384" lon="1.40062">
        <ele>75</ele>
        <time>2026-05-16T15:28:52.379Z</time>
      </trkpt>
      <trkpt lat="49.46382" lon="1.40059">
        <ele>75</ele>
        <time>2026-05-16T15:28:56.523Z</time>
      </trkpt>
      <trkpt lat="49.46378" lon="1.40052">
        <ele>75</ele>
        <time>2026-05-16T15:29:00.719Z</time>
      </trkpt>
      <trkpt lat="49.46375" lon="1.40046">
        <ele>75</ele>
        <time>2026-05-16T15:29:04.756Z</time>
      </trkpt>
      <trkpt lat="49.46367" lon="1.40037">
        <ele>74</ele>
        <time>2026-05-16T15:29:59.800Z</time>
      </trkpt>
      <trkpt lat="49.46367" lon="1.40037">
        <ele>74</ele>
        <time>2026-05-16T15:30:04.800Z</time>
      </trkpt>
      <trkpt lat="49.46366" lon="1.40037">
        <ele>74</ele>
        <time>2026-05-16T15:30:12.800Z</time>
      </trkpt>
      <trkpt lat="49.46366" lon="1.40033">
        <ele>74</ele>
        <time>2026-05-16T15:30:17.800Z</time>
      </trkpt>
      <trkpt lat="49.46363" lon="1.40027">
        <ele>74</ele>
        <time>2026-05-16T15:30:21.800Z</time>
      </trkpt>
      <trkpt lat="49.46359" lon="1.4002">
        <ele>74</ele>
        <time>2026-05-16T15:30:26.799Z</time>
      </trkpt>
      <trkpt lat="49.46355" lon="1.40014">
        <ele>74</ele>
        <time>2026-05-16T15:30:30.800Z</time>
      </trkpt>
      <trkpt lat="49.46352" lon="1.40007">
        <ele>73</ele>
        <time>2026-05-16T15:30:35.800Z</time>
      </trkpt>
      <trkpt lat="49.46348" lon="1.39999">
        <ele>73</ele>
        <time>2026-05-16T15:30:40.158Z</time>
      </trkpt>
      <trkpt lat="49.46345" lon="1.39992">
        <ele>75</ele>
        <time>2026-05-16T15:30:44.502Z</time>
      </trkpt>
      <trkpt lat="49.46342" lon="1.39985">
        <ele>74</ele>
        <time>2026-05-16T15:30:49.400Z</time>
      </trkpt>
      <trkpt lat="49.46338" lon="1.39978">
        <ele>74</ele>
        <time>2026-05-16T15:30:53.737Z</time>
      </trkpt>
      <trkpt lat="49.46334" lon="1.39971">
        <ele>74</ele>
        <time>2026-05-16T15:30:57.958Z</time>
      </trkpt>
      <trkpt lat="49.4633" lon="1.39964">
        <ele>74</ele>
        <time>2026-05-16T15:31:02.198Z</time>
      </trkpt>
      <trkpt lat="49.46326" lon="1.39958">
        <ele>73</ele>
        <time>2026-05-16T15:31:06.375Z</time>
      </trkpt>
      <trkpt lat="49.46322" lon="1.39953">
        <ele>73</ele>
        <time>2026-05-16T15:31:10.676Z</time>
      </trkpt>
      <trkpt lat="49.46318" lon="1.39947">
        <ele>75</ele>
        <time>2026-05-16T15:31:14.916Z</time>
      </trkpt>
      <trkpt lat="49.46314" lon="1.39942">
        <ele>75</ele>
        <time>2026-05-16T15:31:19.260Z</time>
      </trkpt>
      <trkpt lat="49.4631" lon="1.39936">
        <ele>75</ele>
        <time>2026-05-16T15:31:23.281Z</time>
      </trkpt>
      <trkpt lat="49.46307" lon="1.39929">
        <ele>74</ele>
        <time>2026-05-16T15:31:27.415Z</time>
      </trkpt>
      <trkpt lat="49.46303" lon="1.39923">
        <ele>74</ele>
        <time>2026-05-16T15:31:31.558Z</time>
      </trkpt>
      <trkpt lat="49.46299" lon="1.39916">
        <ele>74</ele>
        <time>2026-05-16T15:31:35.735Z</time>
      </trkpt>
      <trkpt lat="49.46296" lon="1.39909">
        <ele>74</ele>
        <time>2026-05-16T15:31:39.896Z</time>
      </trkpt>
      <trkpt lat="49.46292" lon="1.39902">
        <ele>72</ele>
        <time>2026-05-16T15:31:43.977Z</time>
      </trkpt>
      <trkpt lat="49.46288" lon="1.39895">
        <ele>72</ele>
        <time>2026-05-16T15:31:48.042Z</time>
      </trkpt>
      <trkpt lat="49.46284" lon="1.39888">
        <ele>72</ele>
        <time>2026-05-16T15:31:52.175Z</time>
      </trkpt>
      <trkpt lat="49.46279" lon="1.39882">
        <ele>72</ele>
        <time>2026-05-16T15:31:56.379Z</time>
      </trkpt>
      <trkpt lat="49.46274" lon="1.39878">
        <ele>72</ele>
        <time>2026-05-16T15:32:00.417Z</time>
      </trkpt>
      <trkpt lat="49.4627" lon="1.39872">
        <ele>70</ele>
        <time>2026-05-16T15:32:04.516Z</time>
      </trkpt>
      <trkpt lat="49.46264" lon="1.3987">
        <ele>70</ele>
        <time>2026-05-16T15:32:08.800Z</time>
      </trkpt>
      <trkpt lat="49.46263" lon="1.39874">
        <ele>69</ele>
        <time>2026-05-16T15:32:13.800Z</time>
      </trkpt>
      <trkpt lat="49.46262" lon="1.39873">
        <ele>69</ele>
        <time>2026-05-16T15:32:17.875Z</time>
      </trkpt>
      <trkpt lat="49.46256" lon="1.3987">
        <ele>69</ele>
        <time>2026-05-16T15:32:22.370Z</time>
      </trkpt>
      <trkpt lat="49.46252" lon="1.39863">
        <ele>69</ele>
        <time>2026-05-16T15:32:26.881Z</time>
      </trkpt>
      <trkpt lat="49.46248" lon="1.39857">
        <ele>69</ele>
        <time>2026-05-16T15:32:31.139Z</time>
      </trkpt>
      <trkpt lat="49.46247" lon="1.39847">
        <ele>67</ele>
        <time>2026-05-16T15:32:35.798Z</time>
      </trkpt>
      <trkpt lat="49.46244" lon="1.3984">
        <ele>67</ele>
        <time>2026-05-16T15:32:39.799Z</time>
      </trkpt>
      <trkpt lat="49.46239" lon="1.39835">
        <ele>67</ele>
        <time>2026-05-16T15:32:44.716Z</time>
      </trkpt>
      <trkpt lat="49.46235" lon="1.39829">
        <ele>66</ele>
        <time>2026-05-16T15:32:49.017Z</time>
      </trkpt>
      <trkpt lat="49.46233" lon="1.39821">
        <ele>66</ele>
        <time>2026-05-16T15:32:53.396Z</time>
      </trkpt>
      <trkpt lat="49.4623" lon="1.39819">
        <ele>64</ele>
        <time>2026-05-16T15:32:57.601Z</time>
      </trkpt>
      <trkpt lat="49.46229" lon="1.39813">
        <ele>64</ele>
        <time>2026-05-16T15:33:01.800Z</time>
      </trkpt>
      <trkpt lat="49.46234" lon="1.39806">
        <ele>64</ele>
        <time>2026-05-16T15:33:06.800Z</time>
      </trkpt>
      <trkpt lat="49.46239" lon="1.39798">
        <ele>64</ele>
        <time>2026-05-16T15:33:11.039Z</time>
      </trkpt>
      <trkpt lat="49.4624" lon="1.3979">
        <ele>62</ele>
        <time>2026-05-16T15:33:15.498Z</time>
      </trkpt>
      <trkpt lat="49.46245" lon="1.39785">
        <ele>62</ele>
        <time>2026-05-16T15:33:19.800Z</time>
      </trkpt>
      <trkpt lat="49.4625" lon="1.39779">
        <ele>62</ele>
        <time>2026-05-16T15:33:24.277Z</time>
      </trkpt>
      <trkpt lat="49.46255" lon="1.39774">
        <ele>62</ele>
        <time>2026-05-16T15:33:28.800Z</time>
      </trkpt>
      <trkpt lat="49.46259" lon="1.39769">
        <ele>62</ele>
        <time>2026-05-16T15:33:32.958Z</time>
      </trkpt>
      <trkpt lat="49.46264" lon="1.39765">
        <ele>62</ele>
        <time>2026-05-16T15:33:37.399Z</time>
      </trkpt>
      <trkpt lat="49.4627" lon="1.3976">
        <ele>62</ele>
        <time>2026-05-16T15:33:42.279Z</time>
      </trkpt>
      <trkpt lat="49.46274" lon="1.39755">
        <ele>62</ele>
        <time>2026-05-16T15:33:46.739Z</time>
      </trkpt>
      <trkpt lat="49.46278" lon="1.39751">
        <ele>62</ele>
        <time>2026-05-16T15:33:51.179Z</time>
      </trkpt>
      <trkpt lat="49.46282" lon="1.39744">
        <ele>62</ele>
        <time>2026-05-16T15:33:55.639Z</time>
      </trkpt>
      <trkpt lat="49.46287" lon="1.39737">
        <ele>62</ele>
        <time>2026-05-16T15:34:00.176Z</time>
      </trkpt>
      <trkpt lat="49.4629" lon="1.39731">
        <ele>62</ele>
        <time>2026-05-16T15:34:04.617Z</time>
      </trkpt>
      <trkpt lat="49.46294" lon="1.39727">
        <ele>63</ele>
        <time>2026-05-16T15:34:09.015Z</time>
      </trkpt>
      <trkpt lat="49.46298" lon="1.3972">
        <ele>63</ele>
        <time>2026-05-16T15:34:13.281Z</time>
      </trkpt>
      <trkpt lat="49.46301" lon="1.39712">
        <ele>63</ele>
        <time>2026-05-16T15:34:17.800Z</time>
      </trkpt>
      <trkpt lat="49.46303" lon="1.39705">
        <ele>63</ele>
        <time>2026-05-16T15:34:22.260Z</time>
      </trkpt>
      <trkpt lat="49.46305" lon="1.397">
        <ele>63</ele>
        <time>2026-05-16T15:34:26.800Z</time>
      </trkpt>
      <trkpt lat="49.46306" lon="1.39701">
        <ele>63</ele>
        <time>2026-05-16T15:34:33.800Z</time>
      </trkpt>
      <trkpt lat="49.46314" lon="1.39691">
        <ele>63</ele>
        <time>2026-05-16T15:35:19.800Z</time>
      </trkpt>
      <trkpt lat="49.46314" lon="1.39691">
        <ele>63</ele>
        <time>2026-05-16T15:35:30.800Z</time>
      </trkpt>
      <trkpt lat="49.46314" lon="1.39689">
        <ele>63</ele>
        <time>2026-05-16T15:35:35.558Z</time>
      </trkpt>
      <trkpt lat="49.46317" lon="1.39687">
        <ele>63</ele>
        <time>2026-05-16T15:35:39.800Z</time>
      </trkpt>
      <trkpt lat="49.46317" lon="1.39687">
        <ele>63</ele>
        <time>2026-05-16T15:35:43.800Z</time>
      </trkpt>
      <trkpt lat="49.46318" lon="1.39687">
        <ele>63</ele>
        <time>2026-05-16T15:36:41.288Z</time>
      </trkpt>
      <trkpt lat="49.46316" lon="1.39689">
        <ele>63</ele>
        <time>2026-05-16T15:36:45.800Z</time>
      </trkpt>
      <trkpt lat="49.46313" lon="1.39695">
        <ele>63</ele>
        <time>2026-05-16T15:36:50.799Z</time>
      </trkpt>
      <trkpt lat="49.46309" lon="1.39699">
        <ele>63</ele>
        <time>2026-05-16T15:36:55.424Z</time>
      </trkpt>
      <trkpt lat="49.46305" lon="1.397">
        <ele>63</ele>
        <time>2026-05-16T15:36:59.462Z</time>
      </trkpt>
      <trkpt lat="49.463" lon="1.39696">
        <ele>63</ele>
        <time>2026-05-16T15:37:03.624Z</time>
      </trkpt>
      <trkpt lat="49.46296" lon="1.39691">
        <ele>63</ele>
        <time>2026-05-16T15:37:07.800Z</time>
      </trkpt>
      <trkpt lat="49.46293" lon="1.39686">
        <ele>63</ele>
        <time>2026-05-16T15:37:12.622Z</time>
      </trkpt>
      <trkpt lat="49.4629" lon="1.39678">
        <ele>62</ele>
        <time>2026-05-16T15:37:16.625Z</time>
      </trkpt>
      <trkpt lat="49.46287" lon="1.39672">
        <ele>62</ele>
        <time>2026-05-16T15:37:20.663Z</time>
      </trkpt>
      <trkpt lat="49.46285" lon="1.39665">
        <ele>62</ele>
        <time>2026-05-16T15:37:25.123Z</time>
      </trkpt>
      <trkpt lat="49.46282" lon="1.39658">
        <ele>62</ele>
        <time>2026-05-16T15:37:29.583Z</time>
      </trkpt>
      <trkpt lat="49.46278" lon="1.39651">
        <ele>62</ele>
        <time>2026-05-16T15:37:34.121Z</time>
      </trkpt>
      <trkpt lat="49.46274" lon="1.39645">
        <ele>62</ele>
        <time>2026-05-16T15:37:38.660Z</time>
      </trkpt>
      <trkpt lat="49.4627" lon="1.39638">
        <ele>62</ele>
        <time>2026-05-16T15:37:43.120Z</time>
      </trkpt>
      <trkpt lat="49.46267" lon="1.39632">
        <ele>62</ele>
        <time>2026-05-16T15:37:47.561Z</time>
      </trkpt>
      <trkpt lat="49.46263" lon="1.39626">
        <ele>61</ele>
        <time>2026-05-16T15:37:51.986Z</time>
      </trkpt>
      <trkpt lat="49.46259" lon="1.39619">
        <ele>60</ele>
        <time>2026-05-16T15:37:56.499Z</time>
      </trkpt>
      <trkpt lat="49.46256" lon="1.39613">
        <ele>60</ele>
        <time>2026-05-16T15:38:01.047Z</time>
      </trkpt>
      <trkpt lat="49.46253" lon="1.39607">
        <ele>60</ele>
        <time>2026-05-16T15:38:05.102Z</time>
      </trkpt>
      <trkpt lat="49.4625" lon="1.39601">
        <ele>60</ele>
        <time>2026-05-16T15:38:09.166Z</time>
      </trkpt>
      <trkpt lat="49.46247" lon="1.39597">
        <ele>59</ele>
        <time>2026-05-16T15:38:13.187Z</time>
      </trkpt>
      <trkpt lat="49.46244" lon="1.39589">
        <ele>59</ele>
        <time>2026-05-16T15:38:17.382Z</time>
      </trkpt>
      <trkpt lat="49.4624" lon="1.39583">
        <ele>59</ele>
        <time>2026-05-16T15:38:21.720Z</time>
      </trkpt>
      <trkpt lat="49.4624" lon="1.39579">
        <ele>59</ele>
        <time>2026-05-16T15:38:26.143Z</time>
      </trkpt>
      <trkpt lat="49.4624" lon="1.39576">
        <ele>59</ele>
        <time>2026-05-16T15:38:30.800Z</time>
      </trkpt>
      <trkpt lat="49.4624" lon="1.39578">
        <ele>59</ele>
        <time>2026-05-16T15:38:34.800Z</time>
      </trkpt>
      <trkpt lat="49.46237" lon="1.39576">
        <ele>59</ele>
        <time>2026-05-16T15:38:39.162Z</time>
      </trkpt>
      <trkpt lat="49.46233" lon="1.39574">
        <ele>60</ele>
        <time>2026-05-16T15:38:43.261Z</time>
      </trkpt>
      <trkpt lat="49.46229" lon="1.3957">
        <ele>60</ele>
        <time>2026-05-16T15:38:47.343Z</time>
      </trkpt>
      <trkpt lat="49.46225" lon="1.39564">
        <ele>61</ele>
        <time>2026-05-16T15:38:51.503Z</time>
      </trkpt>
      <trkpt lat="49.46224" lon="1.39558">
        <ele>61</ele>
        <time>2026-05-16T15:38:55.682Z</time>
      </trkpt>
      <trkpt lat="49.46221" lon="1.39554">
        <ele>61</ele>
        <time>2026-05-16T15:38:59.765Z</time>
      </trkpt>
      <trkpt lat="49.46217" lon="1.39549">
        <ele>61</ele>
        <time>2026-05-16T15:39:04.021Z</time>
      </trkpt>
      <trkpt lat="49.46214" lon="1.39543">
        <ele>61</ele>
        <time>2026-05-16T15:39:08.200Z</time>
      </trkpt>
      <trkpt lat="49.4621" lon="1.39537">
        <ele>62</ele>
        <time>2026-05-16T15:39:12.440Z</time>
      </trkpt>
      <trkpt lat="49.46207" lon="1.39534">
        <ele>65</ele>
        <time>2026-05-16T15:39:16.539Z</time>
      </trkpt>
      <trkpt lat="49.46204" lon="1.39529">
        <ele>65</ele>
        <time>2026-05-16T15:39:20.743Z</time>
      </trkpt>
      <trkpt lat="49.462" lon="1.39523">
        <ele>65</ele>
        <time>2026-05-16T15:39:24.939Z</time>
      </trkpt>
      <trkpt lat="49.46197" lon="1.39518">
        <ele>65</ele>
        <time>2026-05-16T15:39:29.058Z</time>
      </trkpt>
      <trkpt lat="49.46194" lon="1.39513">
        <ele>65</ele>
        <time>2026-05-16T15:39:33.323Z</time>
      </trkpt>
      <trkpt lat="49.4619" lon="1.39508">
        <ele>65</ele>
        <time>2026-05-16T15:39:37.580Z</time>
      </trkpt>
      <trkpt lat="49.46186" lon="1.39503">
        <ele>65</ele>
        <time>2026-05-16T15:39:41.724Z</time>
      </trkpt>
      <trkpt lat="49.46182" lon="1.39498">
        <ele>65</ele>
        <time>2026-05-16T15:39:45.800Z</time>
      </trkpt>
      <trkpt lat="49.46179" lon="1.39493">
        <ele>66</ele>
        <time>2026-05-16T15:39:49.800Z</time>
      </trkpt>
      <trkpt lat="49.46176" lon="1.39487">
        <ele>66</ele>
        <time>2026-05-16T15:39:54.021Z</time>
      </trkpt>
      <trkpt lat="49.46172" lon="1.39482">
        <ele>66</ele>
        <time>2026-05-16T15:39:58.800Z</time>
      </trkpt>
      <trkpt lat="49.46168" lon="1.39476">
        <ele>66</ele>
        <time>2026-05-16T15:40:03.186Z</time>
      </trkpt>
      <trkpt lat="49.46166" lon="1.39474">
        <ele>66</ele>
        <time>2026-05-16T15:40:07.662Z</time>
      </trkpt>
      <trkpt lat="49.4616" lon="1.39469">
        <ele>66</ele>
        <time>2026-05-16T15:40:11.762Z</time>
      </trkpt>
      <trkpt lat="49.46156" lon="1.39461">
        <ele>66</ele>
        <time>2026-05-16T15:40:15.800Z</time>
      </trkpt>
      <trkpt lat="49.46155" lon="1.39456">
        <ele>67</ele>
        <time>2026-05-16T15:40:20.005Z</time>
      </trkpt>
      <trkpt lat="49.4615" lon="1.39452">
        <ele>67</ele>
        <time>2026-05-16T15:40:24.104Z</time>
      </trkpt>
      <trkpt lat="49.46146" lon="1.39445">
        <ele>67</ele>
        <time>2026-05-16T15:40:28.326Z</time>
      </trkpt>
      <trkpt lat="49.46142" lon="1.3944">
        <ele>67</ele>
        <time>2026-05-16T15:40:32.381Z</time>
      </trkpt>
      <trkpt lat="49.46138" lon="1.39436">
        <ele>67</ele>
        <time>2026-05-16T15:40:36.480Z</time>
      </trkpt>
      <trkpt lat="49.46135" lon="1.3943">
        <ele>67</ele>
        <time>2026-05-16T15:40:40.721Z</time>
      </trkpt>
      <trkpt lat="49.46132" lon="1.39424">
        <ele>67</ele>
        <time>2026-05-16T15:40:44.799Z</time>
      </trkpt>
      <trkpt lat="49.46129" lon="1.39419">
        <ele>67</ele>
        <time>2026-05-16T15:40:48.963Z</time>
      </trkpt>
      <trkpt lat="49.46125" lon="1.39414">
        <ele>67</ele>
        <time>2026-05-16T15:40:53.044Z</time>
      </trkpt>
      <trkpt lat="49.46122" lon="1.39409">
        <ele>68</ele>
        <time>2026-05-16T15:40:57.065Z</time>
      </trkpt>
      <trkpt lat="49.46118" lon="1.39405">
        <ele>68</ele>
        <time>2026-05-16T15:41:01.260Z</time>
      </trkpt>
      <trkpt lat="49.46115" lon="1.394">
        <ele>68</ele>
        <time>2026-05-16T15:41:05.281Z</time>
      </trkpt>
      <trkpt lat="49.46111" lon="1.39395">
        <ele>68</ele>
        <time>2026-05-16T15:41:09.425Z</time>
      </trkpt>
      <trkpt lat="49.46108" lon="1.3939">
        <ele>68</ele>
        <time>2026-05-16T15:41:13.681Z</time>
      </trkpt>
      <trkpt lat="49.46105" lon="1.39385">
        <ele>68</ele>
        <time>2026-05-16T15:41:17.764Z</time>
      </trkpt>
      <trkpt lat="49.46101" lon="1.39381">
        <ele>68</ele>
        <time>2026-05-16T15:41:21.801Z</time>
      </trkpt>
      <trkpt lat="49.46097" lon="1.39376">
        <ele>68</ele>
        <time>2026-05-16T15:41:25.800Z</time>
      </trkpt>
      <trkpt lat="49.46093" lon="1.39371">
        <ele>68</ele>
        <time>2026-05-16T15:41:29.965Z</time>
      </trkpt>
      <trkpt lat="49.4609" lon="1.39366">
        <ele>68</ele>
        <time>2026-05-16T15:41:34.046Z</time>
      </trkpt>
      <trkpt lat="49.46087" lon="1.39361">
        <ele>68</ele>
        <time>2026-05-16T15:41:38.101Z</time>
      </trkpt>
      <trkpt lat="49.46082" lon="1.39356">
        <ele>68</ele>
        <time>2026-05-16T15:41:42.245Z</time>
      </trkpt>
      <trkpt lat="49.46076" lon="1.39354">
        <ele>68</ele>
        <time>2026-05-16T15:41:46.782Z</time>
      </trkpt>
      <trkpt lat="49.46075" lon="1.39346">
        <ele>67</ele>
        <time>2026-05-16T15:41:50.978Z</time>
      </trkpt>
      <trkpt lat="49.4607" lon="1.39341">
        <ele>67</ele>
        <time>2026-05-16T15:41:55.183Z</time>
      </trkpt>
      <trkpt lat="49.46066" lon="1.39337">
        <ele>67</ele>
        <time>2026-05-16T15:41:59.361Z</time>
      </trkpt>
      <trkpt lat="49.46062" lon="1.39334">
        <ele>67</ele>
        <time>2026-05-16T15:42:03.522Z</time>
      </trkpt>
      <trkpt lat="49.46058" lon="1.3933">
        <ele>67</ele>
        <time>2026-05-16T15:42:07.560Z</time>
      </trkpt>
      <trkpt lat="49.46054" lon="1.39325">
        <ele>67</ele>
        <time>2026-05-16T15:42:11.738Z</time>
      </trkpt>
      <trkpt lat="49.4605" lon="1.39321">
        <ele>67</ele>
        <time>2026-05-16T15:42:15.800Z</time>
      </trkpt>
      <trkpt lat="49.46047" lon="1.39316">
        <ele>66</ele>
        <time>2026-05-16T15:42:20.762Z</time>
      </trkpt>
      <trkpt lat="49.46044" lon="1.39314">
        <ele>66</ele>
        <time>2026-05-16T15:42:25.686Z</time>
      </trkpt>
      <trkpt lat="49.46037" lon="1.39307">
        <ele>66</ele>
        <time>2026-05-16T15:42:34.403Z</time>
      </trkpt>
      <trkpt lat="49.46035" lon="1.39311">
        <ele>66</ele>
        <time>2026-05-16T15:42:38.520Z</time>
      </trkpt>
      <trkpt lat="49.46036" lon="1.39316">
        <ele>66</ele>
        <time>2026-05-16T15:42:42.800Z</time>
      </trkpt>
      <trkpt lat="49.46038" lon="1.39321">
        <ele>66</ele>
        <time>2026-05-16T15:42:47.263Z</time>
      </trkpt>
      <trkpt lat="49.46039" lon="1.39326">
        <ele>66</ele>
        <time>2026-05-16T15:42:51.722Z</time>
      </trkpt>
      <trkpt lat="49.46041" lon="1.3933">
        <ele>66</ele>
        <time>2026-05-16T15:42:56.286Z</time>
      </trkpt>
      <trkpt lat="49.46042" lon="1.39329">
        <ele>67</ele>
        <time>2026-05-16T15:43:00.800Z</time>
      </trkpt>
      <trkpt lat="49.46042" lon="1.3933">
        <ele>67</ele>
        <time>2026-05-16T15:43:05.319Z</time>
      </trkpt>
      <trkpt lat="49.46045" lon="1.39333">
        <ele>67</ele>
        <time>2026-05-16T15:43:09.647Z</time>
      </trkpt>
      <trkpt lat="49.46049" lon="1.3934">
        <ele>67</ele>
        <time>2026-05-16T15:43:14.185Z</time>
      </trkpt>
      <trkpt lat="49.46051" lon="1.39345">
        <ele>67</ele>
        <time>2026-05-16T15:43:18.399Z</time>
      </trkpt>
      <trkpt lat="49.46052" lon="1.39351">
        <ele>67</ele>
        <time>2026-05-16T15:43:22.800Z</time>
      </trkpt>
      <trkpt lat="49.4605" lon="1.39357">
        <ele>67</ele>
        <time>2026-05-16T15:43:27.264Z</time>
      </trkpt>
      <trkpt lat="49.46049" lon="1.39358">
        <ele>67</ele>
        <time>2026-05-16T15:43:31.800Z</time>
      </trkpt>
      <trkpt lat="49.46049" lon="1.39362">
        <ele>67</ele>
        <time>2026-05-16T15:43:35.800Z</time>
      </trkpt>
    </trkseg>
  </trk>
</gpx>